Wetterdaten: Samstag, 30.04.2016
Datum Zeit Temp. A. Feuchte A. Luftdruck Regen Wind Richtung Richtung Sonnenschein ET UV Solar Taupunkt Windchill Windben Empfang
30.04.2016 00:00 7,7 C 66 % 1017,2 hPa 0,0 l/m 10,5 km/h (2 Bft) O-NO 64 0 min 0,000 mm 0,0 UV-I 0 W/m 1,8 C 4,7 C 14,5 km/h (3 Bft) 95,83 %
30.04.2016 00:02 7,6 C 66 % 1017,2 hPa 0,0 l/m 9,7 km/h (2 Bft) O-NO 59 0 min 0,000 mm 0,0 UV-I 0 W/m 1,7 C 5,1 C 9,7 km/h (2 Bft) 97,67 %
30.04.2016 00:03 7,6 C 66 % 1017,2 hPa 0,0 l/m 9,2 km/h (2 Bft) O-NO 65 0 min 0,000 mm 0,0 UV-I 0 W/m 1,7 C 5,5 C 9,7 km/h (2 Bft) 100,00 %
30.04.2016 00:04 7,6 C 66 % 1017,2 hPa 0,0 l/m 9,6 km/h (2 Bft) NO 46 0 min 0,000 mm 0,0 UV-I 0 W/m 1,7 C 5,2 C 12,9 km/h (3 Bft) 100,00 %
30.04.2016 00:05 7,6 C 66 % 1017,2 hPa 0,0 l/m 10,4 km/h (2 Bft) NO 55 0 min 0,000 mm 0,0 UV-I 0 W/m 1,7 C 4,7 C 14,5 km/h (3 Bft) 95,65 %
30.04.2016 00:06 7,6 C 67 % 1017,2 hPa 0,0 l/m 8,9 km/h (2 Bft) NO 40 0 min 0,000 mm 0,0 UV-I 0 W/m 1,9 C 5,7 C 14,5 km/h (3 Bft) 100,00 %
30.04.2016 00:07 7,5 C 67 % 1017,2 hPa 0,0 l/m 7,4 km/h (2 Bft) O-NO 63 0 min 0,000 mm 0,0 UV-I 0 W/m 1,8 C 6,7 C 12,9 km/h (3 Bft) 100,00 %
30.04.2016 00:08 7,5 C 67 % 1017,2 hPa 0,0 l/m 7,2 km/h (2 Bft) O-NO 66 0 min 0,000 mm 0,0 UV-I 0 W/m 1,8 C 6,9 C 9,7 km/h (2 Bft) 100,00 %
30.04.2016 00:09 7,4 C 67 % 1017,2 hPa 0,0 l/m 8,7 km/h (2 Bft) NO 55 0 min 0,000 mm 0,0 UV-I 0 W/m 1,7 C 5,6 C 11,3 km/h (2 Bft) 100,00 %
30.04.2016 00:10 7,4 C 67 % 1017,1 hPa 0,0 l/m 8,0 km/h (2 Bft) O-NO 62 0 min 0,000 mm 0,0 UV-I 0 W/m 1,7 C 6,1 C 9,7 km/h (2 Bft) 100,00 %
30.04.2016 00:11 7,4 C 67 % 1017,2 hPa 0,0 l/m 10,3 km/h (2 Bft) O-NO 67 0 min 0,000 mm 0,0 UV-I 0 W/m 1,7 C 4,5 C 16,1 km/h (3 Bft) 95,83 %
30.04.2016 00:12 7,3 C 67 % 1017,1 hPa 0,0 l/m 10,9 km/h (2 Bft) NO 46 0 min 0,000 mm 0,0 UV-I 0 W/m 1,6 C 4,0 C 17,7 km/h (3 Bft) 95,65 %
30.04.2016 00:13 7,3 C 67 % 1017,1 hPa 0,0 l/m 9,5 km/h (2 Bft) O 84 0 min 0,000 mm 0,0 UV-I 0 W/m 1,6 C 4,9 C 16,1 km/h (3 Bft) 100,00 %
30.04.2016 00:14 7,3 C 67 % 1017,2 hPa 0,0 l/m 10,3 km/h (2 Bft) NO 52 0 min 0,000 mm 0,0 UV-I 0 W/m 1,6 C 4,4 C 14,5 km/h (3 Bft) 96,15 %
30.04.2016 00:15 7,3 C 67 % 1017,2 hPa 0,0 l/m 10,4 km/h (2 Bft) O-NO 63 0 min 0,000 mm 0,0 UV-I 0 W/m 1,6 C 4,4 C 14,5 km/h (3 Bft) 100,00 %
30.04.2016 00:16 7,3 C 68 % 1017,1 hPa 0,0 l/m 9,4 km/h (2 Bft) NO 46 0 min 0,000 mm 0,0 UV-I 0 W/m 1,8 C 5,0 C 14,5 km/h (3 Bft) 100,00 %
30.04.2016 00:17 7,3 C 68 % 1017,2 hPa 0,0 l/m 8,4 km/h (2 Bft) O-NO 57 0 min 0,000 mm 0,0 UV-I 0 W/m 1,8 C 5,7 C 12,9 km/h (3 Bft) 100,00 %
30.04.2016 00:18 7,3 C 68 % 1017,1 hPa 0,0 l/m 7,7 km/h (2 Bft) O-NO 67 0 min 0,000 mm 0,0 UV-I 0 W/m 1,8 C 6,2 C 11,3 km/h (2 Bft) 100,00 %
30.04.2016 00:19 7,2 C 68 % 1017,1 hPa 0,0 l/m 9,2 km/h (2 Bft) O-NO 78 0 min 0,000 mm 0,0 UV-I 0 W/m 1,7 C 5,0 C 12,9 km/h (3 Bft) 100,00 %
30.04.2016 00:20 7,2 C 68 % 1017,1 hPa 0,0 l/m 8,8 km/h (2 Bft) O-NO 62 0 min 0,000 mm 0,0 UV-I 0 W/m 1,7 C 5,3 C 11,3 km/h (2 Bft) 100,00 %
30.04.2016 00:21 7,1 C 69 % 1017,1 hPa 0,0 l/m 9,9 km/h (2 Bft) O-NO 59 0 min 0,000 mm 0,0 UV-I 0 W/m 1,8 C 4,5 C 14,5 km/h (3 Bft) 100,00 %
30.04.2016 00:22 7,1 C 69 % 1017,1 hPa 0,0 l/m 9,2 km/h (2 Bft) O-NO 66 0 min 0,000 mm 0,0 UV-I 0 W/m 1,8 C 4,9 C 12,9 km/h (3 Bft) 100,00 %
30.04.2016 00:23 7,0 C 69 % 1017,1 hPa 0,0 l/m 8,1 km/h (2 Bft) NO 51 0 min 0,000 mm 0,0 UV-I 0 W/m 1,7 C 5,6 C 12,9 km/h (3 Bft) 100,00 %
30.04.2016 00:24 6,9 C 69 % 1017,1 hPa 0,0 l/m 9,4 km/h (2 Bft) NO 43 0 min 0,000 mm 0,0 UV-I 0 W/m 1,6 C 4,6 C 12,9 km/h (3 Bft) 100,00 %
30.04.2016 00:25 6,9 C 69 % 1017,1 hPa 0,0 l/m 10,2 km/h (2 Bft) O-NO 75 0 min 0,000 mm 0,0 UV-I 0 W/m 1,6 C 4,0 C 14,5 km/h (3 Bft) 100,00 %
30.04.2016 00:26 6,9 C 69 % 1017,1 hPa 0,0 l/m 7,4 km/h (2 Bft) O-NO 63 0 min 0,000 mm 0,0 UV-I 0 W/m 1,6 C 6,1 C 11,3 km/h (2 Bft) 95,83 %
30.04.2016 00:27 6,9 C 69 % 1017,2 hPa 0,0 l/m 8,9 km/h (2 Bft) O-NO 60 0 min 0,000 mm 0,0 UV-I 0 W/m 1,6 C 4,9 C 14,5 km/h (3 Bft) 100,00 %
30.04.2016 00:28 6,9 C 69 % 1017,2 hPa 0,0 l/m 9,5 km/h (2 Bft) O-NO 62 0 min 0,000 mm 0,0 UV-I 0 W/m 1,6 C 4,5 C 12,9 km/h (3 Bft) 100,00 %
30.04.2016 00:29 6,8 C 70 % 1017,1 hPa 0,0 l/m 7,6 km/h (2 Bft) O 84 0 min 0,000 mm 0,0 UV-I 0 W/m 1,7 C 5,8 C 11,3 km/h (2 Bft) 100,00 %
30.04.2016 00:30 6,8 C 70 % 1017,2 hPa 0,0 l/m 7,6 km/h (2 Bft) O-NO 76 0 min 0,000 mm 0,0 UV-I 0 W/m 1,7 C 5,8 C 11,3 km/h (2 Bft) 100,00 %
30.04.2016 00:31 6,8 C 70 % 1017,2 hPa 0,0 l/m 9,6 km/h (2 Bft) O 81 0 min 0,000 mm 0,0 UV-I 0 W/m 1,7 C 4,3 C 14,5 km/h (3 Bft) 100,00 %
30.04.2016 00:32 6,7 C 71 % 1017,2 hPa 0,0 l/m 8,5 km/h (2 Bft) O-NO 76 0 min 0,000 mm 0,0 UV-I 0 W/m 1,8 C 5,0 C 11,3 km/h (2 Bft) 100,00 %
30.04.2016 00:33 6,7 C 70 % 1017,2 hPa 0,0 l/m 5,9 km/h (2 Bft) O-NO 74 0 min 0,000 mm 0,0 UV-I 0 W/m 1,6 C 6,7 C 8,0 km/h (2 Bft) 96,15 %
30.04.2016 00:34 6,7 C 70 % 1017,2 hPa 0,0 l/m 6,9 km/h (2 Bft) O-NO 61 0 min 0,000 mm 0,0 UV-I 0 W/m 1,6 C 6,3 C 11,3 km/h (2 Bft) 100,00 %
30.04.2016 00:35 6,7 C 70 % 1017,2 hPa 0,0 l/m 8,0 km/h (2 Bft) O-NO 66 0 min 0,000 mm 0,0 UV-I 0 W/m 1,6 C 5,4 C 11,3 km/h (2 Bft) 95,65 %
30.04.2016 00:36 6,7 C 70 % 1017,2 hPa 0,0 l/m 8,2 km/h (2 Bft) O-NO 73 0 min 0,000 mm 0,0 UV-I 0 W/m 1,6 C 5,2 C 12,9 km/h (3 Bft) 95,83 %
30.04.2016 00:37 6,7 C 70 % 1017,2 hPa 0,0 l/m 7,3 km/h (2 Bft) O-NO 76 0 min 0,000 mm 0,0 UV-I 0 W/m 1,6 C 6,0 C 11,3 km/h (2 Bft) 95,65 %
30.04.2016 00:38 6,7 C 70 % 1017,2 hPa 0,0 l/m 8,9 km/h (2 Bft) O-NO 67 0 min 0,000 mm 0,0 UV-I 0 W/m 1,6 C 4,7 C 11,3 km/h (2 Bft) 100,00 %
30.04.2016 00:39 6,7 C 70 % 1017,2 hPa 0,0 l/m 7,0 km/h (2 Bft) O-NO 71 0 min 0,000 mm 0,0 UV-I 0 W/m 1,6 C 6,2 C 9,7 km/h (2 Bft) 95,65 %
30.04.2016 00:40 6,7 C 70 % 1017,2 hPa 0,0 l/m 6,8 km/h (2 Bft) O-NO 76 0 min 0,000 mm 0,0 UV-I 0 W/m 1,6 C 6,4 C 9,7 km/h (2 Bft) 100,00 %
30.04.2016 00:41 6,7 C 70 % 1017,2 hPa 0,0 l/m 5,8 km/h (2 Bft) NO 51 0 min 0,000 mm 0,0 UV-I 0 W/m 1,6 C 6,7 C 8,0 km/h (2 Bft) 100,00 %
30.04.2016 00:42 6,7 C 70 % 1017,2 hPa 0,0 l/m 6,2 km/h (2 Bft) O-NO 69 0 min 0,000 mm 0,0 UV-I 0 W/m 1,6 C 6,7 C 8,0 km/h (2 Bft) 100,00 %
30.04.2016 00:43 6,7 C 70 % 1017,2 hPa 0,0 l/m 7,8 km/h (2 Bft) O-NO 78 0 min 0,000 mm 0,0 UV-I 0 W/m 1,6 C 5,5 C 11,3 km/h (2 Bft) 100,00 %
30.04.2016 00:44 6,7 C 70 % 1017,2 hPa 0,0 l/m 8,0 km/h (2 Bft) O-NO 67 0 min 0,000 mm 0,0 UV-I 0 W/m 1,6 C 5,4 C 11,3 km/h (2 Bft) 100,00 %
30.04.2016 00:45 6,7 C 70 % 1017,2 hPa 0,0 l/m 7,0 km/h (2 Bft) O-NO 67 0 min 0,000 mm 0,0 UV-I 0 W/m 1,6 C 6,2 C 11,3 km/h (2 Bft) 95,65 %
30.04.2016 00:46 6,7 C 69 % 1017,2 hPa 0,0 l/m 6,9 km/h (2 Bft) O-NO 78 0 min 0,000 mm 0,0 UV-I 0 W/m 1,4 C 6,3 C 8,0 km/h (2 Bft) 100,00 %
30.04.2016 00:47 6,8 C 69 % 1017,2 hPa 0,0 l/m 7,6 km/h (2 Bft) NO 49 0 min 0,000 mm 0,0 UV-I 0 W/m 1,5 C 5,8 C 9,7 km/h (2 Bft) 100,00 %
30.04.2016 00:48 6,8 C 69 % 1017,2 hPa 0,0 l/m 7,6 km/h (2 Bft) O-NO 74 0 min 0,000 mm 0,0 UV-I 0 W/m 1,5 C 5,8 C 12,9 km/h (3 Bft) 100,00 %
30.04.2016 00:49 6,8 C 69 % 1017,2 hPa 0,0 l/m 6,0 km/h (2 Bft) O-NO 74 0 min 0,000 mm 0,0 UV-I 0 W/m 1,5 C 6,8 C 8,0 km/h (2 Bft) 100,00 %
30.04.2016 00:50 6,8 C 69 % 1017,2 hPa 0,0 l/m 9,1 km/h (2 Bft) O-NO 59 0 min 0,000 mm 0,0 UV-I 0 W/m 1,5 C 4,7 C 12,9 km/h (3 Bft) 96,15 %
30.04.2016 00:51 6,8 C 69 % 1017,2 hPa 0,0 l/m 6,8 km/h (2 Bft) O 81 0 min 0,000 mm 0,0 UV-I 0 W/m 1,5 C 6,5 C 9,7 km/h (2 Bft) 100,00 %
30.04.2016 00:52 6,7 C 70 % 1017,1 hPa 0,0 l/m 7,2 km/h (2 Bft) O-NO 73 0 min 0,000 mm 0,0 UV-I 0 W/m 1,6 C 6,0 C 9,7 km/h (2 Bft) 100,00 %
30.04.2016 00:53 6,7 C 70 % 1017,1 hPa 0,0 l/m 8,4 km/h (2 Bft) O 94 0 min 0,000 mm 0,0 UV-I 0 W/m 1,6 C 5,1 C 12,9 km/h (3 Bft) 100,00 %
30.04.2016 00:54 6,7 C 70 % 1017,2 hPa 0,0 l/m 5,8 km/h (2 Bft) O-NO 76 0 min 0,000 mm 0,0 UV-I 0 W/m 1,6 C 6,7 C 9,7 km/h (2 Bft) 100,00 %
30.04.2016 00:55 6,7 C 70 % 1017,2 hPa 0,0 l/m 8,1 km/h (2 Bft) O-NO 71 0 min 0,000 mm 0,0 UV-I 0 W/m 1,6 C 5,3 C 12,9 km/h (3 Bft) 100,00 %
30.04.2016 00:56 6,7 C 69 % 1017,2 hPa 0,0 l/m 8,4 km/h (2 Bft) O-NO 74 0 min 0,000 mm 0,0 UV-I 0 W/m 1,4 C 5,1 C 12,9 km/h (3 Bft) 100,00 %
30.04.2016 00:57 6,7 C 69 % 1017,2 hPa 0,0 l/m 7,7 km/h (2 Bft) O 79 0 min 0,000 mm 0,0 UV-I 0 W/m 1,4 C 5,6 C 9,7 km/h (2 Bft) 100,00 %
30.04.2016 00:58 6,7 C 69 % 1017,2 hPa 0,0 l/m 8,8 km/h (2 Bft) O-NO 61 0 min 0,000 mm 0,0 UV-I 0 W/m 1,4 C 4,8 C 14,5 km/h (3 Bft) 100,00 %
30.04.2016 00:59 6,7 C 70 % 1017,2 hPa 0,0 l/m 7,1 km/h (2 Bft) O-NO 78 0 min 0,000 mm 0,0 UV-I 0 W/m 1,6 C 6,1 C 11,3 km/h (2 Bft) 100,00 %
30.04.2016 01:00 6,7 C 69 % 1017,2 hPa 0,0 l/m 8,6 km/h (2 Bft) O-NO 62 0 min 0,025 mm 0,0 UV-I 0 W/m 1,4 C 4,9 C 12,9 km/h (3 Bft) 95,65 %
30.04.2016 01:02 6,7 C 70 % 1017,2 hPa 0,0 l/m 5,4 km/h (1 Bft) O-NO 74 0 min 0,000 mm 0,0 UV-I 0 W/m 1,6 C 6,7 C 8,0 km/h (2 Bft) 100,00 %
30.04.2016 01:03 6,7 C 70 % 1017,2 hPa 0,0 l/m 8,9 km/h (2 Bft) O 98 0 min 0,000 mm 0,0 UV-I 0 W/m 1,6 C 4,7 C 12,9 km/h (3 Bft) 100,00 %
30.04.2016 01:04 6,7 C 69 % 1017,2 hPa 0,0 l/m 7,3 km/h (2 Bft) O-NO 77 0 min 0,000 mm 0,0 UV-I 0 W/m 1,4 C 6,0 C 12,9 km/h (3 Bft) 95,65 %
30.04.2016 01:05 6,7 C 69 % 1017,1 hPa 0,0 l/m 7,4 km/h (2 Bft) O 79 0 min 0,000 mm 0,0 UV-I 0 W/m 1,4 C 5,9 C 9,7 km/h (2 Bft) 100,00 %
30.04.2016 01:06 6,7 C 69 % 1017,2 hPa 0,0 l/m 7,6 km/h (2 Bft) O-NO 68 0 min 0,000 mm 0,0 UV-I 0 W/m 1,4 C 5,7 C 9,7 km/h (2 Bft) 100,00 %
30.04.2016 01:07 6,7 C 69 % 1017,1 hPa 0,0 l/m 6,9 km/h (2 Bft) O-NO 73 0 min 0,000 mm 0,0 UV-I 0 W/m 1,4 C 6,3 C 11,3 km/h (2 Bft) 91,30 %
30.04.2016 01:08 6,7 C 70 % 1017,1 hPa 0,0 l/m 5,4 km/h (1 Bft) O-NO 71 0 min 0,000 mm 0,0 UV-I 0 W/m 1,6 C 6,7 C 6,4 km/h (2 Bft) 100,00 %
30.04.2016 01:09 6,7 C 70 % 1017,1 hPa 0,0 l/m 8,7 km/h (2 Bft) O 92 0 min 0,000 mm 0,0 UV-I 0 W/m 1,6 C 4,9 C 12,9 km/h (3 Bft) 100,00 %
30.04.2016 01:10 6,6 C 70 % 1017,1 hPa 0,0 l/m 5,7 km/h (1 Bft) O 82 0 min 0,000 mm 0,0 UV-I 0 W/m 1,5 C 6,6 C 8,0 km/h (2 Bft) 91,67 %
30.04.2016 01:11 6,6 C 70 % 1017,1 hPa 0,0 l/m 7,2 km/h (2 Bft) O-NO 69 0 min 0,000 mm 0,0 UV-I 0 W/m 1,5 C 5,9 C 9,7 km/h (2 Bft) 95,65 %
30.04.2016 01:12 6,6 C 70 % 1017,1 hPa 0,0 l/m 5,6 km/h (1 Bft) O 82 0 min 0,000 mm 0,0 UV-I 0 W/m 1,5 C 6,6 C 8,0 km/h (2 Bft) 100,00 %
30.04.2016 01:13 6,6 C 70 % 1017,1 hPa 0,0 l/m 7,4 km/h (2 Bft) O-NO 74 0 min 0,000 mm 0,0 UV-I 0 W/m 1,5 C 5,8 C 11,3 km/h (2 Bft) 100,00 %
30.04.2016 01:14 6,6 C 70 % 1017,1 hPa 0,0 l/m 7,8 km/h (2 Bft) O-NO 65 0 min 0,000 mm 0,0 UV-I 0 W/m 1,5 C 5,4 C 11,3 km/h (2 Bft) 95,83 %
30.04.2016 01:15 6,6 C 70 % 1017,1 hPa 0,0 l/m 7,1 km/h (2 Bft) O-NO 69 0 min 0,000 mm 0,0 UV-I 0 W/m 1,5 C 6,0 C 11,3 km/h (2 Bft) 100,00 %
30.04.2016 01:16 6,6 C 70 % 1017,2 hPa 0,0 l/m 5,8 km/h (2 Bft) O-NO 78 0 min 0,000 mm 0,0 UV-I 0 W/m 1,5 C 6,6 C 8,0 km/h (2 Bft) 100,00 %
30.04.2016 01:17 6,6 C 70 % 1017,1 hPa 0,0 l/m 7,6 km/h (2 Bft) O-NO 74 0 min 0,000 mm 0,0 UV-I 0 W/m 1,5 C 5,6 C 11,3 km/h (2 Bft) 100,00 %
30.04.2016 01:18 6,6 C 70 % 1017,1 hPa 0,0 l/m 6,1 km/h (2 Bft) O-NO 71 0 min 0,000 mm 0,0 UV-I 0 W/m 1,5 C 6,6 C 8,0 km/h (2 Bft) 100,00 %
30.04.2016 01:19 6,6 C 70 % 1017,1 hPa 0,0 l/m 6,1 km/h (2 Bft) O-NO 73 0 min 0,000 mm 0,0 UV-I 0 W/m 1,5 C 6,6 C 8,0 km/h (2 Bft) 100,00 %
30.04.2016 01:20 6,6 C 70 % 1017,1 hPa 0,0 l/m 6,0 km/h (2 Bft) O-NO 61 0 min 0,000 mm 0,0 UV-I 0 W/m 1,5 C 6,6 C 9,7 km/h (2 Bft) 100,00 %
30.04.2016 01:21 6,6 C 70 % 1017,1 hPa 0,0 l/m 5,3 km/h (1 Bft) O-NO 74 0 min 0,000 mm 0,0 UV-I 0 W/m 1,5 C 6,6 C 8,0 km/h (2 Bft) 100,00 %
30.04.2016 01:22 6,6 C 69 % 1017,1 hPa 0,0 l/m 6,0 km/h (2 Bft) NO 52 0 min 0,000 mm 0,0 UV-I 0 W/m 1,3 C 6,6 C 8,0 km/h (2 Bft) 100,00 %
30.04.2016 01:23 6,6 C 69 % 1017,1 hPa 0,0 l/m 5,2 km/h (1 Bft) O-NO 59 0 min 0,000 mm 0,0 UV-I 0 W/m 1,3 C 6,6 C 6,4 km/h (2 Bft) 100,00 %
30.04.2016 01:24 6,6 C 69 % 1017,1 hPa 0,0 l/m 4,5 km/h (1 Bft) O-NO 61 0 min 0,000 mm 0,0 UV-I 0 W/m 1,3 C 6,6 C 6,4 km/h (2 Bft) 100,00 %
30.04.2016 01:25 6,6 C 69 % 1017,1 hPa 0,0 l/m 5,6 km/h (1 Bft) NO 53 0 min 0,000 mm 0,0 UV-I 0 W/m 1,3 C 6,6 C 8,0 km/h (2 Bft) 100,00 %
30.04.2016 01:26 6,6 C 70 % 1017,2 hPa 0,0 l/m 5,4 km/h (1 Bft) O-NO 57 0 min 0,000 mm 0,0 UV-I 0 W/m 1,5 C 6,6 C 8,0 km/h (2 Bft) 100,00 %
30.04.2016 01:27 6,5 C 70 % 1017,2 hPa 0,0 l/m 5,3 km/h (1 Bft) O-NO 65 0 min 0,000 mm 0,0 UV-I 0 W/m 1,4 C 6,5 C 8,0 km/h (2 Bft) 100,00 %
30.04.2016 01:28 6,5 C 70 % 1017,1 hPa 0,0 l/m 4,8 km/h (1 Bft) NO 47 0 min 0,000 mm 0,0 UV-I 0 W/m 1,4 C 6,5 C 6,4 km/h (2 Bft) 100,00 %
30.04.2016 01:29 6,4 C 70 % 1017,2 hPa 0,0 l/m 4,8 km/h (1 Bft) O-NO 73 0 min 0,000 mm 0,0 UV-I 0 W/m 1,3 C 6,4 C 6,4 km/h (2 Bft) 95,65 %
30.04.2016 01:30 6,4 C 70 % 1017,1 hPa 0,0 l/m 4,5 km/h (1 Bft) O-NO 77 0 min 0,000 mm 0,0 UV-I 0 W/m 1,3 C 6,4 C 4,8 km/h (1 Bft) 100,00 %
30.04.2016 01:31 6,3 C 71 % 1017,1 hPa 0,0 l/m 4,7 km/h (1 Bft) O-NO 74 0 min 0,000 mm 0,0 UV-I 0 W/m 1,4 C 6,3 C 6,4 km/h (2 Bft) 100,00 %
30.04.2016 01:32 6,3 C 71 % 1017,1 hPa 0,0 l/m 4,8 km/h (1 Bft) O-NO 67 0 min 0,000 mm 0,0 UV-I 0 W/m 1,4 C 6,3 C 6,4 km/h (2 Bft) 100,00 %
30.04.2016 01:33 6,2 C 71 % 1017,1 hPa 0,0 l/m 4,6 km/h (1 Bft) O-NO 68 0 min 0,000 mm 0,0 UV-I 0 W/m 1,3 C 6,2 C 6,4 km/h (2 Bft) 100,00 %
30.04.2016 01:34 6,2 C 71 % 1017,1 hPa 0,0 l/m 4,8 km/h (1 Bft) O-NO 69 0 min 0,000 mm 0,0 UV-I 0 W/m 1,3 C 6,2 C 6,4 km/h (2 Bft) 95,65 %
30.04.2016 01:35 6,2 C 71 % 1017,1 hPa 0,0 l/m 4,4 km/h (1 Bft) O 80 0 min 0,000 mm 0,0 UV-I 0 W/m 1,3 C 6,2 C 6,4 km/h (2 Bft) 100,00 %
30.04.2016 01:36 6,2 C 71 % 1017,1 hPa 0,0 l/m 4,5 km/h (1 Bft) O-NO 74 0 min 0,000 mm 0,0 UV-I 0 W/m 1,3 C 6,2 C 6,4 km/h (2 Bft) 95,65 %
30.04.2016 01:37 6,2 C 71 % 1017,1 hPa 0,0 l/m 4,3 km/h (1 Bft) O-NO 65 0 min 0,000 mm 0,0 UV-I 0 W/m 1,3 C 6,2 C 6,4 km/h (2 Bft) 100,00 %
30.04.2016 01:38 6,2 C 72 % 1017,1 hPa 0,0 l/m 4,0 km/h (1 Bft) O-NO 67 0 min 0,000 mm 0,0 UV-I 0 W/m 1,5 C 6,2 C 4,8 km/h (1 Bft) 95,65 %
30.04.2016 01:39 6,2 C 72 % 1017,1 hPa 0,0 l/m 3,2 km/h (1 Bft) NO 55 0 min 0,000 mm 0,0 UV-I 0 W/m 1,5 C 6,2 C 4,8 km/h (1 Bft) 100,00 %
30.04.2016 01:40 6,1 C 72 % 1017,1 hPa 0,0 l/m 4,0 km/h (1 Bft) O-NO 60 0 min 0,000 mm 0,0 UV-I 0 W/m 1,4 C 6,1 C 6,4 km/h (2 Bft) 95,65 %
30.04.2016 01:41 6,1 C 72 % 1017,1 hPa 0,0 l/m 4,0 km/h (1 Bft) O-NO 60 0 min 0,000 mm 0,0 UV-I 0 W/m 1,4 C 6,1 C 6,4 km/h (2 Bft) 100,00 %
30.04.2016 01:42 6,1 C 72 % 1017,1 hPa 0,0 l/m 2,3 km/h (1 Bft) O-NO 60 0 min 0,000 mm 0,0 UV-I 0 W/m 1,4 C 6,1 C 4,8 km/h (1 Bft) 95,65 %
30.04.2016 01:43 6,0 C 72 % 1017,1 hPa 0,0 l/m 2,3 km/h (1 Bft) O-NO 60 0 min 0,000 mm 0,0 UV-I 0 W/m 1,3 C 6,0 C 3,2 km/h (1 Bft) 95,83 %
30.04.2016 01:44 5,9 C 72 % 1017,1 hPa 0,0 l/m 3,6 km/h (1 Bft) O-NO 60 0 min 0,000 mm 0,0 UV-I 0 W/m 1,2 C 5,9 C 6,4 km/h (2 Bft) 95,65 %
30.04.2016 01:45 5,9 C 72 % 1017,1 hPa 0,0 l/m 4,0 km/h (1 Bft) O-NO 60 0 min 0,000 mm 0,0 UV-I 0 W/m 1,2 C 5,9 C 6,4 km/h (2 Bft) 95,83 %
30.04.2016 01:46 5,9 C 73 % 1017,1 hPa 0,0 l/m 2,6 km/h (1 Bft) O-NO 60 0 min 0,000 mm 0,0 UV-I 0 W/m 1,4 C 5,9 C 3,2 km/h (1 Bft) 95,65 %
30.04.2016 01:47 5,9 C 73 % 1017,1 hPa 0,0 l/m 2,7 km/h (1 Bft) O-NO 60 0 min 0,000 mm 0,0 UV-I 0 W/m 1,4 C 5,9 C 3,2 km/h (1 Bft) 95,83 %
30.04.2016 01:48 5,9 C 73 % 1017,0 hPa 0,0 l/m 1,6 km/h (1 Bft) O-NO 60 0 min 0,000 mm 0,0 UV-I 0 W/m 1,4 C 5,9 C 4,8 km/h (1 Bft) 95,65 %
30.04.2016 01:49 5,8 C 73 % 1017,0 hPa 0,0 l/m 2,3 km/h (1 Bft) O-NO 60 0 min 0,000 mm 0,0 UV-I 0 W/m 1,3 C 5,8 C 3,2 km/h (1 Bft) 87,50 %
30.04.2016 01:50 5,8 C 73 % 1017,0 hPa 0,0 l/m 0,9 km/h (0 Bft) O-NO 60 0 min 0,000 mm 0,0 UV-I 0 W/m 1,3 C 5,8 C 1,6 km/h (1 Bft) 100,00 %
30.04.2016 01:51 5,8 C 73 % 1017,1 hPa 0,0 l/m 1,1 km/h (1 Bft) O-NO 60 0 min 0,000 mm 0,0 UV-I 0 W/m 1,3 C 5,8 C 3,2 km/h (1 Bft) 95,65 %
30.04.2016 01:52 5,8 C 73 % 1017,1 hPa 0,0 l/m 1,6 km/h (1 Bft) O-NO 60 0 min 0,000 mm 0,0 UV-I 0 W/m 1,3 C 5,8 C 1,6 km/h (1 Bft) 95,83 %
30.04.2016 01:53 5,7 C 73 % 1017,1 hPa 0,0 l/m 1,7 km/h (1 Bft) O-NO 60 0 min 0,000 mm 0,0 UV-I 0 W/m 1,2 C 5,7 C 3,2 km/h (1 Bft) 100,00 %
30.04.2016 01:54 5,7 C 73 % 1017,0 hPa 0,0 l/m 1,5 km/h (1 Bft) O-NO 60 0 min 0,000 mm 0,0 UV-I 0 W/m 1,2 C 5,7 C 3,2 km/h (1 Bft) 95,83 %
30.04.2016 01:55 5,7 C 73 % 1017,0 hPa 0,0 l/m 1,7 km/h (1 Bft) O-NO 60 0 min 0,000 mm 0,0 UV-I 0 W/m 1,2 C 5,7 C 3,2 km/h (1 Bft) 100,00 %
30.04.2016 01:56 5,7 C 73 % 1017,0 hPa 0,0 l/m 2,0 km/h (1 Bft) O-NO 60 0 min 0,000 mm 0,0 UV-I 0 W/m 1,2 C 5,7 C 3,2 km/h (1 Bft) 95,83 %
30.04.2016 01:57 5,6 C 74 % 1017,0 hPa 0,0 l/m 2,5 km/h (1 Bft) O-NO 60 0 min 0,000 mm 0,0 UV-I 0 W/m 1,3 C 5,6 C 3,2 km/h (1 Bft) 95,65 %
30.04.2016 01:58 5,6 C 74 % 1017,0 hPa 0,0 l/m 2,1 km/h (1 Bft) O-NO 60 0 min 0,000 mm 0,0 UV-I 0 W/m 1,3 C 5,6 C 3,2 km/h (1 Bft) 91,67 %
30.04.2016 01:59 5,6 C 74 % 1017,0 hPa 0,0 l/m 1,3 km/h (1 Bft) O-NO 59 0 min 0,000 mm 0,0 UV-I 0 W/m 1,3 C 5,6 C 3,2 km/h (1 Bft) 95,65 %
30.04.2016 02:00 5,6 C 74 % 1017,0 hPa 0,0 l/m 2,7 km/h (1 Bft) O-NO 57 0 min 0,026 mm 0,0 UV-I 0 W/m 1,3 C 5,6 C 4,8 km/h (1 Bft) 100,00 %
30.04.2016 02:02 5,5 C 74 % 1017,0 hPa 0,0 l/m 1,9 km/h (1 Bft) O-NO 57 0 min 0,000 mm 0,0 UV-I 0 W/m 1,2 C 5,5 C 3,2 km/h (1 Bft) 95,74 %
30.04.2016 02:03 5,4 C 74 % 1017,0 hPa 0,0 l/m 2,0 km/h (1 Bft) O-NO 57 0 min 0,000 mm 0,0 UV-I 0 W/m 1,1 C 5,4 C 3,2 km/h (1 Bft) 96,15 %
30.04.2016 02:04 5,4 C 75 % 1017,0 hPa 0,0 l/m 2,7 km/h (1 Bft) O-NO 57 0 min 0,000 mm 0,0 UV-I 0 W/m 1,3 C 5,4 C 3,2 km/h (1 Bft) 100,00 %
30.04.2016 02:05 5,4 C 75 % 1017,0 hPa 0,0 l/m 2,7 km/h (1 Bft) O-NO 57 0 min 0,000 mm 0,0 UV-I 0 W/m 1,3 C 5,4 C 3,2 km/h (1 Bft) 95,65 %
30.04.2016 02:06 5,4 C 75 % 1017,0 hPa 0,0 l/m 3,6 km/h (1 Bft) O-NO 65 0 min 0,000 mm 0,0 UV-I 0 W/m 1,3 C 5,4 C 4,8 km/h (1 Bft) 95,83 %
30.04.2016 02:07 5,3 C 75 % 1017,0 hPa 0,0 l/m 3,3 km/h (1 Bft) O-NO 65 0 min 0,000 mm 0,0 UV-I 0 W/m 1,2 C 5,3 C 4,8 km/h (1 Bft) 95,65 %
30.04.2016 02:08 5,3 C 75 % 1017,0 hPa 0,0 l/m 2,6 km/h (1 Bft) O-NO 65 0 min 0,000 mm 0,0 UV-I 0 W/m 1,2 C 5,3 C 3,2 km/h (1 Bft) 95,83 %
30.04.2016 02:09 5,3 C 75 % 1017,0 hPa 0,0 l/m 1,9 km/h (1 Bft) O-NO 65 0 min 0,000 mm 0,0 UV-I 0 W/m 1,2 C 5,3 C 3,2 km/h (1 Bft) 100,00 %
30.04.2016 02:10 5,3 C 75 % 1017,0 hPa 0,0 l/m 2,5 km/h (1 Bft) O-NO 65 0 min 0,000 mm 0,0 UV-I 0 W/m 1,2 C 5,3 C 4,8 km/h (1 Bft) 95,83 %
30.04.2016 02:11 5,3 C 75 % 1017,0 hPa 0,0 l/m 2,5 km/h (1 Bft) O-NO 65 0 min 0,000 mm 0,0 UV-I 0 W/m 1,2 C 5,3 C 4,8 km/h (1 Bft) 100,00 %
30.04.2016 02:12 5,3 C 75 % 1017,0 hPa 0,0 l/m 2,5 km/h (1 Bft) O-NO 65 0 min 0,000 mm 0,0 UV-I 0 W/m 1,2 C 5,3 C 3,2 km/h (1 Bft) 100,00 %
30.04.2016 02:13 5,3 C 75 % 1017,0 hPa 0,0 l/m 3,0 km/h (1 Bft) O-NO 65 0 min 0,000 mm 0,0 UV-I 0 W/m 1,2 C 5,3 C 4,8 km/h (1 Bft) 100,00 %
30.04.2016 02:14 5,4 C 74 % 1017,0 hPa 0,0 l/m 4,2 km/h (1 Bft) O-NO 68 0 min 0,000 mm 0,0 UV-I 0 W/m 1,1 C 5,4 C 4,8 km/h (1 Bft) 95,65 %
30.04.2016 02:15 5,4 C 74 % 1017,0 hPa 0,0 l/m 4,0 km/h (1 Bft) O-NO 68 0 min 0,000 mm 0,0 UV-I 0 W/m 1,1 C 5,4 C 4,8 km/h (1 Bft) 95,83 %
30.04.2016 02:16 5,4 C 74 % 1017,0 hPa 0,0 l/m 3,8 km/h (1 Bft) O-NO 76 0 min 0,000 mm 0,0 UV-I 0 W/m 1,1 C 5,4 C 6,4 km/h (2 Bft) 95,65 %
30.04.2016 02:17 5,5 C 74 % 1017,0 hPa 0,0 l/m 2,6 km/h (1 Bft) O-NO 72 0 min 0,000 mm 0,0 UV-I 0 W/m 1,2 C 5,5 C 3,2 km/h (1 Bft) 100,00 %
30.04.2016 02:18 5,5 C 74 % 1017,0 hPa 0,0 l/m 1,7 km/h (1 Bft) O-NO 72 0 min 0,000 mm 0,0 UV-I 0 W/m 1,2 C 5,5 C 3,2 km/h (1 Bft) 95,65 %
30.04.2016 02:19 5,6 C 74 % 1017,0 hPa 0,0 l/m 1,9 km/h (1 Bft) O-NO 72 0 min 0,000 mm 0,0 UV-I 0 W/m 1,3 C 5,6 C 3,2 km/h (1 Bft) 95,83 %
30.04.2016 02:20 5,6 C 74 % 1017,0 hPa 0,0 l/m 2,2 km/h (1 Bft) O-NO 72 0 min 0,000 mm 0,0 UV-I 0 W/m 1,3 C 5,6 C 3,2 km/h (1 Bft) 100,00 %
30.04.2016 02:21 5,5 C 74 % 1017,0 hPa 0,0 l/m 1,7 km/h (1 Bft) O-NO 72 0 min 0,000 mm 0,0 UV-I 0 W/m 1,2 C 5,5 C 3,2 km/h (1 Bft) 100,00 %
30.04.2016 02:22 5,4 C 74 % 1017,0 hPa 0,0 l/m 2,5 km/h (1 Bft) O-NO 72 0 min 0,000 mm 0,0 UV-I 0 W/m 1,1 C 5,4 C 3,2 km/h (1 Bft) 91,30 %
30.04.2016 02:23 5,4 C 74 % 1017,0 hPa 0,0 l/m 3,0 km/h (1 Bft) O-NO 71 0 min 0,000 mm 0,0 UV-I 0 W/m 1,1 C 5,4 C 4,8 km/h (1 Bft) 100,00 %
30.04.2016 02:24 5,3 C 74 % 1017,0 hPa 0,0 l/m 3,6 km/h (1 Bft) O-NO 60 0 min 0,000 mm 0,0 UV-I 0 W/m 1,0 C 5,3 C 4,8 km/h (1 Bft) 100,00 %
30.04.2016 02:25 5,3 C 74 % 1017,0 hPa 0,0 l/m 3,9 km/h (1 Bft) O-NO 59 0 min 0,000 mm 0,0 UV-I 0 W/m 1,0 C 5,3 C 4,8 km/h (1 Bft) 95,83 %
30.04.2016 02:26 5,3 C 75 % 1017,0 hPa 0,0 l/m 3,8 km/h (1 Bft) O-NO 59 0 min 0,000 mm 0,0 UV-I 0 W/m 1,2 C 5,3 C 4,8 km/h (1 Bft) 100,00 %
30.04.2016 02:27 5,2 C 75 % 1017,0 hPa 0,0 l/m 3,2 km/h (1 Bft) O-NO 59 0 min 0,000 mm 0,0 UV-I 0 W/m 1,1 C 5,2 C 4,8 km/h (1 Bft) 100,00 %
30.04.2016 02:28 5,2 C 75 % 1017,0 hPa 0,0 l/m 3,2 km/h (1 Bft) O-NO 59 0 min 0,000 mm 0,0 UV-I 0 W/m 1,1 C 5,2 C 4,8 km/h (1 Bft) 95,83 %
30.04.2016 02:29 5,2 C 75 % 1016,9 hPa 0,0 l/m 3,1 km/h (1 Bft) O-NO 59 0 min 0,000 mm 0,0 UV-I 0 W/m 1,1 C 5,2 C 4,8 km/h (1 Bft) 100,00 %
30.04.2016 02:30 5,2 C 75 % 1016,9 hPa 0,0 l/m 3,3 km/h (1 Bft) O-NO 59 0 min 0,000 mm 0,0 UV-I 0 W/m 1,1 C 5,2 C 4,8 km/h (1 Bft) 100,00 %
30.04.2016 02:32 5,2 C 75 % 1016,9 hPa 0,0 l/m 2,9 km/h (1 Bft) O-NO 59 0 min 0,000 mm 0,0 UV-I 0 W/m 1,1 C 5,2 C 4,8 km/h (1 Bft) 100,00 %
30.04.2016 02:33 5,2 C 75 % 1016,9 hPa 0,0 l/m 3,1 km/h (1 Bft) O-NO 59 0 min 0,000 mm 0,0 UV-I 0 W/m 1,1 C 5,2 C 4,8 km/h (1 Bft) 100,00 %
30.04.2016 02:34 5,3 C 75 % 1017,0 hPa 0,0 l/m 3,9 km/h (1 Bft) O-NO 59 0 min 0,000 mm 0,0 UV-I 0 W/m 1,2 C 5,3 C 4,8 km/h (1 Bft) 100,00 %
30.04.2016 02:35 5,2 C 75 % 1017,0 hPa 0,0 l/m 3,0 km/h (1 Bft) O-NO 59 0 min 0,000 mm 0,0 UV-I 0 W/m 1,1 C 5,2 C 4,8 km/h (1 Bft) 100,00 %
30.04.2016 02:36 5,2 C 75 % 1016,9 hPa 0,0 l/m 3,8 km/h (1 Bft) O-NO 57 0 min 0,000 mm 0,0 UV-I 0 W/m 1,1 C 5,2 C 4,8 km/h (1 Bft) 100,00 %
30.04.2016 02:37 5,2 C 75 % 1016,9 hPa 0,0 l/m 3,4 km/h (1 Bft) O-NO 57 0 min 0,000 mm 0,0 UV-I 0 W/m 1,1 C 5,2 C 4,8 km/h (1 Bft) 91,30 %
30.04.2016 02:38 5,2 C 75 % 1016,9 hPa 0,0 l/m 3,0 km/h (1 Bft) O-NO 57 0 min 0,000 mm 0,0 UV-I 0 W/m 1,1 C 5,2 C 4,8 km/h (1 Bft) 100,00 %
30.04.2016 02:39 5,2 C 75 % 1016,9 hPa 0,0 l/m 3,2 km/h (1 Bft) O-NO 57 0 min 0,000 mm 0,0 UV-I 0 W/m 1,1 C 5,2 C 4,8 km/h (1 Bft) 95,65 %
30.04.2016 02:40 5,2 C 75 % 1016,9 hPa 0,0 l/m 3,0 km/h (1 Bft) O-NO 57 0 min 0,000 mm 0,0 UV-I 0 W/m 1,1 C 5,2 C 3,2 km/h (1 Bft) 100,00 %
30.04.2016 02:41 5,2 C 75 % 1016,9 hPa 0,0 l/m 2,7 km/h (1 Bft) O-NO 57 0 min 0,000 mm 0,0 UV-I 0 W/m 1,1 C 5,2 C 3,2 km/h (1 Bft) 95,65 %
30.04.2016 02:42 5,1 C 75 % 1016,9 hPa 0,0 l/m 3,2 km/h (1 Bft) O-NO 57 0 min 0,000 mm 0,0 UV-I 0 W/m 1,0 C 5,1 C 4,8 km/h (1 Bft) 100,00 %
30.04.2016 02:43 5,1 C 75 % 1016,9 hPa 0,0 l/m 3,8 km/h (1 Bft) NO 56 0 min 0,000 mm 0,0 UV-I 0 W/m 1,0 C 5,1 C 4,8 km/h (1 Bft) 91,30 %
30.04.2016 02:44 5,1 C 75 % 1016,9 hPa 0,0 l/m 3,6 km/h (1 Bft) NO 55 0 min 0,000 mm 0,0 UV-I 0 W/m 1,0 C 5,1 C 4,8 km/h (1 Bft) 100,00 %
30.04.2016 02:45 5,1 C 75 % 1016,9 hPa 0,0 l/m 2,7 km/h (1 Bft) NO 55 0 min 0,000 mm 0,0 UV-I 0 W/m 1,0 C 5,1 C 3,2 km/h (1 Bft) 95,65 %
30.04.2016 02:46 5,1 C 75 % 1016,9 hPa 0,0 l/m 3,2 km/h (1 Bft) NO 55 0 min 0,000 mm 0,0 UV-I 0 W/m 1,0 C 5,1 C 4,8 km/h (1 Bft) 100,00 %
30.04.2016 02:47 5,1 C 75 % 1016,9 hPa 0,0 l/m 3,3 km/h (1 Bft) NO 55 0 min 0,000 mm 0,0 UV-I 0 W/m 1,0 C 5,1 C 4,8 km/h (1 Bft) 95,65 %
30.04.2016 02:48 5,1 C 75 % 1016,9 hPa 0,0 l/m 2,7 km/h (1 Bft) NO 55 0 min 0,000 mm 0,0 UV-I 0 W/m 1,0 C 5,1 C 3,2 km/h (1 Bft) 100,00 %
30.04.2016 02:49 5,1 C 75 % 1016,9 hPa 0,0 l/m 2,8 km/h (1 Bft) NO 55 0 min 0,000 mm 0,0 UV-I 0 W/m 1,0 C 5,1 C 4,8 km/h (1 Bft) 100,00 %
30.04.2016 02:50 5,1 C 75 % 1016,9 hPa 0,0 l/m 2,1 km/h (1 Bft) NO 55 0 min 0,000 mm 0,0 UV-I 0 W/m 1,0 C 5,1 C 3,2 km/h (1 Bft) 91,30 %
30.04.2016 02:51 5,1 C 76 % 1016,9 hPa 0,0 l/m 0,8 km/h (0 Bft) NO 55 0 min 0,000 mm 0,0 UV-I 0 W/m 1,2 C 5,1 C 1,6 km/h (1 Bft) 100,00 %
30.04.2016 02:52 5,1 C 76 % 1016,9 hPa 0,0 l/m 0,9 km/h (0 Bft) NO 55 0 min 0,000 mm 0,0 UV-I 0 W/m 1,2 C 5,1 C 1,6 km/h (1 Bft) 100,00 %
30.04.2016 02:53 5,1 C 76 % 1016,9 hPa 0,0 l/m 2,2 km/h (1 Bft) NO 55 0 min 0,000 mm 0,0 UV-I 0 W/m 1,2 C 5,1 C 4,8 km/h (1 Bft) 100,00 %
30.04.2016 02:54 5,1 C 76 % 1016,9 hPa 0,0 l/m 2,0 km/h (1 Bft) NO 55 0 min 0,000 mm 0,0 UV-I 0 W/m 1,2 C 5,1 C 3,2 km/h (1 Bft) 100,00 %
30.04.2016 02:55 5,0 C 76 % 1017,0 hPa 0,0 l/m 1,7 km/h (1 Bft) NO 55 0 min 0,000 mm 0,0 UV-I 0 W/m 1,1 C 5,0 C 3,2 km/h (1 Bft) 100,00 %
30.04.2016 02:56 5,0 C 76 % 1017,0 hPa 0,0 l/m 3,2 km/h (1 Bft) NO 55 0 min 0,000 mm 0,0 UV-I 0 W/m 1,1 C 5,0 C 4,8 km/h (1 Bft) 100,00 %
30.04.2016 02:57 4,9 C 76 % 1017,0 hPa 0,0 l/m 2,4 km/h (1 Bft) NO 55 0 min 0,000 mm 0,0 UV-I 0 W/m 1,0 C 4,9 C 4,8 km/h (1 Bft) 100,00 %
30.04.2016 02:58 5,0 C 76 % 1017,0 hPa 0,0 l/m 2,1 km/h (1 Bft) NO 55 0 min 0,000 mm 0,0 UV-I 0 W/m 1,1 C 5,0 C 3,2 km/h (1 Bft) 95,65 %
30.04.2016 02:59 5,0 C 76 % 1017,0 hPa 0,0 l/m 1,7 km/h (1 Bft) NO 55 0 min 0,000 mm 0,0 UV-I 0 W/m 1,1 C 5,0 C 3,2 km/h (1 Bft) 100,00 %
30.04.2016 03:00 5,0 C 76 % 1016,9 hPa 0,0 l/m 2,6 km/h (1 Bft) NO 55 0 min 0,000 mm 0,0 UV-I 0 W/m 1,1 C 5,0 C 3,2 km/h (1 Bft) 95,65 %
30.04.2016 03:02 5,0 C 75 % 1016,9 hPa 0,0 l/m 2,6 km/h (1 Bft) NO 55 0 min 0,000 mm 0,0 UV-I 0 W/m 0,9 C 5,0 C 4,8 km/h (1 Bft) 97,87 %
30.04.2016 03:03 5,1 C 75 % 1017,0 hPa 0,0 l/m 2,5 km/h (1 Bft) NO 55 0 min 0,000 mm 0,0 UV-I 0 W/m 1,0 C 5,1 C 3,2 km/h (1 Bft) 100,00 %
30.04.2016 03:04 5,1 C 75 % 1016,9 hPa 0,0 l/m 2,1 km/h (1 Bft) NO 55 0 min 0,000 mm 0,0 UV-I 0 W/m 1,0 C 5,1 C 3,2 km/h (1 Bft) 95,65 %
30.04.2016 03:05 5,0 C 75 % 1016,9 hPa 0,0 l/m 2,3 km/h (1 Bft) NO 55 0 min 0,000 mm 0,0 UV-I 0 W/m 0,9 C 5,0 C 3,2 km/h (1 Bft) 100,00 %
30.04.2016 03:06 5,0 C 75 % 1016,9 hPa 0,0 l/m 2,2 km/h (1 Bft) NO 55 0 min 0,000 mm 0,0 UV-I 0 W/m 0,9 C 5,0 C 3,2 km/h (1 Bft) 100,00 %
30.04.2016 03:07 5,0 C 75 % 1017,0 hPa 0,0 l/m 2,5 km/h (1 Bft) NO 55 0 min 0,000 mm 0,0 UV-I 0 W/m 0,9 C 5,0 C 3,2 km/h (1 Bft) 95,65 %
30.04.2016 03:08 5,0 C 76 % 1017,0 hPa 0,0 l/m 1,5 km/h (1 Bft) NO 55 0 min 0,000 mm 0,0 UV-I 0 W/m 1,1 C 5,0 C 3,2 km/h (1 Bft) 100,00 %
30.04.2016 03:09 4,9 C 76 % 1016,9 hPa 0,0 l/m 3,0 km/h (1 Bft) NO 55 0 min 0,000 mm 0,0 UV-I 0 W/m 1,0 C 4,9 C 3,2 km/h (1 Bft) 95,65 %
30.04.2016 03:10 4,9 C 76 % 1017,0 hPa 0,0 l/m 2,8 km/h (1 Bft) NO 55 0 min 0,000 mm 0,0 UV-I 0 W/m 1,0 C 4,9 C 4,8 km/h (1 Bft) 100,00 %
30.04.2016 03:11 4,8 C 76 % 1016,9 hPa 0,0 l/m 2,8 km/h (1 Bft) NO 55 0 min 0,000 mm 0,0 UV-I 0 W/m 0,9 C 4,8 C 3,2 km/h (1 Bft) 100,00 %
30.04.2016 03:12 4,8 C 76 % 1017,0 hPa 0,0 l/m 3,1 km/h (1 Bft) NO 55 0 min 0,000 mm 0,0 UV-I 0 W/m 0,9 C 4,8 C 4,8 km/h (1 Bft) 100,00 %
30.04.2016 03:13 4,8 C 76 % 1017,0 hPa 0,0 l/m 3,0 km/h (1 Bft) NO 56 0 min 0,000 mm 0,0 UV-I 0 W/m 0,9 C 4,8 C 4,8 km/h (1 Bft) 100,00 %
30.04.2016 03:14 4,7 C 77 % 1017,0 hPa 0,0 l/m 3,6 km/h (1 Bft) O-NO 60 0 min 0,000 mm 0,0 UV-I 0 W/m 1,0 C 4,7 C 6,4 km/h (2 Bft) 100,00 %
30.04.2016 03:15 4,7 C 77 % 1017,0 hPa 0,0 l/m 4,3 km/h (1 Bft) O-NO 60 0 min 0,000 mm 0,0 UV-I 0 W/m 1,0 C 4,7 C 4,8 km/h (1 Bft) 92,31 %
30.04.2016 03:16 4,7 C 77 % 1017,0 hPa 0,0 l/m 3,6 km/h (1 Bft) O-NO 60 0 min 0,000 mm 0,0 UV-I 0 W/m 1,0 C 4,7 C 4,8 km/h (1 Bft) 100,00 %
30.04.2016 03:17 4,7 C 77 % 1017,0 hPa 0,0 l/m 3,5 km/h (1 Bft) O-NO 60 0 min 0,000 mm 0,0 UV-I 0 W/m 1,0 C 4,7 C 4,8 km/h (1 Bft) 100,00 %
30.04.2016 03:18 4,7 C 77 % 1017,0 hPa 0,0 l/m 3,2 km/h (1 Bft) O-NO 60 0 min 0,000 mm 0,0 UV-I 0 W/m 1,0 C 4,7 C 4,8 km/h (1 Bft) 95,83 %
30.04.2016 03:19 4,7 C 77 % 1017,0 hPa 0,0 l/m 3,6 km/h (1 Bft) O-NO 67 0 min 0,000 mm 0,0 UV-I 0 W/m 1,0 C 4,7 C 4,8 km/h (1 Bft) 100,00 %
30.04.2016 03:20 4,7 C 77 % 1017,0 hPa 0,0 l/m 3,0 km/h (1 Bft) O-NO 67 0 min 0,000 mm 0,0 UV-I 0 W/m 1,0 C 4,7 C 4,8 km/h (1 Bft) 95,83 %
30.04.2016 03:21 4,7 C 77 % 1017,0 hPa 0,0 l/m 2,9 km/h (1 Bft) O-NO 67 0 min 0,000 mm 0,0 UV-I 0 W/m 1,0 C 4,7 C 4,8 km/h (1 Bft) 100,00 %
30.04.2016 03:22 4,7 C 77 % 1017,0 hPa 0,0 l/m 2,9 km/h (1 Bft) O-NO 67 0 min 0,000 mm 0,0 UV-I 0 W/m 1,0 C 4,7 C 4,8 km/h (1 Bft) 100,00 %
30.04.2016 03:23 4,7 C 77 % 1017,0 hPa 0,0 l/m 2,5 km/h (1 Bft) O-NO 67 0 min 0,000 mm 0,0 UV-I 0 W/m 1,0 C 4,7 C 4,8 km/h (1 Bft) 100,00 %
30.04.2016 03:24 4,7 C 77 % 1017,0 hPa 0,0 l/m 1,7 km/h (1 Bft) O-NO 67 0 min 0,000 mm 0,0 UV-I 0 W/m 1,0 C 4,7 C 3,2 km/h (1 Bft) 95,83 %
30.04.2016 03:25 4,7 C 77 % 1017,0 hPa 0,0 l/m 2,0 km/h (1 Bft) O-NO 67 0 min 0,000 mm 0,0 UV-I 0 W/m 1,0 C 4,7 C 3,2 km/h (1 Bft) 100,00 %
30.04.2016 03:26 4,7 C 77 % 1017,0 hPa 0,0 l/m 3,2 km/h (1 Bft) O-NO 67 0 min 0,000 mm 0,0 UV-I 0 W/m 1,0 C 4,7 C 4,8 km/h (1 Bft) 100,00 %
30.04.2016 03:27 4,7 C 76 % 1017,0 hPa 0,0 l/m 2,5 km/h (1 Bft) O-NO 67 0 min 0,000 mm 0,0 UV-I 0 W/m 0,8 C 4,7 C 4,8 km/h (1 Bft) 100,00 %
30.04.2016 03:28 4,8 C 76 % 1017,0 hPa 0,0 l/m 3,1 km/h (1 Bft) O-NO 67 0 min 0,000 mm 0,0 UV-I 0 W/m 0,9 C 4,8 C 4,8 km/h (1 Bft) 100,00 %
30.04.2016 03:29 4,8 C 76 % 1017,1 hPa 0,0 l/m 2,0 km/h (1 Bft) O-NO 67 0 min 0,000 mm 0,0 UV-I 0 W/m 0,9 C 4,8 C 3,2 km/h (1 Bft) 100,00 %
30.04.2016 03:30 4,8 C 76 % 1017,1 hPa 0,0 l/m 2,7 km/h (1 Bft) O-NO 67 0 min 0,000 mm 0,0 UV-I 0 W/m 0,9 C 4,8 C 4,8 km/h (1 Bft) 100,00 %
30.04.2016 03:31 4,8 C 76 % 1017,1 hPa 0,0 l/m 3,4 km/h (1 Bft) O-NO 67 0 min 0,000 mm 0,0 UV-I 0 W/m 0,9 C 4,8 C 4,8 km/h (1 Bft) 100,00 %
30.04.2016 03:32 4,8 C 76 % 1017,1 hPa 0,0 l/m 2,2 km/h (1 Bft) O-NO 67 0 min 0,000 mm 0,0 UV-I 0 W/m 0,9 C 4,8 C 3,2 km/h (1 Bft) 100,00 %
30.04.2016 03:33 4,8 C 76 % 1017,1 hPa 0,0 l/m 3,1 km/h (1 Bft) O-NO 67 0 min 0,000 mm 0,0 UV-I 0 W/m 0,9 C 4,8 C 4,8 km/h (1 Bft) 100,00 %
30.04.2016 03:34 4,8 C 76 % 1017,1 hPa 0,0 l/m 3,8 km/h (1 Bft) O-NO 67 0 min 0,000 mm 0,0 UV-I 0 W/m 0,9 C 4,8 C 4,8 km/h (1 Bft) 95,65 %
30.04.2016 03:35 4,8 C 76 % 1017,1 hPa 0,0 l/m 3,3 km/h (1 Bft) O-NO 67 0 min 0,000 mm 0,0 UV-I 0 W/m 0,9 C 4,8 C 4,8 km/h (1 Bft) 100,00 %
30.04.2016 03:36 4,8 C 76 % 1017,0 hPa 0,0 l/m 3,0 km/h (1 Bft) O-NO 67 0 min 0,000 mm 0,0 UV-I 0 W/m 0,9 C 4,8 C 3,2 km/h (1 Bft) 100,00 %
30.04.2016 03:37 4,8 C 76 % 1017,1 hPa 0,0 l/m 3,2 km/h (1 Bft) O-NO 67 0 min 0,000 mm 0,0 UV-I 0 W/m 0,9 C 4,8 C 4,8 km/h (1 Bft) 100,00 %
30.04.2016 03:38 4,8 C 76 % 1017,0 hPa 0,0 l/m 3,1 km/h (1 Bft) O-NO 67 0 min 0,000 mm 0,0 UV-I 0 W/m 0,9 C 4,8 C 4,8 km/h (1 Bft) 95,65 %
30.04.2016 03:39 4,8 C 76 % 1017,0 hPa 0,0 l/m 3,0 km/h (1 Bft) O-NO 67 0 min 0,000 mm 0,0 UV-I 0 W/m 0,9 C 4,8 C 4,8 km/h (1 Bft) 95,83 %
30.04.2016 03:40 4,8 C 76 % 1017,1 hPa 0,0 l/m 2,7 km/h (1 Bft) O-NO 67 0 min 0,000 mm 0,0 UV-I 0 W/m 0,9 C 4,8 C 3,2 km/h (1 Bft) 100,00 %
30.04.2016 03:41 4,8 C 76 % 1017,0 hPa 0,0 l/m 3,5 km/h (1 Bft) O-NO 67 0 min 0,000 mm 0,0 UV-I 0 W/m 0,9 C 4,8 C 4,8 km/h (1 Bft) 100,00 %
30.04.2016 03:42 4,8 C 76 % 1017,0 hPa 0,0 l/m 2,6 km/h (1 Bft) O-NO 67 0 min 0,000 mm 0,0 UV-I 0 W/m 0,9 C 4,8 C 3,2 km/h (1 Bft) 100,00 %
30.04.2016 03:43 4,7 C 76 % 1017,1 hPa 0,0 l/m 2,3 km/h (1 Bft) O-NO 67 0 min 0,000 mm 0,0 UV-I 0 W/m 0,8 C 4,7 C 3,2 km/h (1 Bft) 100,00 %
30.04.2016 03:44 4,7 C 76 % 1017,1 hPa 0,0 l/m 2,2 km/h (1 Bft) O-NO 67 0 min 0,000 mm 0,0 UV-I 0 W/m 0,8 C 4,7 C 3,2 km/h (1 Bft) 100,00 %
30.04.2016 03:45 4,7 C 76 % 1017,1 hPa 0,0 l/m 2,5 km/h (1 Bft) O-NO 67 0 min 0,000 mm 0,0 UV-I 0 W/m 0,8 C 4,7 C 3,2 km/h (1 Bft) 100,00 %
30.04.2016 03:46 4,7 C 76 % 1017,0 hPa 0,0 l/m 2,7 km/h (1 Bft) O-NO 67 0 min 0,000 mm 0,0 UV-I 0 W/m 0,8 C 4,7 C 4,8 km/h (1 Bft) 100,00 %
30.04.2016 03:47 4,7 C 76 % 1017,0 hPa 0,0 l/m 2,5 km/h (1 Bft) O-NO 67 0 min 0,000 mm 0,0 UV-I 0 W/m 0,8 C 4,7 C 3,2 km/h (1 Bft) 100,00 %
30.04.2016 03:48 4,7 C 76 % 1017,0 hPa 0,0 l/m 3,2 km/h (1 Bft) O-NO 67 0 min 0,000 mm 0,0 UV-I 0 W/m 0,8 C 4,7 C 4,8 km/h (1 Bft) 100,00 %
30.04.2016 03:49 4,6 C 77 % 1017,0 hPa 0,0 l/m 3,2 km/h (1 Bft) O-NO 67 0 min 0,000 mm 0,0 UV-I 0 W/m 0,9 C 4,6 C 4,8 km/h (1 Bft) 91,30 %
30.04.2016 03:50 4,6 C 77 % 1017,0 hPa 0,0 l/m 3,3 km/h (1 Bft) O-NO 67 0 min 0,000 mm 0,0 UV-I 0 W/m 0,9 C 4,6 C 4,8 km/h (1 Bft) 100,00 %
30.04.2016 03:51 4,6 C 77 % 1017,0 hPa 0,0 l/m 3,3 km/h (1 Bft) O-NO 67 0 min 0,000 mm 0,0 UV-I 0 W/m 0,9 C 4,6 C 4,8 km/h (1 Bft) 95,65 %
30.04.2016 03:52 4,6 C 77 % 1017,0 hPa 0,0 l/m 2,5 km/h (1 Bft) O-NO 67 0 min 0,000 mm 0,0 UV-I 0 W/m 0,9 C 4,6 C 4,8 km/h (1 Bft) 91,67 %
30.04.2016 03:53 4,6 C 77 % 1017,0 hPa 0,0 l/m 1,7 km/h (1 Bft) O-NO 67 0 min 0,000 mm 0,0 UV-I 0 W/m 0,9 C 4,6 C 3,2 km/h (1 Bft) 95,65 %
30.04.2016 03:54 4,6 C 77 % 1017,0 hPa 0,0 l/m 2,3 km/h (1 Bft) O-NO 67 0 min 0,000 mm 0,0 UV-I 0 W/m 0,9 C 4,6 C 3,2 km/h (1 Bft) 95,83 %
30.04.2016 03:55 4,6 C 77 % 1017,0 hPa 0,0 l/m 1,6 km/h (1 Bft) O-NO 67 0 min 0,000 mm 0,0 UV-I 0 W/m 0,9 C 4,6 C 3,2 km/h (1 Bft) 100,00 %
30.04.2016 03:56 4,6 C 77 % 1017,0 hPa 0,0 l/m 2,0 km/h (1 Bft) O-NO 67 0 min 0,000 mm 0,0 UV-I 0 W/m 0,9 C 4,6 C 3,2 km/h (1 Bft) 95,83 %
30.04.2016 03:57 4,6 C 77 % 1017,0 hPa 0,0 l/m 1,4 km/h (1 Bft) O-NO 67 0 min 0,000 mm 0,0 UV-I 0 W/m 0,9 C 4,6 C 3,2 km/h (1 Bft) 100,00 %
30.04.2016 03:58 4,6 C 77 % 1017,0 hPa 0,0 l/m 2,3 km/h (1 Bft) O-NO 67 0 min 0,000 mm 0,0 UV-I 0 W/m 0,9 C 4,6 C 3,2 km/h (1 Bft) 95,83 %
30.04.2016 03:59 4,6 C 77 % 1017,0 hPa 0,0 l/m 1,7 km/h (1 Bft) O-NO 67 0 min 0,000 mm 0,0 UV-I 0 W/m 0,9 C 4,6 C 3,2 km/h (1 Bft) 100,00 %
30.04.2016 04:00 4,5 C 77 % 1017,0 hPa 0,0 l/m 2,7 km/h (1 Bft) O-NO 67 0 min 0,000 mm 0,0 UV-I 0 W/m 0,8 C 4,5 C 3,2 km/h (1 Bft) 96,30 %
30.04.2016 04:02 4,5 C 77 % 1017,0 hPa 0,0 l/m 2,4 km/h (1 Bft) O-NO 67 0 min 0,000 mm 0,0 UV-I 0 W/m 0,8 C 4,5 C 4,8 km/h (1 Bft) 96,55 %
30.04.2016 04:03 4,5 C 77 % 1017,0 hPa 0,0 l/m 2,5 km/h (1 Bft) O-NO 67 0 min 0,000 mm 0,0 UV-I 0 W/m 0,8 C 4,5 C 3,2 km/h (1 Bft) 96,15 %
30.04.2016 04:04 4,5 C 77 % 1017,0 hPa 0,0 l/m 3,0 km/h (1 Bft) O-NO 67 0 min 0,000 mm 0,0 UV-I 0 W/m 0,8 C 4,5 C 3,2 km/h (1 Bft) 100,00 %
30.04.2016 04:05 4,5 C 77 % 1017,0 hPa 0,0 l/m 2,6 km/h (1 Bft) O-NO 67 0 min 0,000 mm 0,0 UV-I 0 W/m 0,8 C 4,5 C 3,2 km/h (1 Bft) 95,83 %
30.04.2016 04:06 4,5 C 77 % 1017,0 hPa 0,0 l/m 2,3 km/h (1 Bft) O-NO 67 0 min 0,000 mm 0,0 UV-I 0 W/m 0,8 C 4,5 C 3,2 km/h (1 Bft) 100,00 %
30.04.2016 04:07 4,5 C 77 % 1017,0 hPa 0,0 l/m 3,0 km/h (1 Bft) O-NO 67 0 min 0,000 mm 0,0 UV-I 0 W/m 0,8 C 4,5 C 4,8 km/h (1 Bft) 95,83 %
30.04.2016 04:08 4,5 C 77 % 1017,0 hPa 0,0 l/m 3,0 km/h (1 Bft) O-NO 67 0 min 0,000 mm 0,0 UV-I 0 W/m 0,8 C 4,5 C 3,2 km/h (1 Bft) 95,65 %
30.04.2016 04:09 4,4 C 77 % 1017,0 hPa 0,0 l/m 2,4 km/h (1 Bft) O-NO 67 0 min 0,000 mm 0,0 UV-I 0 W/m 0,7 C 4,4 C 3,2 km/h (1 Bft) 95,83 %
30.04.2016 04:10 4,4 C 77 % 1017,0 hPa 0,0 l/m 2,3 km/h (1 Bft) O-NO 67 0 min 0,000 mm 0,0 UV-I 0 W/m 0,7 C 4,4 C 3,2 km/h (1 Bft) 95,65 %
30.04.2016 04:11 4,4 C 77 % 1017,0 hPa 0,0 l/m 2,5 km/h (1 Bft) O-NO 67 0 min 0,000 mm 0,0 UV-I 0 W/m 0,7 C 4,4 C 3,2 km/h (1 Bft) 95,83 %
30.04.2016 04:12 4,4 C 77 % 1017,0 hPa 0,0 l/m 1,9 km/h (1 Bft) O-NO 67 0 min 0,000 mm 0,0 UV-I 0 W/m 0,7 C 4,4 C 3,2 km/h (1 Bft) 95,65 %
30.04.2016 04:13 4,4 C 77 % 1017,0 hPa 0,0 l/m 1,8 km/h (1 Bft) O-NO 67 0 min 0,000 mm 0,0 UV-I 0 W/m 0,7 C 4,4 C 3,2 km/h (1 Bft) 100,00 %
30.04.2016 04:14 4,4 C 78 % 1017,0 hPa 0,0 l/m 2,0 km/h (1 Bft) O-NO 67 0 min 0,000 mm 0,0 UV-I 0 W/m 0,9 C 4,4 C 3,2 km/h (1 Bft) 95,65 %
30.04.2016 04:15 4,3 C 78 % 1017,0 hPa 0,0 l/m 3,3 km/h (1 Bft) O-NO 62 0 min 0,000 mm 0,0 UV-I 0 W/m 0,8 C 4,3 C 4,8 km/h (1 Bft) 100,00 %
30.04.2016 04:16 4,3 C 78 % 1017,0 hPa 0,0 l/m 3,5 km/h (1 Bft) O-NO 62 0 min 0,000 mm 0,0 UV-I 0 W/m 0,8 C 4,3 C 4,8 km/h (1 Bft) 96,15 %
30.04.2016 04:17 4,3 C 78 % 1017,0 hPa 0,0 l/m 3,6 km/h (1 Bft) O-NO 62 0 min 0,000 mm 0,0 UV-I 0 W/m 0,8 C 4,3 C 4,8 km/h (1 Bft) 95,83 %
30.04.2016 04:18 4,3 C 78 % 1017,0 hPa 0,0 l/m 3,6 km/h (1 Bft) O-NO 62 0 min 0,000 mm 0,0 UV-I 0 W/m 0,8 C 4,3 C 4,8 km/h (1 Bft) 91,30 %
30.04.2016 04:19 4,2 C 78 % 1017,0 hPa 0,0 l/m 3,5 km/h (1 Bft) O-NO 62 0 min 0,000 mm 0,0 UV-I 0 W/m 0,7 C 4,2 C 4,8 km/h (1 Bft) 95,83 %
30.04.2016 04:20 4,2 C 78 % 1017,0 hPa 0,0 l/m 3,1 km/h (1 Bft) O-NO 64 0 min 0,000 mm 0,0 UV-I 0 W/m 0,7 C 4,2 C 4,8 km/h (1 Bft) 100,00 %
30.04.2016 04:21 4,2 C 78 % 1017,0 hPa 0,0 l/m 2,7 km/h (1 Bft) O-NO 64 0 min 0,000 mm 0,0 UV-I 0 W/m 0,7 C 4,2 C 3,2 km/h (1 Bft) 95,83 %
30.04.2016 04:22 4,1 C 79 % 1017,0 hPa 0,0 l/m 2,4 km/h (1 Bft) O-NO 64 0 min 0,000 mm 0,0 UV-I 0 W/m 0,8 C 4,1 C 3,2 km/h (1 Bft) 91,30 %
30.04.2016 04:23 4,1 C 79 % 1017,0 hPa 0,0 l/m 1,9 km/h (1 Bft) O-NO 64 0 min 0,000 mm 0,0 UV-I 0 W/m 0,8 C 4,1 C 3,2 km/h (1 Bft) 95,83 %
30.04.2016 04:24 4,1 C 79 % 1017,0 hPa 0,0 l/m 2,2 km/h (1 Bft) O-NO 64 0 min 0,000 mm 0,0 UV-I 0 W/m 0,8 C 4,1 C 3,2 km/h (1 Bft) 100,00 %
30.04.2016 04:25 4,1 C 79 % 1017,0 hPa 0,0 l/m 1,5 km/h (1 Bft) O-NO 64 0 min 0,000 mm 0,0 UV-I 0 W/m 0,8 C 4,1 C 3,2 km/h (1 Bft) 95,83 %
30.04.2016 04:26 4,1 C 79 % 1017,0 hPa 0,0 l/m 1,3 km/h (1 Bft) O-NO 64 0 min 0,000 mm 0,0 UV-I 0 W/m 0,8 C 4,1 C 1,6 km/h (1 Bft) 100,00 %
30.04.2016 04:27 4,1 C 79 % 1017,0 hPa 0,0 l/m 0,9 km/h (0 Bft) O-NO 64 0 min 0,000 mm 0,0 UV-I 0 W/m 0,8 C 4,1 C 1,6 km/h (1 Bft) 100,00 %
30.04.2016 04:28 4,1 C 79 % 1017,0 hPa 0,0 l/m 1,4 km/h (1 Bft) O-NO 64 0 min 0,000 mm 0,0 UV-I 0 W/m 0,8 C 4,1 C 1,6 km/h (1 Bft) 100,00 %
30.04.2016 04:29 4,2 C 79 % 1017,0 hPa 0,0 l/m 1,7 km/h (1 Bft) O-NO 64 0 min 0,000 mm 0,0 UV-I 0 W/m 0,9 C 4,2 C 3,2 km/h (1 Bft) 95,65 %
30.04.2016 04:30 4,2 C 79 % 1017,1 hPa 0,0 l/m 1,8 km/h (1 Bft) O-NO 64 0 min 0,000 mm 0,0 UV-I 0 W/m 0,9 C 4,2 C 3,2 km/h (1 Bft) 100,00 %
30.04.2016 04:31 4,2 C 79 % 1017,0 hPa 0,0 l/m 2,3 km/h (1 Bft) O-NO 64 0 min 0,000 mm 0,0 UV-I 0 W/m 0,9 C 4,2 C 3,2 km/h (1 Bft) 100,00 %
30.04.2016 04:32 4,2 C 79 % 1017,0 hPa 0,0 l/m 1,9 km/h (1 Bft) O-NO 64 0 min 0,000 mm 0,0 UV-I 0 W/m 0,9 C 4,2 C 3,2 km/h (1 Bft) 100,00 %
30.04.2016 04:33 4,1 C 79 % 1017,0 hPa 0,0 l/m 2,7 km/h (1 Bft) O-NO 64 0 min 0,000 mm 0,0 UV-I 0 W/m 0,8 C 4,1 C 4,8 km/h (1 Bft) 100,00 %
30.04.2016 04:34 4,1 C 79 % 1017,0 hPa 0,0 l/m 2,5 km/h (1 Bft) O-NO 64 0 min 0,000 mm 0,0 UV-I 0 W/m 0,8 C 4,1 C 4,8 km/h (1 Bft) 95,83 %
30.04.2016 04:35 4,1 C 79 % 1017,0 hPa 0,0 l/m 2,4 km/h (1 Bft) O-NO 64 0 min 0,000 mm 0,0 UV-I 0 W/m 0,8 C 4,1 C 3,2 km/h (1 Bft) 95,65 %
30.04.2016 04:36 4,1 C 79 % 1017,0 hPa 0,0 l/m 2,4 km/h (1 Bft) O-NO 64 0 min 0,000 mm 0,0 UV-I 0 W/m 0,8 C 4,1 C 3,2 km/h (1 Bft) 100,00 %
30.04.2016 04:37 4,1 C 79 % 1017,0 hPa 0,0 l/m 2,6 km/h (1 Bft) O-NO 64 0 min 0,000 mm 0,0 UV-I 0 W/m 0,8 C 4,1 C 3,2 km/h (1 Bft) 100,00 %
30.04.2016 04:38 4,1 C 79 % 1017,1 hPa 0,0 l/m 2,3 km/h (1 Bft) O-NO 64 0 min 0,000 mm 0,0 UV-I 0 W/m 0,8 C 4,1 C 3,2 km/h (1 Bft) 100,00 %
30.04.2016 04:39 4,1 C 79 % 1017,1 hPa 0,0 l/m 2,3 km/h (1 Bft) O-NO 64 0 min 0,000 mm 0,0 UV-I 0 W/m 0,8 C 4,1 C 3,2 km/h (1 Bft) 95,65 %
30.04.2016 04:40 4,1 C 79 % 1017,1 hPa 0,0 l/m 2,3 km/h (1 Bft) O-NO 64 0 min 0,000 mm 0,0 UV-I 0 W/m 0,8 C 4,1 C 3,2 km/h (1 Bft) 100,00 %
30.04.2016 04:41 4,1 C 79 % 1017,1 hPa 0,0 l/m 2,3 km/h (1 Bft) O-NO 64 0 min 0,000 mm 0,0 UV-I 0 W/m 0,8 C 4,1 C 3,2 km/h (1 Bft) 95,65 %
30.04.2016 04:42 4,1 C 79 % 1017,1 hPa 0,0 l/m 2,0 km/h (1 Bft) O-NO 64 0 min 0,000 mm 0,0 UV-I 0 W/m 0,8 C 4,1 C 3,2 km/h (1 Bft) 100,00 %
30.04.2016 04:43 4,1 C 79 % 1017,1 hPa 0,0 l/m 1,5 km/h (1 Bft) O-NO 64 0 min 0,000 mm 0,0 UV-I 0 W/m 0,8 C 4,1 C 3,2 km/h (1 Bft) 91,30 %
30.04.2016 04:44 4,1 C 79 % 1017,1 hPa 0,0 l/m 1,8 km/h (1 Bft) O-NO 64 0 min 0,000 mm 0,0 UV-I 0 W/m 0,8 C 4,1 C 3,2 km/h (1 Bft) 93,33 %
30.04.2016 04:45 4,0 C 79 % 1017,1 hPa 0,0 l/m 1,7 km/h (1 Bft) O-NO 64 0 min 0,000 mm 0,0 UV-I 0 W/m 0,7 C 4,0 C 3,2 km/h (1 Bft) 100,00 %
30.04.2016 04:46 3,7 C 79 % 1017,1 hPa 0,0 l/m 1,6 km/h (1 Bft) O-NO 64 0 min 0,000 mm 0,0 UV-I 0 W/m 0,4 C 3,7 C 3,2 km/h (1 Bft) 100,00 %
30.04.2016 04:47 3,6 C 81 % 1017,1 hPa 0,0 l/m 1,3 km/h (1 Bft) O-NO 64 0 min 0,000 mm 0,0 UV-I 0 W/m 0,7 C 3,6 C 1,6 km/h (1 Bft) 100,00 %
30.04.2016 04:48 3,2 C 81 % 1017,1 hPa 0,0 l/m 0,3 km/h (0 Bft) O-NO 64 0 min 0,000 mm 0,0 UV-I 0 W/m 0,3 C 3,2 C 1,6 km/h (1 Bft) 91,30 %
30.04.2016 04:49 2,9 C 82 % 1017,1 hPa 0,0 l/m 0,0 km/h (0 Bft) O-NO 64 0 min 0,000 mm 0,0 UV-I 0 W/m 0,1 C 2,9 C 0,0 km/h (0 Bft) 100,00 %
30.04.2016 04:50 2,8 C 83 % 1017,2 hPa 0,0 l/m 0,1 km/h (0 Bft) O-NO 64 0 min 0,000 mm 0,0 UV-I 0 W/m 0,2 C 2,8 C 1,6 km/h (1 Bft) 100,00 %
30.04.2016 04:51 2,7 C 83 % 1017,2 hPa 0,0 l/m 0,7 km/h (0 Bft) O-NO 64 0 min 0,000 mm 0,0 UV-I 0 W/m 0,1 C 2,7 C 1,6 km/h (1 Bft) 100,00 %
30.04.2016 04:52 2,7 C 84 % 1017,2 hPa 0,0 l/m 0,7 km/h (0 Bft) O-NO 64 0 min 0,000 mm 0,0 UV-I 0 W/m 0,3 C 2,7 C 1,6 km/h (1 Bft) 100,00 %
30.04.2016 04:53 2,6 C 84 % 1017,2 hPa 0,0 l/m 1,2 km/h (1 Bft) O-NO 64 0 min 0,000 mm 0,0 UV-I 0 W/m 0,2 C 2,6 C 1,6 km/h (1 Bft) 100,00 %
30.04.2016 04:54 2,6 C 84 % 1017,2 hPa 0,0 l/m 0,6 km/h (0 Bft) O-NO 64 0 min 0,000 mm 0,0 UV-I 0 W/m 0,2 C 2,6 C 1,6 km/h (1 Bft) 100,00 %
30.04.2016 04:55 2,6 C 85 % 1017,2 hPa 0,0 l/m 0,2 km/h (0 Bft) O-NO 64 0 min 0,000 mm 0,0 UV-I 0 W/m 0,3 C 2,6 C 1,6 km/h (1 Bft) 100,00 %
30.04.2016 04:56 2,6 C 85 % 1017,2 hPa 0,0 l/m 0,0 km/h (0 Bft) O-NO 64 0 min 0,000 mm 0,0 UV-I 0 W/m 0,3 C 2,6 C 0,0 km/h (0 Bft) 100,00 %
30.04.2016 04:57 2,6 C 85 % 1017,2 hPa 0,0 l/m 0,1 km/h (0 Bft) O-NO 64 0 min 0,000 mm 0,0 UV-I 0 W/m 0,3 C 2,6 C 1,6 km/h (1 Bft) 100,00 %
30.04.2016 04:58 2,5 C 85 % 1017,2 hPa 0,0 l/m 0,4 km/h (0 Bft) O-NO 64 0 min 0,000 mm 0,0 UV-I 0 W/m 0,2 C 2,5 C 1,6 km/h (1 Bft) 100,00 %
30.04.2016 04:59 2,4 C 85 % 1017,2 hPa 0,0 l/m 0,0 km/h (0 Bft) O-NO 64 0 min 0,000 mm 0,0 UV-I 0 W/m 0,1 C 2,4 C 0,0 km/h (0 Bft) 100,00 %
30.04.2016 05:00 2,3 C 85 % 1017,2 hPa 0,0 l/m 0,1 km/h (0 Bft) O-NO 64 0 min 0,000 mm 0,0 UV-I 0 W/m 0,0 C 2,3 C 1,6 km/h (1 Bft) 91,30 %
30.04.2016 05:02 2,2 C 86 % 1017,2 hPa 0,0 l/m 1,1 km/h (1 Bft) O-NO 64 0 min 0,000 mm 0,0 UV-I 0 W/m 0,1 C 2,2 C 3,2 km/h (1 Bft) 100,00 %
30.04.2016 05:03 2,1 C 86 % 1017,2 hPa 0,0 l/m 1,2 km/h (1 Bft) O-NO 64 0 min 0,000 mm 0,0 UV-I 0 W/m 0,0 C 2,1 C 1,6 km/h (1 Bft) 100,00 %
30.04.2016 05:04 2,1 C 86 % 1017,2 hPa 0,0 l/m 1,0 km/h (0 Bft) O-NO 64 0 min 0,000 mm 0,0 UV-I 0 W/m 0,0 C 2,1 C 1,6 km/h (1 Bft) 95,65 %
30.04.2016 05:05 2,0 C 87 % 1017,2 hPa 0,0 l/m 1,0 km/h (0 Bft) O-NO 64 0 min 0,000 mm 0,0 UV-I 0 W/m 0,1 C 2,0 C 1,6 km/h (1 Bft) 100,00 %
30.04.2016 05:06 2,0 C 87 % 1017,2 hPa 0,0 l/m 0,9 km/h (0 Bft) O-NO 64 0 min 0,000 mm 0,0 UV-I 0 W/m 0,1 C 2,0 C 1,6 km/h (1 Bft) 95,65 %
30.04.2016 05:07 2,0 C 87 % 1017,2 hPa 0,0 l/m 1,7 km/h (1 Bft) O-NO 64 0 min 0,000 mm 0,0 UV-I 0 W/m 0,1 C 2,0 C 3,2 km/h (1 Bft) 100,00 %
30.04.2016 05:08 2,0 C 87 % 1017,2 hPa 0,0 l/m 2,1 km/h (1 Bft) O-NO 64 0 min 0,000 mm 0,0 UV-I 0 W/m 0,1 C 2,0 C 3,2 km/h (1 Bft) 95,65 %
30.04.2016 05:09 2,0 C 87 % 1017,2 hPa 0,0 l/m 2,4 km/h (1 Bft) O-NO 64 0 min 0,000 mm 0,0 UV-I 0 W/m 0,1 C 2,0 C 3,2 km/h (1 Bft) 95,83 %
30.04.2016 05:10 2,1 C 87 % 1017,2 hPa 0,0 l/m 2,4 km/h (1 Bft) O-NO 69 0 min 0,000 mm 0,0 UV-I 0 W/m 0,2 C 2,1 C 3,2 km/h (1 Bft) 100,00 %
30.04.2016 05:12 2,1 C 87 % 1017,2 hPa 0,0 l/m 2,1 km/h (1 Bft) O-NO 69 0 min 0,000 mm 0,0 UV-I 0 W/m 0,2 C 2,1 C 3,2 km/h (1 Bft) 100,00 %
30.04.2016 05:13 2,1 C 87 % 1017,2 hPa 0,0 l/m 1,1 km/h (1 Bft) O-NO 69 0 min 0,000 mm 0,0 UV-I 0 W/m 0,2 C 2,1 C 1,6 km/h (1 Bft) 100,00 %
30.04.2016 05:14 1,9 C 86 % 1017,2 hPa 0,0 l/m 0,1 km/h (0 Bft) O-NO 69 0 min 0,000 mm 0,0 UV-I 0 W/m -0,2 C 1,9 C 1,6 km/h (1 Bft) 100,00 %
30.04.2016 05:15 1,9 C 86 % 1017,2 hPa 0,0 l/m 0,8 km/h (0 Bft) O-NO 69 0 min 0,000 mm 0,0 UV-I 0 W/m -0,2 C 1,9 C 1,6 km/h (1 Bft) 100,00 %
30.04.2016 05:16 1,9 C 87 % 1017,2 hPa 0,0 l/m 0,5 km/h (0 Bft) O-NO 69 0 min 0,000 mm 0,0 UV-I 0 W/m -0,0 C 1,9 C 1,6 km/h (1 Bft) 100,00 %
30.04.2016 05:17 1,8 C 87 % 1017,2 hPa 0,0 l/m 1,8 km/h (1 Bft) O-NO 69 0 min 0,000 mm 0,0 UV-I 0 W/m -0,1 C 1,8 C 3,2 km/h (1 Bft) 100,00 %
30.04.2016 05:18 1,8 C 87 % 1017,2 hPa 0,0 l/m 2,2 km/h (1 Bft) O-NO 69 0 min 0,000 mm 0,0 UV-I 0 W/m -0,1 C 1,8 C 3,2 km/h (1 Bft) 100,00 %
30.04.2016 05:19 1,7 C 87 % 1017,2 hPa 0,0 l/m 1,4 km/h (1 Bft) O-NO 69 0 min 0,000 mm 0,0 UV-I 0 W/m -0,2 C 1,7 C 1,6 km/h (1 Bft) 100,00 %
30.04.2016 05:20 1,7 C 88 % 1017,2 hPa 0,0 l/m 1,2 km/h (1 Bft) O-NO 69 0 min 0,000 mm 0,0 UV-I 0 W/m -0,1 C 1,7 C 1,6 km/h (1 Bft) 95,83 %
30.04.2016 05:21 1,7 C 88 % 1017,2 hPa 0,0 l/m 0,8 km/h (0 Bft) O-NO 69 0 min 0,000 mm 0,0 UV-I 0 W/m -0,1 C 1,7 C 1,6 km/h (1 Bft) 100,00 %
30.04.2016 05:22 1,8 C 89 % 1017,1 hPa 0,0 l/m 1,3 km/h (1 Bft) O-NO 69 0 min 0,000 mm 0,0 UV-I 0 W/m 0,2 C 1,8 C 1,6 km/h (1 Bft) 100,00 %
30.04.2016 05:23 1,8 C 89 % 1017,2 hPa 0,0 l/m 1,0 km/h (0 Bft) O-NO 69 0 min 0,000 mm 0,0 UV-I 0 W/m 0,2 C 1,8 C 1,6 km/h (1 Bft) 100,00 %
30.04.2016 05:24 1,8 C 89 % 1017,1 hPa 0,0 l/m 0,9 km/h (0 Bft) O-NO 69 0 min 0,000 mm 0,0 UV-I 0 W/m 0,2 C 1,8 C 1,6 km/h (1 Bft) 100,00 %
30.04.2016 05:25 1,9 C 88 % 1017,1 hPa 0,0 l/m 1,1 km/h (1 Bft) O-NO 69 0 min 0,000 mm 0,0 UV-I 0 W/m 0,1 C 1,9 C 1,6 km/h (1 Bft) 100,00 %
30.04.2016 05:26 1,9 C 88 % 1017,1 hPa 0,0 l/m 1,7 km/h (1 Bft) O-NO 69 0 min 0,000 mm 0,0 UV-I 0 W/m 0,1 C 1,9 C 3,2 km/h (1 Bft) 100,00 %
30.04.2016 05:27 1,9 C 88 % 1017,1 hPa 0,0 l/m 0,7 km/h (0 Bft) O-NO 69 0 min 0,000 mm 0,0 UV-I 0 W/m 0,1 C 1,9 C 1,6 km/h (1 Bft) 100,00 %
30.04.2016 05:28 1,8 C 88 % 1017,1 hPa 0,0 l/m 0,9 km/h (0 Bft) O-NO 69 0 min 0,000 mm 0,0 UV-I 0 W/m 0,0 C 1,8 C 1,6 km/h (1 Bft) 95,65 %
30.04.2016 05:29 1,8 C 88 % 1017,1 hPa 0,0 l/m 1,1 km/h (1 Bft) O-NO 69 0 min 0,000 mm 0,0 UV-I 0 W/m 0,0 C 1,8 C 1,6 km/h (1 Bft) 100,00 %
30.04.2016 05:30 1,8 C 88 % 1017,1 hPa 0,0 l/m 1,2 km/h (1 Bft) O-NO 69 0 min 0,000 mm 0,0 UV-I 0 W/m 0,0 C 1,8 C 1,6 km/h (1 Bft) 100,00 %
30.04.2016 05:31 1,8 C 88 % 1017,1 hPa 0,0 l/m 1,0 km/h (0 Bft) O-NO 69 0 min 0,000 mm 0,0 UV-I 0 W/m 0,0 C 1,8 C 1,6 km/h (1 Bft) 100,00 %
30.04.2016 05:32 1,7 C 88 % 1017,1 hPa 0,0 l/m 0,9 km/h (0 Bft) O-NO 69 0 min 0,000 mm 0,0 UV-I 0 W/m -0,1 C 1,7 C 1,6 km/h (1 Bft) 100,00 %
30.04.2016 05:33 1,7 C 88 % 1017,1 hPa 0,0 l/m 0,1 km/h (0 Bft) O-NO 69 0 min 0,000 mm 0,0 UV-I 0 W/m -0,1 C 1,7 C 1,6 km/h (1 Bft) 100,00 %
30.04.2016 05:34 1,7 C 88 % 1017,1 hPa 0,0 l/m 0,0 km/h (0 Bft) O-NO 69 0 min 0,000 mm 0,0 UV-I 0 W/m -0,1 C 1,7 C 0,0 km/h (0 Bft) 100,00 %
30.04.2016 05:35 1,7 C 89 % 1017,1 hPa 0,0 l/m 0,0 km/h (0 Bft) O-NO 69 0 min 0,000 mm 0,0 UV-I 0 W/m 0,1 C 1,7 C 0,0 km/h (0 Bft) 100,00 %
30.04.2016 05:36 1,7 C 89 % 1017,1 hPa 0,0 l/m 0,3 km/h (0 Bft) O-NO 69 0 min 0,000 mm 0,0 UV-I 0 W/m 0,1 C 1,7 C 1,6 km/h (1 Bft) 95,65 %
30.04.2016 05:37 1,7 C 89 % 1017,1 hPa 0,0 l/m 0,2 km/h (0 Bft) O-NO 69 0 min 0,000 mm 0,0 UV-I 0 W/m 0,1 C 1,7 C 1,6 km/h (1 Bft) 100,00 %
30.04.2016 05:38 1,7 C 89 % 1017,1 hPa 0,0 l/m 0,1 km/h (0 Bft) O-NO 69 0 min 0,000 mm 0,0 UV-I 0 W/m 0,1 C 1,7 C 1,6 km/h (1 Bft) 100,00 %
30.04.2016 05:39 1,7 C 89 % 1017,1 hPa 0,0 l/m 0,0 km/h (0 Bft) O-NO 69 0 min 0,000 mm 0,0 UV-I 0 W/m 0,1 C 1,7 C 0,0 km/h (0 Bft) 100,00 %
30.04.2016 05:40 1,8 C 89 % 1017,1 hPa 0,0 l/m 0,0 km/h (0 Bft) O-NO 69 0 min 0,000 mm 0,0 UV-I 0 W/m 0,2 C 1,8 C 0,0 km/h (0 Bft) 100,00 %
30.04.2016 05:41 1,8 C 89 % 1017,1 hPa 0,0 l/m 0,0 km/h (0 Bft) O-NO 69 0 min 0,000 mm 0,0 UV-I 0 W/m 0,2 C 1,8 C 0,0 km/h (0 Bft) 100,00 %
30.04.2016 05:42 1,8 C 89 % 1017,1 hPa 0,0 l/m 0,0 km/h (0 Bft) O-NO 69 0 min 0,000 mm 0,0 UV-I 0 W/m 0,2 C 1,8 C 0,0 km/h (0 Bft) 100,00 %
30.04.2016 05:43 1,8 C 89 % 1017,1 hPa 0,0 l/m 0,0 km/h (0 Bft) O-NO 69 0 min 0,000 mm 0,0 UV-I 0 W/m 0,2 C 1,8 C 0,0 km/h (0 Bft) 95,83 %
30.04.2016 05:44 1,8 C 89 % 1017,1 hPa 0,0 l/m 0,0 km/h (0 Bft) O-NO 69 0 min 0,000 mm 0,0 UV-I 0 W/m 0,2 C 1,8 C 0,0 km/h (0 Bft) 95,83 %
30.04.2016 05:45 1,8 C 89 % 1017,1 hPa 0,0 l/m 0,0 km/h (0 Bft) O-NO 69 0 min 0,000 mm 0,0 UV-I 2 W/m 0,2 C 1,8 C 0,0 km/h (0 Bft) 95,65 %
30.04.2016 05:46 1,8 C 88 % 1017,1 hPa 0,0 l/m 0,0 km/h (0 Bft) O-NO 69 0 min 0,000 mm 0,0 UV-I 5 W/m 0,0 C 1,8 C 0,0 km/h (0 Bft) 100,00 %
30.04.2016 05:47 1,8 C 88 % 1017,1 hPa 0,0 l/m 0,0 km/h (0 Bft) O-NO 69 0 min 0,000 mm 0,0 UV-I 5 W/m 0,0 C 1,8 C 0,0 km/h (0 Bft) 100,00 %
30.04.2016 05:48 1,7 C 88 % 1017,1 hPa 0,0 l/m 0,0 km/h (0 Bft) O-NO 69 0 min 0,000 mm 0,0 UV-I 5 W/m -0,1 C 1,7 C 0,0 km/h (0 Bft) 100,00 %
30.04.2016 05:49 1,7 C 88 % 1017,1 hPa 0,0 l/m 0,0 km/h (0 Bft) O-NO 69 0 min 0,000 mm 0,0 UV-I 5 W/m -0,1 C 1,7 C 0,0 km/h (0 Bft) 100,00 %
30.04.2016 05:50 1,7 C 88 % 1017,1 hPa 0,0 l/m 0,0 km/h (0 Bft) O-NO 69 0 min 0,000 mm 0,0 UV-I 5 W/m -0,1 C 1,7 C 0,0 km/h (0 Bft) 100,00 %
30.04.2016 05:51 1,6 C 88 % 1017,1 hPa 0,0 l/m 0,0 km/h (0 Bft) O-NO 69 0 min 0,000 mm 0,0 UV-I 5 W/m -0,2 C 1,6 C 0,0 km/h (0 Bft) 95,65 %
30.04.2016 05:52 1,6 C 88 % 1017,1 hPa 0,0 l/m 0,0 km/h (0 Bft) O-NO 69 0 min 0,000 mm 0,0 UV-I 5 W/m -0,2 C 1,6 C 0,0 km/h (0 Bft) 100,00 %
30.04.2016 05:53 1,5 C 88 % 1017,1 hPa 0,0 l/m 0,0 km/h (0 Bft) O-NO 69 0 min 0,000 mm 0,0 UV-I 7 W/m -0,3 C 1,5 C 0,0 km/h (0 Bft) 100,00 %
30.04.2016 05:54 1,4 C 88 % 1017,1 hPa 0,0 l/m 0,0 km/h (0 Bft) O-NO 69 0 min 0,000 mm 0,0 UV-I 7 W/m -0,4 C 1,4 C 0,0 km/h (0 Bft) 100,00 %
30.04.2016 05:55 1,4 C 88 % 1017,1 hPa 0,0 l/m 0,0 km/h (0 Bft) O-NO 69 0 min 0,000 mm 0,0 UV-I 7 W/m -0,4 C 1,4 C 0,0 km/h (0 Bft) 100,00 %
30.04.2016 05:56 1,4 C 89 % 1017,1 hPa 0,0 l/m 0,0 km/h (0 Bft) O-NO 69 0 min 0,000 mm 0,0 UV-I 7 W/m -0,2 C 1,4 C 0,0 km/h (0 Bft) 100,00 %
30.04.2016 05:57 1,4 C 89 % 1017,1 hPa 0,0 l/m 0,0 km/h (0 Bft) O-NO 69 0 min 0,000 mm 0,0 UV-I 7 W/m -0,2 C 1,4 C 0,0 km/h (0 Bft) 100,00 %
30.04.2016 05:58 1,4 C 89 % 1017,1 hPa 0,0 l/m 0,0 km/h (0 Bft) O-NO 69 0 min 0,000 mm 0,0 UV-I 8 W/m -0,2 C 1,4 C 0,0 km/h (0 Bft) 100,00 %
30.04.2016 05:59 1,4 C 89 % 1017,1 hPa 0,0 l/m 0,1 km/h (0 Bft) O-NO 69 0 min 0,000 mm 0,0 UV-I 9 W/m -0,2 C 1,4 C 1,6 km/h (1 Bft) 100,00 %
30.04.2016 06:00 1,3 C 89 % 1017,2 hPa 0,0 l/m 0,9 km/h (0 Bft) O-NO 69 0 min 0,000 mm 0,0 UV-I 9 W/m -0,3 C 1,3 C 1,6 km/h (1 Bft) 100,00 %
30.04.2016 06:02 1,3 C 89 % 1017,2 hPa 0,0 l/m 1,2 km/h (1 Bft) O-NO 69 0 min 0,000 mm 0,0 UV-I 9 W/m -0,3 C 1,3 C 3,2 km/h (1 Bft) 97,87 %
30.04.2016 06:03 1,3 C 89 % 1017,1 hPa 0,0 l/m 1,9 km/h (1 Bft) O-NO 69 0 min 0,000 mm 0,0 UV-I 10 W/m -0,3 C 1,3 C 3,2 km/h (1 Bft) 96,15 %
30.04.2016 06:04 1,3 C 89 % 1017,1 hPa 0,0 l/m 2,4 km/h (1 Bft) O-NO 69 0 min 0,000 mm 0,0 UV-I 11 W/m -0,3 C 1,3 C 3,2 km/h (1 Bft) 91,67 %
30.04.2016 06:05 1,3 C 89 % 1017,2 hPa 0,0 l/m 2,1 km/h (1 Bft) O-NO 69 0 min 0,000 mm 0,0 UV-I 11 W/m -0,3 C 1,3 C 3,2 km/h (1 Bft) 95,65 %
30.04.2016 06:06 1,3 C 89 % 1017,2 hPa 0,0 l/m 2,6 km/h (1 Bft) O-NO 69 0 min 0,000 mm 0,0 UV-I 11 W/m -0,3 C 1,3 C 3,2 km/h (1 Bft) 100,00 %
30.04.2016 06:07 1,3 C 89 % 1017,1 hPa 0,0 l/m 1,3 km/h (1 Bft) O-NO 69 0 min 0,000 mm 0,0 UV-I 11 W/m -0,3 C 1,3 C 3,2 km/h (1 Bft) 95,83 %
30.04.2016 06:08 1,3 C 89 % 1017,2 hPa 0,0 l/m 2,1 km/h (1 Bft) O-NO 69 0 min 0,000 mm 0,0 UV-I 11 W/m -0,3 C 1,3 C 3,2 km/h (1 Bft) 95,65 %
30.04.2016 06:09 1,3 C 89 % 1017,2 hPa 0,0 l/m 0,5 km/h (0 Bft) O-NO 69 0 min 0,000 mm 0,0 UV-I 12 W/m -0,3 C 1,3 C 1,6 km/h (1 Bft) 91,67 %
30.04.2016 06:10 1,3 C 89 % 1017,2 hPa 0,0 l/m 0,6 km/h (0 Bft) O-NO 69 0 min 0,000 mm 0,0 UV-I 12 W/m -0,3 C 1,3 C 1,6 km/h (1 Bft) 96,15 %
30.04.2016 06:11 1,3 C 89 % 1017,2 hPa 0,0 l/m 1,2 km/h (1 Bft) O-NO 69 0 min 0,000 mm 0,0 UV-I 12 W/m -0,3 C 1,3 C 1,6 km/h (1 Bft) 100,00 %
30.04.2016 06:12 1,3 C 89 % 1017,2 hPa 0,0 l/m 1,1 km/h (1 Bft) O-NO 69 0 min 0,000 mm 0,0 UV-I 12 W/m -0,3 C 1,3 C 1,6 km/h (1 Bft) 95,65 %
30.04.2016 06:13 1,3 C 89 % 1017,1 hPa 0,0 l/m 2,0 km/h (1 Bft) O-NO 69 0 min 0,000 mm 0,0 UV-I 13 W/m -0,3 C 1,3 C 3,2 km/h (1 Bft) 95,83 %
30.04.2016 06:14 1,3 C 89 % 1017,2 hPa 0,0 l/m 1,2 km/h (1 Bft) O-NO 69 0 min 0,000 mm 0,0 UV-I 14 W/m -0,3 C 1,3 C 1,6 km/h (1 Bft) 94,12 %
30.04.2016 06:15 1,3 C 89 % 1017,2 hPa 0,0 l/m 1,6 km/h (1 Bft) O-NO 69 0 min 0,000 mm 0,0 UV-I 14 W/m -0,3 C 1,3 C 3,2 km/h (1 Bft) 95,83 %
30.04.2016 06:16 1,3 C 89 % 1017,2 hPa 0,0 l/m 0,3 km/h (0 Bft) O-NO 69 0 min 0,000 mm 0,0 UV-I 14 W/m -0,3 C 1,3 C 1,6 km/h (1 Bft) 91,30 %
30.04.2016 06:17 1,3 C 89 % 1017,2 hPa 0,0 l/m 1,1 km/h (1 Bft) O-NO 69 0 min 0,000 mm 0,0 UV-I 14 W/m -0,3 C 1,3 C 1,6 km/h (1 Bft) 100,00 %
30.04.2016 06:18 1,2 C 89 % 1017,2 hPa 0,0 l/m 0,0 km/h (0 Bft) O-NO 69 0 min 0,000 mm 0,0 UV-I 14 W/m -0,4 C 1,2 C 0,0 km/h (0 Bft) 91,30 %
30.04.2016 06:19 1,2 C 89 % 1017,2 hPa 0,0 l/m 0,0 km/h (0 Bft) O-NO 69 0 min 0,000 mm 0,0 UV-I 16 W/m -0,4 C 1,2 C 0,0 km/h (0 Bft) 100,00 %
30.04.2016 06:20 1,2 C 90 % 1017,2 hPa 0,0 l/m 0,0 km/h (0 Bft) O-NO 69 0 min 0,000 mm 0,0 UV-I 16 W/m -0,3 C 1,2 C 0,0 km/h (0 Bft) 95,65 %
30.04.2016 06:21 1,2 C 90 % 1017,2 hPa 0,0 l/m 0,0 km/h (0 Bft) O-NO 69 0 min 0,000 mm 0,0 UV-I 16 W/m -0,3 C 1,2 C 0,0 km/h (0 Bft) 95,83 %
30.04.2016 06:22 1,2 C 90 % 1017,2 hPa 0,0 l/m 0,7 km/h (0 Bft) O-NO 69 0 min 0,000 mm 0,0 UV-I 18 W/m -0,3 C 1,2 C 1,6 km/h (1 Bft) 100,00 %
30.04.2016 06:23 1,3 C 90 % 1017,2 hPa 0,0 l/m 0,6 km/h (0 Bft) O-NO 69 0 min 0,000 mm 0,0 UV-I 18 W/m -0,2 C 1,3 C 1,6 km/h (1 Bft) 95,83 %
30.04.2016 06:24 1,3 C 90 % 1017,2 hPa 0,0 l/m 0,3 km/h (0 Bft) O-NO 69 0 min 0,000 mm 0,0 UV-I 18 W/m -0,2 C 1,3 C 1,6 km/h (1 Bft) 100,00 %
30.04.2016 06:25 1,3 C 90 % 1017,2 hPa 0,0 l/m 0,0 km/h (0 Bft) O-NO 69 0 min 0,000 mm 0,0 UV-I 18 W/m -0,2 C 1,3 C 0,0 km/h (0 Bft) 91,67 %
30.04.2016 06:26 1,3 C 90 % 1017,2 hPa 0,0 l/m 0,0 km/h (0 Bft) O-NO 69 0 min 0,000 mm 0,0 UV-I 19 W/m -0,2 C 1,3 C 0,0 km/h (0 Bft) 100,00 %
30.04.2016 06:27 1,3 C 90 % 1017,2 hPa 0,0 l/m 0,0 km/h (0 Bft) O-NO 69 0 min 0,000 mm 0,0 UV-I 19 W/m -0,2 C 1,3 C 0,0 km/h (0 Bft) 91,67 %
30.04.2016 06:28 1,3 C 90 % 1017,2 hPa 0,0 l/m 0,0 km/h (0 Bft) O-NO 69 0 min 0,000 mm 0,0 UV-I 21 W/m -0,2 C 1,3 C 0,0 km/h (0 Bft) 95,65 %
30.04.2016 06:29 1,4 C 90 % 1017,2 hPa 0,0 l/m 0,0 km/h (0 Bft) O-NO 69 0 min 0,000 mm 0,0 UV-I 21 W/m -0,1 C 1,4 C 0,0 km/h (0 Bft) 100,00 %
30.04.2016 06:30 1,5 C 90 % 1017,2 hPa 0,0 l/m 0,0 km/h (0 Bft) O-NO 69 0 min 0,000 mm 0,0 UV-I 21 W/m 0,0 C 1,5 C 0,0 km/h (0 Bft) 95,83 %
30.04.2016 06:31 1,6 C 90 % 1017,2 hPa 0,0 l/m 0,0 km/h (0 Bft) O-NO 69 0 min 0,000 mm 0,0 UV-I 21 W/m 0,1 C 1,6 C 0,0 km/h (0 Bft) 100,00 %
30.04.2016 06:32 1,6 C 90 % 1017,2 hPa 0,0 l/m 0,0 km/h (0 Bft) O-NO 69 0 min 0,000 mm 0,0 UV-I 21 W/m 0,1 C 1,6 C 0,0 km/h (0 Bft) 95,83 %
30.04.2016 06:33 1,7 C 90 % 1017,2 hPa 0,0 l/m 0,0 km/h (0 Bft) O-NO 69 0 min 0,000 mm 0,0 UV-I 21 W/m 0,2 C 1,7 C 0,0 km/h (0 Bft) 100,00 %
30.04.2016 06:34 1,7 C 90 % 1017,2 hPa 0,0 l/m 0,0 km/h (0 Bft) O-NO 69 0 min 0,000 mm 0,0 UV-I 23 W/m 0,2 C 1,7 C 0,0 km/h (0 Bft) 95,83 %
30.04.2016 06:35 1,7 C 90 % 1017,2 hPa 0,0 l/m 0,0 km/h (0 Bft) O-NO 69 0 min 0,000 mm 0,0 UV-I 23 W/m 0,2 C 1,7 C 0,0 km/h (0 Bft) 100,00 %
30.04.2016 06:36 1,7 C 89 % 1017,2 hPa 0,0 l/m 0,0 km/h (0 Bft) O-NO 69 0 min 0,000 mm 0,0 UV-I 23 W/m 0,1 C 1,7 C 0,0 km/h (0 Bft) 95,83 %
30.04.2016 06:37 1,7 C 89 % 1017,2 hPa 0,0 l/m 0,0 km/h (0 Bft) O-NO 69 0 min 0,000 mm 0,0 UV-I 23 W/m 0,1 C 1,7 C 0,0 km/h (0 Bft) 100,00 %
30.04.2016 06:38 1,7 C 89 % 1017,2 hPa 0,0 l/m 0,0 km/h (0 Bft) O-NO 69 0 min 0,000 mm 0,0 UV-I 23 W/m 0,1 C 1,7 C 0,0 km/h (0 Bft) 100,00 %
30.04.2016 06:39 1,7 C 90 % 1017,3 hPa 0,0 l/m 0,0 km/h (0 Bft) O-NO 69 0 min 0,000 mm 0,0 UV-I 24 W/m 0,2 C 1,7 C 0,0 km/h (0 Bft) 95,65 %
30.04.2016 06:40 1,7 C 90 % 1017,3 hPa 0,0 l/m 0,0 km/h (0 Bft) O-NO 69 0 min 0,000 mm 0,0 UV-I 25 W/m 0,2 C 1,7 C 0,0 km/h (0 Bft) 100,00 %
30.04.2016 06:41 1,7 C 90 % 1017,3 hPa 0,0 l/m 0,0 km/h (0 Bft) O-NO 69 0 min 0,000 mm 0,0 UV-I 25 W/m 0,2 C 1,7 C 0,0 km/h (0 Bft) 100,00 %
30.04.2016 06:42 1,7 C 90 % 1017,3 hPa 0,0 l/m 0,0 km/h (0 Bft) O-NO 69 0 min 0,000 mm 0,0 UV-I 25 W/m 0,2 C 1,7 C 0,0 km/h (0 Bft) 95,83 %
30.04.2016 06:43 1,7 C 90 % 1017,3 hPa 0,0 l/m 1,1 km/h (1 Bft) O-NO 69 0 min 0,000 mm 0,0 UV-I 25 W/m 0,2 C 1,7 C 3,2 km/h (1 Bft) 92,31 %
30.04.2016 06:44 1,7 C 90 % 1017,3 hPa 0,0 l/m 1,7 km/h (1 Bft) O-NO 69 0 min 0,000 mm 0,0 UV-I 25 W/m 0,2 C 1,7 C 3,2 km/h (1 Bft) 95,83 %
30.04.2016 06:45 1,8 C 90 % 1017,3 hPa 0,0 l/m 1,1 km/h (1 Bft) O-NO 69 0 min 0,000 mm 0,0 UV-I 25 W/m 0,3 C 1,8 C 3,2 km/h (1 Bft) 100,00 %
30.04.2016 06:46 1,8 C 90 % 1017,3 hPa 0,0 l/m 0,9 km/h (0 Bft) O-NO 69 0 min 0,000 mm 0,0 UV-I 26 W/m 0,3 C 1,8 C 1,6 km/h (1 Bft) 95,83 %
30.04.2016 06:47 1,9 C 90 % 1017,3 hPa 0,0 l/m 1,0 km/h (0 Bft) O-NO 69 0 min 0,000 mm 0,0 UV-I 26 W/m 0,4 C 1,9 C 1,6 km/h (1 Bft) 100,00 %
30.04.2016 06:48 2,0 C 90 % 1017,3 hPa 0,0 l/m 0,3 km/h (0 Bft) O-NO 69 0 min 0,000 mm 0,0 UV-I 26 W/m 0,5 C 2,0 C 1,6 km/h (1 Bft) 91,30 %
30.04.2016 06:49 2,0 C 89 % 1017,3 hPa 0,0 l/m 0,0 km/h (0 Bft) O-NO 69 0 min 0,000 mm 0,0 UV-I 26 W/m 0,4 C 2,0 C 0,0 km/h (0 Bft) 100,00 %
30.04.2016 06:50 2,1 C 89 % 1017,3 hPa 0,0 l/m 0,0 km/h (0 Bft) O-NO 69 0 min 0,000 mm 0,0 UV-I 26 W/m 0,5 C 2,1 C 0,0 km/h (0 Bft) 100,00 %
30.04.2016 06:51 2,1 C 90 % 1017,3 hPa 0,0 l/m 0,0 km/h (0 Bft) O-NO 69 0 min 0,000 mm 0,0 UV-I 26 W/m 0,6 C 2,1 C 0,0 km/h (0 Bft) 100,00 %
30.04.2016 06:52 2,2 C 90 % 1017,4 hPa 0,0 l/m 0,0 km/h (0 Bft) O-NO 69 0 min 0,000 mm 0,0 UV-I 26 W/m 0,7 C 2,2 C 0,0 km/h (0 Bft) 95,65 %
30.04.2016 06:53 2,2 C 89 % 1017,3 hPa 0,0 l/m 0,0 km/h (0 Bft) O-NO 69 0 min 0,000 mm 0,0 UV-I 33 W/m 0,6 C 2,2 C 0,0 km/h (0 Bft) 100,00 %
30.04.2016 06:54 2,3 C 89 % 1017,3 hPa 0,0 l/m 0,0 km/h (0 Bft) O-NO 69 0 min 0,000 mm 0,0 UV-I 33 W/m 0,7 C 2,3 C 0,0 km/h (0 Bft) 100,00 %
30.04.2016 06:55 2,3 C 89 % 1017,3 hPa 0,0 l/m 0,1 km/h (0 Bft) O-NO 69 0 min 0,000 mm 0,0 UV-I 28 W/m 0,7 C 2,3 C 1,6 km/h (1 Bft) 95,83 %
30.04.2016 06:56 2,3 C 89 % 1017,3 hPa 0,0 l/m 0,1 km/h (0 Bft) O-NO 69 0 min 0,000 mm 0,0 UV-I 29 W/m 0,7 C 2,3 C 1,6 km/h (1 Bft) 100,00 %
30.04.2016 06:57 2,4 C 89 % 1017,3 hPa 0,0 l/m 0,0 km/h (0 Bft) O-NO 69 0 min 0,000 mm 0,0 UV-I 30 W/m 0,8 C 2,4 C 0,0 km/h (0 Bft) 100,00 %
30.04.2016 06:58 2,4 C 89 % 1017,3 hPa 0,0 l/m 0,4 km/h (0 Bft) O-NO 69 0 min 0,000 mm 0,0 UV-I 42 W/m 0,8 C 2,4 C 1,6 km/h (1 Bft) 100,00 %
30.04.2016 06:59 2,5 C 89 % 1017,3 hPa 0,0 l/m 1,0 km/h (0 Bft) O-NO 69 0 min 0,000 mm 0,0 UV-I 72 W/m 0,9 C 2,5 C 3,2 km/h (1 Bft) 100,00 %
30.04.2016 07:00 2,5 C 89 % 1017,3 hPa 0,0 l/m 1,2 km/h (1 Bft) O-NO 69 0 min 0,000 mm 0,0 UV-I 96 W/m 0,9 C 2,5 C 1,6 km/h (1 Bft) 100,00 %
30.04.2016 07:02 2,5 C 89 % 1017,3 hPa 0,0 l/m 1,9 km/h (1 Bft) O-NO 69 0 min 0,000 mm 0,0 UV-I 104 W/m 0,9 C 2,5 C 3,2 km/h (1 Bft) 100,00 %
30.04.2016 07:03 2,5 C 89 % 1017,3 hPa 0,0 l/m 3,4 km/h (1 Bft) O-NO 69 0 min 0,000 mm 0,0 UV-I 105 W/m 0,9 C 2,5 C 4,8 km/h (1 Bft) 100,00 %
30.04.2016 07:04 2,5 C 89 % 1017,3 hPa 0,0 l/m 3,1 km/h (1 Bft) O-NO 69 0 min 0,000 mm 0,0 UV-I 107 W/m 0,9 C 2,5 C 4,8 km/h (1 Bft) 100,00 %
30.04.2016 07:05 2,6 C 89 % 1017,3 hPa 0,0 l/m 3,1 km/h (1 Bft) O-NO 75 0 min 0,000 mm 0,0 UV-I 109 W/m 1,0 C 2,6 C 6,4 km/h (2 Bft) 100,00 %
30.04.2016 07:06 2,7 C 89 % 1017,2 hPa 0,0 l/m 3,9 km/h (1 Bft) O-NO 73 0 min 0,000 mm 0,0 UV-I 112 W/m 1,1 C 2,7 C 4,8 km/h (1 Bft) 100,00 %
30.04.2016 07:07 2,9 C 89 % 1017,2 hPa 0,0 l/m 3,4 km/h (1 Bft) O-NO 73 1 min 0,000 mm 0,0 UV-I 116 W/m 1,3 C 2,9 C 4,8 km/h (1 Bft) 95,65 %
30.04.2016 07:08 3,1 C 89 % 1017,2 hPa 0,0 l/m 2,3 km/h (1 Bft) O-NO 73 1 min 0,000 mm 0,0 UV-I 120 W/m 1,5 C 3,1 C 3,2 km/h (1 Bft) 100,00 %
30.04.2016 07:09 3,3 C 88 % 1017,2 hPa 0,0 l/m 1,5 km/h (1 Bft) O-NO 73 1 min 0,000 mm 0,0 UV-I 124 W/m 1,5 C 3,3 C 3,2 km/h (1 Bft) 95,65 %
30.04.2016 07:10 3,5 C 88 % 1017,2 hPa 0,0 l/m 1,9 km/h (1 Bft) O-NO 73 1 min 0,000 mm 0,0 UV-I 130 W/m 1,7 C 3,5 C 3,2 km/h (1 Bft) 100,00 %
30.04.2016 07:11 3,6 C 87 % 1017,2 hPa 0,0 l/m 2,0 km/h (1 Bft) O-NO 61 1 min 0,000 mm 0,0 UV-I 136 W/m 1,6 C 3,6 C 3,2 km/h (1 Bft) 95,65 %
30.04.2016 07:12 3,8 C 88 % 1017,2 hPa 0,0 l/m 1,5 km/h (1 Bft) O-NO 61 1 min 0,000 mm 0,0 UV-I 141 W/m 2,0 C 3,8 C 3,2 km/h (1 Bft) 100,00 %
30.04.2016 07:13 3,9 C 88 % 1017,2 hPa 0,0 l/m 1,1 km/h (1 Bft) O-NO 61 1 min 0,000 mm 0,0 UV-I 146 W/m 2,1 C 3,9 C 1,6 km/h (1 Bft) 100,00 %
30.04.2016 07:14 3,9 C 87 % 1017,3 hPa 0,0 l/m 1,9 km/h (1 Bft) O-NO 61 1 min 0,000 mm 0,0 UV-I 152 W/m 1,9 C 3,9 C 4,8 km/h (1 Bft) 100,00 %
30.04.2016 07:15 4,1 C 87 % 1017,3 hPa 0,0 l/m 3,7 km/h (1 Bft) O-NO 69 1 min 0,000 mm 0,0 UV-I 157 W/m 2,1 C 4,1 C 4,8 km/h (1 Bft) 100,00 %
30.04.2016 07:16 4,1 C 86 % 1017,3 hPa 0,0 l/m 3,0 km/h (1 Bft) O-NO 58 1 min 0,000 mm 0,0 UV-I 162 W/m 2,0 C 4,1 C 4,8 km/h (1 Bft) 100,00 %
30.04.2016 07:17 4,2 C 85 % 1017,3 hPa 0,0 l/m 4,6 km/h (1 Bft) NO 51 1 min 0,000 mm 0,0 UV-I 168 W/m 1,9 C 4,2 C 6,4 km/h (2 Bft) 95,65 %
30.04.2016 07:18 4,2 C 84 % 1017,3 hPa 0,0 l/m 3,9 km/h (1 Bft) NO 51 1 min 0,000 mm 0,0 UV-I 171 W/m 1,7 C 4,2 C 6,4 km/h (2 Bft) 100,00 %
30.04.2016 07:19 4,3 C 84 % 1017,3 hPa 0,0 l/m 4,0 km/h (1 Bft) O-NO 67 1 min 0,000 mm 0,0 UV-I 174 W/m 1,8 C 4,3 C 4,8 km/h (1 Bft) 100,00 %
30.04.2016 07:20 4,3 C 83 % 1017,3 hPa 0,0 l/m 4,0 km/h (1 Bft) NO 48 1 min 0,000 mm 0,0 UV-I 177 W/m 1,7 C 4,3 C 6,4 km/h (2 Bft) 100,00 %
30.04.2016 07:21 4,3 C 83 % 1017,3 hPa 0,0 l/m 3,4 km/h (1 Bft) O 80 1 min 0,000 mm 0,0 UV-I 179 W/m 1,7 C 4,3 C 4,8 km/h (1 Bft) 100,00 %
30.04.2016 07:22 4,4 C 83 % 1017,3 hPa 0,0 l/m 3,8 km/h (1 Bft) NO 56 1 min 0,000 mm 0,0 UV-I 181 W/m 1,8 C 4,4 C 4,8 km/h (1 Bft) 95,83 %
30.04.2016 07:23 4,4 C 82 % 1017,3 hPa 0,0 l/m 3,8 km/h (1 Bft) NO 55 1 min 0,000 mm 0,0 UV-I 185 W/m 1,6 C 4,4 C 6,4 km/h (2 Bft) 100,00 %
30.04.2016 07:24 4,5 C 82 % 1017,3 hPa 0,0 l/m 4,8 km/h (1 Bft) NO 55 1 min 0,000 mm 0,0 UV-I 187 W/m 1,7 C 4,5 C 6,4 km/h (2 Bft) 100,00 %
30.04.2016 07:25 4,5 C 82 % 1017,3 hPa 0,0 l/m 4,4 km/h (1 Bft) O-NO 59 1 min 0,000 mm 0,0 UV-I 190 W/m 1,7 C 4,5 C 6,4 km/h (2 Bft) 100,00 %
30.04.2016 07:26 4,6 C 82 % 1017,3 hPa 0,0 l/m 5,0 km/h (1 Bft) NO 51 1 min 0,000 mm 0,0 UV-I 193 W/m 1,8 C 4,6 C 6,4 km/h (2 Bft) 95,65 %
30.04.2016 07:27 4,6 C 83 % 1017,3 hPa 0,0 l/m 5,0 km/h (1 Bft) O-NO 76 1 min 0,000 mm 0,0 UV-I 195 W/m 2,0 C 4,6 C 6,4 km/h (2 Bft) 100,00 %
30.04.2016 07:28 4,6 C 82 % 1017,3 hPa 0,0 l/m 4,3 km/h (1 Bft) O-NO 65 1 min 0,000 mm 0,0 UV-I 199 W/m 1,8 C 4,6 C 6,4 km/h (2 Bft) 100,00 %
30.04.2016 07:29 4,7 C 83 % 1017,3 hPa 0,0 l/m 3,1 km/h (1 Bft) NO 34 1 min 0,000 mm 0,0 UV-I 201 W/m 2,1 C 4,7 C 6,4 km/h (2 Bft) 100,00 %
30.04.2016 07:30 4,7 C 83 % 1017,3 hPa 0,0 l/m 3,7 km/h (1 Bft) NO 56 1 min 0,000 mm 0,0 UV-I 205 W/m 2,1 C 4,7 C 4,8 km/h (1 Bft) 100,00 %
30.04.2016 07:31 4,7 C 82 % 1017,3 hPa 0,0 l/m 4,4 km/h (1 Bft) O-NO 63 1 min 0,000 mm 0,0 UV-I 207 W/m 1,9 C 4,7 C 4,8 km/h (1 Bft) 100,00 %
30.04.2016 07:32 4,7 C 82 % 1017,3 hPa 0,0 l/m 4,9 km/h (1 Bft) O-NO 70 1 min 0,000 mm 0,0 UV-I 207 W/m 1,9 C 4,7 C 8,0 km/h (2 Bft) 86,96 %
30.04.2016 07:33 4,8 C 82 % 1017,4 hPa 0,0 l/m 6,0 km/h (2 Bft) O-NO 78 1 min 0,000 mm 0,0 UV-I 212 W/m 2,0 C 4,8 C 8,0 km/h (2 Bft) 100,00 %
30.04.2016 07:34 4,8 C 82 % 1017,4 hPa 0,0 l/m 4,1 km/h (1 Bft) O-NO 58 1 min 0,000 mm 0,0 UV-I 214 W/m 2,0 C 4,8 C 6,4 km/h (2 Bft) 100,00 %
30.04.2016 07:35 4,9 C 82 % 1017,4 hPa 0,0 l/m 4,9 km/h (1 Bft) NO 55 1 min 0,000 mm 0,0 UV-I 217 W/m 2,1 C 4,9 C 6,4 km/h (2 Bft) 100,00 %
30.04.2016 07:36 4,9 C 82 % 1017,4 hPa 0,0 l/m 4,5 km/h (1 Bft) O-NO 65 1 min 0,000 mm 0,0 UV-I 219 W/m 2,1 C 4,9 C 6,4 km/h (2 Bft) 100,00 %
30.04.2016 07:37 5,0 C 81 % 1017,4 hPa 0,0 l/m 5,8 km/h (2 Bft) O-NO 57 1 min 0,000 mm 0,0 UV-I 222 W/m 2,0 C 5,0 C 8,0 km/h (2 Bft) 100,00 %
30.04.2016 07:38 5,1 C 81 % 1017,4 hPa 0,0 l/m 6,5 km/h (2 Bft) O-NO 62 1 min 0,000 mm 0,0 UV-I 226 W/m 2,1 C 5,0 C 8,0 km/h (2 Bft) 96,15 %
30.04.2016 07:39 5,1 C 80 % 1017,4 hPa 0,0 l/m 3,8 km/h (1 Bft) O-NO 67 1 min 0,000 mm 0,0 UV-I 229 W/m 1,9 C 5,1 C 6,4 km/h (2 Bft) 100,00 %
30.04.2016 07:40 5,1 C 80 % 1017,4 hPa 0,0 l/m 5,6 km/h (1 Bft) NO 55 1 min 0,000 mm 0,0 UV-I 231 W/m 1,9 C 5,1 C 8,0 km/h (2 Bft) 100,00 %
30.04.2016 07:41 5,2 C 80 % 1017,4 hPa 0,0 l/m 5,2 km/h (1 Bft) O-NO 65 1 min 0,000 mm 0,0 UV-I 235 W/m 2,0 C 5,2 C 6,4 km/h (2 Bft) 100,00 %
30.04.2016 07:42 5,2 C 81 % 1017,4 hPa 0,0 l/m 4,6 km/h (1 Bft) NO 51 1 min 0,000 mm 0,0 UV-I 238 W/m 2,2 C 5,2 C 6,4 km/h (2 Bft) 95,65 %
30.04.2016 07:43 5,3 C 80 % 1017,5 hPa 0,0 l/m 3,0 km/h (1 Bft) NO 51 1 min 0,000 mm 0,0 UV-I 240 W/m 2,1 C 5,3 C 4,8 km/h (1 Bft) 100,00 %
30.04.2016 07:44 5,3 C 80 % 1017,4 hPa 0,0 l/m 5,5 km/h (1 Bft) O-NO 65 1 min 0,000 mm 0,0 UV-I 243 W/m 2,1 C 5,3 C 6,4 km/h (2 Bft) 100,00 %
30.04.2016 07:45 5,3 C 80 % 1017,4 hPa 0,0 l/m 4,7 km/h (1 Bft) NO 47 1 min 0,000 mm 0,0 UV-I 246 W/m 2,1 C 5,3 C 6,4 km/h (2 Bft) 100,00 %
30.04.2016 07:46 5,4 C 80 % 1017,4 hPa 0,0 l/m 4,8 km/h (1 Bft) NO 52 1 min 0,000 mm 0,0 UV-I 248 W/m 2,2 C 5,4 C 6,4 km/h (2 Bft) 100,00 %
30.04.2016 07:47 5,4 C 80 % 1017,5 hPa 0,0 l/m 5,3 km/h (1 Bft) NO 54 1 min 0,000 mm 0,0 UV-I 248 W/m 2,2 C 5,4 C 6,4 km/h (2 Bft) 100,00 %
30.04.2016 07:48 5,5 C 80 % 1017,4 hPa 0,0 l/m 5,0 km/h (1 Bft) O-NO 59 1 min 0,000 mm 0,2 UV-I 247 W/m 2,3 C 5,5 C 6,4 km/h (2 Bft) 100,00 %
30.04.2016 07:49 5,6 C 79 % 1017,4 hPa 0,0 l/m 3,6 km/h (1 Bft) NO 55 1 min 0,000 mm 0,5 UV-I 246 W/m 2,3 C 5,6 C 4,8 km/h (1 Bft) 100,00 %
30.04.2016 07:50 5,6 C 79 % 1017,4 hPa 0,0 l/m 5,0 km/h (1 Bft) O-NO 59 1 min 0,000 mm 0,5 UV-I 244 W/m 2,3 C 5,6 C 6,4 km/h (2 Bft) 100,00 %
30.04.2016 07:51 5,7 C 79 % 1017,4 hPa 0,0 l/m 4,4 km/h (1 Bft) O-NO 67 1 min 0,000 mm 0,5 UV-I 243 W/m 2,3 C 5,7 C 6,4 km/h (2 Bft) 100,00 %
30.04.2016 07:52 5,7 C 79 % 1017,4 hPa 0,0 l/m 5,0 km/h (1 Bft) O-NO 65 1 min 0,000 mm 0,5 UV-I 240 W/m 2,3 C 5,7 C 6,4 km/h (2 Bft) 100,00 %
30.04.2016 07:53 5,7 C 79 % 1017,4 hPa 0,0 l/m 6,2 km/h (2 Bft) NO 51 1 min 0,000 mm 0,5 UV-I 238 W/m 2,3 C 5,7 C 8,0 km/h (2 Bft) 100,00 %
30.04.2016 07:54 5,8 C 79 % 1017,3 hPa 0,0 l/m 5,6 km/h (1 Bft) O-NO 59 1 min 0,000 mm 0,5 UV-I 235 W/m 2,4 C 5,8 C 6,4 km/h (2 Bft) 100,00 %
30.04.2016 07:55 5,8 C 79 % 1017,3 hPa 0,0 l/m 4,8 km/h (1 Bft) NO 54 1 min 0,000 mm 0,5 UV-I 233 W/m 2,4 C 5,8 C 6,4 km/h (2 Bft) 100,00 %
30.04.2016 07:56 5,8 C 79 % 1017,4 hPa 0,0 l/m 5,8 km/h (2 Bft) NO 48 1 min 0,000 mm 0,5 UV-I 230 W/m 2,4 C 5,8 C 6,4 km/h (2 Bft) 100,00 %
30.04.2016 07:57 5,8 C 79 % 1017,3 hPa 0,0 l/m 5,9 km/h (2 Bft) O-NO 60 1 min 0,000 mm 0,5 UV-I 230 W/m 2,4 C 5,8 C 8,0 km/h (2 Bft) 100,00 %
30.04.2016 07:58 5,9 C 78 % 1017,3 hPa 0,0 l/m 6,5 km/h (2 Bft) NO 40 1 min 0,000 mm 0,5 UV-I 230 W/m 2,4 C 5,8 C 8,0 km/h (2 Bft) 100,00 %
30.04.2016 07:59 5,9 C 79 % 1017,4 hPa 0,0 l/m 6,9 km/h (2 Bft) NO 41 1 min 0,000 mm 0,5 UV-I 231 W/m 2,5 C 5,5 C 8,0 km/h (2 Bft) 100,00 %
30.04.2016 08:00 5,9 C 78 % 1017,3 hPa 0,0 l/m 6,0 km/h (2 Bft) NO 51 1 min 0,076 mm 0,6 UV-I 233 W/m 2,4 C 5,9 C 8,0 km/h (2 Bft) 100,00 %
30.04.2016 08:02 6,1 C 78 % 1017,3 hPa 0,0 l/m 5,8 km/h (2 Bft) NO 49 2 min 0,000 mm 0,6 UV-I 238 W/m 2,6 C 6,1 C 8,0 km/h (2 Bft) 100,00 %
30.04.2016 08:03 6,1 C 77 % 1017,3 hPa 0,0 l/m 5,4 km/h (1 Bft) NO 49 1 min 0,000 mm 0,6 UV-I 245 W/m 2,4 C 6,1 C 6,4 km/h (2 Bft) 95,65 %
30.04.2016 08:04 6,1 C 78 % 1017,3 hPa 0,0 l/m 3,8 km/h (1 Bft) NO 44 1 min 0,000 mm 0,6 UV-I 253 W/m 2,6 C 6,1 C 4,8 km/h (1 Bft) 100,00 %
30.04.2016 08:05 6,1 C 78 % 1017,3 hPa 0,0 l/m 6,2 km/h (2 Bft) O-NO 78 1 min 0,000 mm 0,6 UV-I 260 W/m 2,6 C 6,1 C 8,0 km/h (2 Bft) 100,00 %
30.04.2016 08:06 6,2 C 77 % 1017,3 hPa 0,0 l/m 5,8 km/h (2 Bft) NO 50 1 min 0,000 mm 0,6 UV-I 268 W/m 2,5 C 6,2 C 9,7 km/h (2 Bft) 100,00 %
30.04.2016 08:07 6,2 C 77 % 1017,3 hPa 0,0 l/m 7,2 km/h (2 Bft) O-NO 67 1 min 0,000 mm 0,6 UV-I 277 W/m 2,5 C 5,5 C 8,0 km/h (2 Bft) 100,00 %
30.04.2016 08:08 6,2 C 77 % 1017,3 hPa 0,0 l/m 7,7 km/h (2 Bft) O-NO 57 1 min 0,000 mm 0,6 UV-I 286 W/m 2,5 C 5,1 C 12,9 km/h (3 Bft) 100,00 %
30.04.2016 08:09 6,3 C 76 % 1017,3 hPa 0,0 l/m 8,9 km/h (2 Bft) NO 53 1 min 0,000 mm 0,6 UV-I 296 W/m 2,4 C 4,3 C 14,5 km/h (3 Bft) 100,00 %
30.04.2016 08:10 6,3 C 77 % 1017,3 hPa 0,0 l/m 7,9 km/h (2 Bft) NO 44 1 min 0,000 mm 0,7 UV-I 304 W/m 2,6 C 5,0 C 9,7 km/h (2 Bft) 95,65 %
30.04.2016 08:11 6,3 C 78 % 1017,2 hPa 0,0 l/m 6,2 km/h (2 Bft) O-NO 66 1 min 0,000 mm 0,7 UV-I 311 W/m 2,8 C 6,3 C 8,0 km/h (2 Bft) 100,00 %
30.04.2016 08:12 6,4 C 76 % 1017,3 hPa 0,0 l/m 7,4 km/h (2 Bft) O-NO 57 1 min 0,000 mm 0,7 UV-I 320 W/m 2,5 C 5,6 C 12,9 km/h (3 Bft) 100,00 %
30.04.2016 08:13 6,4 C 76 % 1017,2 hPa 0,0 l/m 8,0 km/h (2 Bft) NO 51 1 min 0,000 mm 0,7 UV-I 326 W/m 2,5 C 5,1 C 9,7 km/h (2 Bft) 100,00 %
30.04.2016 08:14 6,4 C 76 % 1017,2 hPa 0,0 l/m 8,8 km/h (2 Bft) O-NO 62 1 min 0,000 mm 0,7 UV-I 330 W/m 2,5 C 4,5 C 14,5 km/h (3 Bft) 100,00 %
30.04.2016 08:15 6,5 C 76 % 1017,2 hPa 0,0 l/m 8,2 km/h (2 Bft) O-NO 60 1 min 0,000 mm 0,7 UV-I 335 W/m 2,6 C 5,0 C 11,3 km/h (2 Bft) 100,00 %
30.04.2016 08:16 6,5 C 76 % 1017,3 hPa 0,0 l/m 6,0 km/h (2 Bft) O-NO 61 1 min 0,000 mm 0,7 UV-I 338 W/m 2,6 C 6,5 C 8,0 km/h (2 Bft) 100,00 %
30.04.2016 08:17 6,5 C 76 % 1017,3 hPa 0,0 l/m 6,1 km/h (2 Bft) O 98 1 min 0,000 mm 0,7 UV-I 339 W/m 2,6 C 6,5 C 8,0 km/h (2 Bft) 100,00 %
30.04.2016 08:18 6,6 C 77 % 1017,2 hPa 0,0 l/m 7,9 km/h (2 Bft) O-NO 69 1 min 0,000 mm 0,7 UV-I 340 W/m 2,9 C 5,4 C 9,7 km/h (2 Bft) 100,00 %
30.04.2016 08:19 6,7 C 76 % 1017,3 hPa 0,0 l/m 6,8 km/h (2 Bft) O-NO 76 1 min 0,000 mm 0,8 UV-I 342 W/m 2,8 C 6,4 C 9,7 km/h (2 Bft) 95,83 %
30.04.2016 08:20 6,7 C 76 % 1017,3 hPa 0,0 l/m 7,3 km/h (2 Bft) O-NO 71 1 min 0,000 mm 0,8 UV-I 343 W/m 2,8 C 6,0 C 11,3 km/h (2 Bft) 100,00 %
30.04.2016 08:21 6,8 C 76 % 1017,2 hPa 0,0 l/m 7,6 km/h (2 Bft) O-NO 71 1 min 0,000 mm 0,8 UV-I 343 W/m 2,9 C 5,8 C 12,9 km/h (3 Bft) 95,83 %
30.04.2016 08:22 6,8 C 76 % 1017,2 hPa 0,0 l/m 7,2 km/h (2 Bft) NO 55 1 min 0,000 mm 0,8 UV-I 343 W/m 2,9 C 6,1 C 9,7 km/h (2 Bft) 96,15 %
30.04.2016 08:23 6,8 C 75 % 1017,2 hPa 0,0 l/m 5,8 km/h (2 Bft) NO 45 1 min 0,000 mm 0,8 UV-I 343 W/m 2,7 C 6,8 C 8,0 km/h (2 Bft) 95,83 %
30.04.2016 08:24 6,9 C 77 % 1017,2 hPa 0,0 l/m 5,1 km/h (1 Bft) O-NO 59 1 min 0,000 mm 0,8 UV-I 343 W/m 3,2 C 6,9 C 8,0 km/h (2 Bft) 100,00 %
30.04.2016 08:25 7,0 C 76 % 1017,3 hPa 0,0 l/m 4,7 km/h (1 Bft) O-NO 78 1 min 0,000 mm 0,8 UV-I 342 W/m 3,1 C 7,0 C 6,4 km/h (2 Bft) 95,65 %
30.04.2016 08:26 7,1 C 76 % 1017,3 hPa 0,0 l/m 6,2 km/h (2 Bft) NO 47 1 min 0,000 mm 0,8 UV-I 339 W/m 3,2 C 7,1 C 8,0 km/h (2 Bft) 100,00 %
30.04.2016 08:27 7,1 C 76 % 1017,3 hPa 0,0 l/m 5,6 km/h (1 Bft) O-NO 61 1 min 0,000 mm 0,8 UV-I 341 W/m 3,2 C 7,1 C 8,0 km/h (2 Bft) 95,65 %
30.04.2016 08:28 7,2 C 74 % 1017,2 hPa 0,0 l/m 5,0 km/h (1 Bft) O-NO 67 1 min 0,000 mm 0,9 UV-I 339 W/m 2,9 C 7,2 C 8,0 km/h (2 Bft) 100,00 %
30.04.2016 08:29 7,2 C 74 % 1017,2 hPa 0,0 l/m 4,5 km/h (1 Bft) O-NO 71 1 min 0,000 mm 0,9 UV-I 338 W/m 2,9 C 7,2 C 6,4 km/h (2 Bft) 95,65 %
30.04.2016 08:30 7,2 C 76 % 1017,2 hPa 0,0 l/m 6,2 km/h (2 Bft) NO 44 1 min 0,000 mm 0,9 UV-I 335 W/m 3,3 C 7,2 C 9,7 km/h (2 Bft) 96,30 %
30.04.2016 08:31 7,3 C 77 % 1017,2 hPa 0,0 l/m 7,9 km/h (2 Bft) O-NO 64 1 min 0,000 mm 0,9 UV-I 330 W/m 3,5 C 6,1 C 9,7 km/h (2 Bft) 100,00 %
30.04.2016 08:32 7,4 C 76 % 1017,2 hPa 0,0 l/m 6,0 km/h (2 Bft) NO 37 1 min 0,000 mm 0,9 UV-I 322 W/m 3,5 C 7,4 C 8,0 km/h (2 Bft) 95,83 %
30.04.2016 08:33 7,4 C 76 % 1017,2 hPa 0,0 l/m 4,6 km/h (1 Bft) NO 34 1 min 0,000 mm 0,9 UV-I 314 W/m 3,5 C 7,4 C 6,4 km/h (2 Bft) 95,65 %
30.04.2016 08:34 7,5 C 75 % 1017,2 hPa 0,0 l/m 6,7 km/h (2 Bft) NO 44 1 min 0,000 mm 0,9 UV-I 305 W/m 3,4 C 7,3 C 9,7 km/h (2 Bft) 95,83 %
30.04.2016 08:35 7,6 C 76 % 1017,2 hPa 0,0 l/m 7,3 km/h (2 Bft) N-NO 28 1 min 0,000 mm 0,9 UV-I 298 W/m 3,6 C 6,9 C 9,7 km/h (2 Bft) 95,65 %
30.04.2016 08:36 7,7 C 76 % 1017,2 hPa 0,0 l/m 6,0 km/h (2 Bft) NO 34 1 min 0,000 mm 1,0 UV-I 288 W/m 3,7 C 7,7 C 8,0 km/h (2 Bft) 95,83 %
30.04.2016 08:37 7,7 C 76 % 1017,2 hPa 0,0 l/m 7,3 km/h (2 Bft) NO 51 1 min 0,000 mm 1,0 UV-I 279 W/m 3,7 C 7,0 C 11,3 km/h (2 Bft) 95,65 %
30.04.2016 08:38 7,8 C 75 % 1017,2 hPa 0,0 l/m 6,9 km/h (2 Bft) NO 42 1 min 0,000 mm 1,0 UV-I 268 W/m 3,7 C 7,4 C 9,7 km/h (2 Bft) 95,83 %
30.04.2016 08:39 7,8 C 75 % 1017,2 hPa 0,0 l/m 6,0 km/h (2 Bft) N-NO 32 1 min 0,000 mm 1,0 UV-I 259 W/m 3,7 C 7,8 C 9,7 km/h (2 Bft) 95,65 %
30.04.2016 08:40 7,9 C 75 % 1017,1 hPa 0,0 l/m 6,4 km/h (2 Bft) O-NO 65 1 min 0,000 mm 1,0 UV-I 253 W/m 3,7 C 7,9 C 9,7 km/h (2 Bft) 96,30 %
30.04.2016 08:41 7,8 C 73 % 1017,1 hPa 0,0 l/m 4,5 km/h (1 Bft) NO 54 0 min 0,000 mm 1,0 UV-I 250 W/m 3,3 C 7,8 C 6,4 km/h (2 Bft) 84,62 %
30.04.2016 08:42 7,8 C 73 % 1017,1 hPa 0,0 l/m 6,3 km/h (2 Bft) O-NO 64 0 min 0,000 mm 1,0 UV-I 247 W/m 3,3 C 7,8 C 9,7 km/h (2 Bft) 95,83 %
30.04.2016 08:43 7,8 C 73 % 1017,1 hPa 0,0 l/m 4,7 km/h (1 Bft) NO 34 0 min 0,000 mm 1,1 UV-I 248 W/m 3,3 C 7,8 C 8,0 km/h (2 Bft) 95,83 %
30.04.2016 08:44 7,9 C 73 % 1017,1 hPa 0,0 l/m 6,8 km/h (2 Bft) O-NO 63 0 min 0,000 mm 1,1 UV-I 253 W/m 3,4 C 7,6 C 9,7 km/h (2 Bft) 100,00 %
30.04.2016 08:45 7,9 C 73 % 1017,1 hPa 0,0 l/m 7,4 km/h (2 Bft) O-NO 58 1 min 0,000 mm 1,1 UV-I 260 W/m 3,4 C 7,1 C 9,7 km/h (2 Bft) 95,83 %
30.04.2016 08:46 7,9 C 72 % 1017,1 hPa 0,0 l/m 10,2 km/h (2 Bft) O-NO 70 1 min 0,000 mm 1,1 UV-I 268 W/m 3,2 C 5,1 C 14,5 km/h (3 Bft) 100,00 %
30.04.2016 08:47 7,9 C 73 % 1017,2 hPa 0,0 l/m 7,1 km/h (2 Bft) NO 51 1 min 0,000 mm 1,1 UV-I 276 W/m 3,4 C 7,3 C 9,7 km/h (2 Bft) 95,83 %
30.04.2016 08:48 8,0 C 72 % 1017,1 hPa 0,0 l/m 7,3 km/h (2 Bft) O-NO 64 1 min 0,000 mm 1,1 UV-I 285 W/m 3,3 C 7,3 C 14,5 km/h (3 Bft) 91,30 %
30.04.2016 08:49 8,1 C 71 % 1017,1 hPa 0,0 l/m 11,1 km/h (2 Bft) O-NO 66 1 min 0,000 mm 1,1 UV-I 297 W/m 3,2 C 4,8 C 14,5 km/h (3 Bft) 95,83 %
30.04.2016 08:50 8,0 C 71 % 1017,1 hPa 0,0 l/m 5,3 km/h (1 Bft) NO 38 1 min 0,000 mm 1,2 UV-I 309 W/m 3,1 C 8,0 C 8,0 km/h (2 Bft) 96,15 %
30.04.2016 08:51 8,1 C 72 % 1017,1 hPa 0,0 l/m 6,8 km/h (2 Bft) O-NO 59 1 min 0,000 mm 1,2 UV-I 319 W/m 3,4 C 7,8 C 9,7 km/h (2 Bft) 100,00 %
30.04.2016 08:52 8,2 C 73 % 1017,1 hPa 0,0 l/m 6,6 km/h (2 Bft) O-NO 74 1 min 0,000 mm 1,2 UV-I 330 W/m 3,7 C 8,1 C 8,0 km/h (2 Bft) 95,65 %
30.04.2016 08:53 8,2 C 71 % 1017,1 hPa 0,0 l/m 6,0 km/h (2 Bft) O 79 1 min 0,000 mm 1,2 UV-I 342 W/m 3,3 C 8,2 C 8,0 km/h (2 Bft) 100,00 %
30.04.2016 08:54 8,2 C 71 % 1017,1 hPa 0,0 l/m 6,6 km/h (2 Bft) O-NO 69 1 min 0,000 mm 1,2 UV-I 354 W/m 3,3 C 8,1 C 9,7 km/h (2 Bft) 86,96 %
30.04.2016 08:55 8,2 C 71 % 1017,1 hPa 0,0 l/m 9,2 km/h (2 Bft) NO 39 1 min 0,000 mm 1,2 UV-I 366 W/m 3,3 C 6,1 C 14,5 km/h (3 Bft) 100,00 %
30.04.2016 08:56 8,3 C 73 % 1017,1 hPa 0,0 l/m 9,3 km/h (2 Bft) O-NO 59 1 min 0,000 mm 1,2 UV-I 375 W/m 3,8 C 6,2 C 14,5 km/h (3 Bft) 100,00 %
30.04.2016 08:57 8,4 C 71 % 1017,1 hPa 0,0 l/m 9,0 km/h (2 Bft) NO 34 1 min 0,000 mm 1,2 UV-I 385 W/m 3,5 C 6,5 C 14,5 km/h (3 Bft) 100,00 %
30.04.2016 08:58 8,6 C 73 % 1017,1 hPa 0,0 l/m 9,8 km/h (2 Bft) NO 36 1 min 0,000 mm 1,3 UV-I 393 W/m 4,0 C 6,2 C 14,5 km/h (3 Bft) 100,00 %
30.04.2016 08:59 8,6 C 72 % 1017,1 hPa 0,0 l/m 7,8 km/h (2 Bft) N-NO 30 1 min 0,000 mm 1,3 UV-I 400 W/m 3,8 C 7,5 C 9,7 km/h (2 Bft) 100,00 %
30.04.2016 09:00 8,7 C 72 % 1017,1 hPa 0,0 l/m 10,2 km/h (2 Bft) NO 49 1 min 0,152 mm 1,3 UV-I 408 W/m 3,9 C 6,0 C 14,5 km/h (3 Bft) 86,96 %
30.04.2016 09:02 8,6 C 68 % 1017,0 hPa 0,0 l/m 8,5 km/h (2 Bft) NO 42 2 min 0,000 mm 1,3 UV-I 421 W/m 3,0 C 7,0 C 11,3 km/h (2 Bft) 97,87 %
30.04.2016 09:03 8,6 C 70 % 1017,1 hPa 0,0 l/m 8,8 km/h (2 Bft) O-NO 71 1 min 0,000 mm 1,3 UV-I 433 W/m 3,4 C 6,8 C 12,9 km/h (3 Bft) 95,83 %
30.04.2016 09:04 8,7 C 70 % 1017,1 hPa 0,0 l/m 12,3 km/h (3 Bft) O-NO 59 1 min 0,000 mm 1,3 UV-I 440 W/m 3,5 C 4,9 C 14,5 km/h (3 Bft) 100,00 %
30.04.2016 09:05 8,7 C 69 % 1017,1 hPa 0,0 l/m 7,8 km/h (2 Bft) O-NO 58 1 min 0,000 mm 1,3 UV-I 446 W/m 3,3 C 7,6 C 14,5 km/h (3 Bft) 100,00 %
30.04.2016 09:06 8,7 C 69 % 1017,1 hPa 0,0 l/m 11,6 km/h (2 Bft) NO 55 1 min 0,000 mm 1,4 UV-I 448 W/m 3,3 C 5,2 C 16,1 km/h (3 Bft) 95,65 %
30.04.2016 09:07 8,7 C 69 % 1017,1 hPa 0,0 l/m 11,8 km/h (2 Bft) NO 55 1 min 0,000 mm 1,4 UV-I 461 W/m 3,3 C 5,1 C 16,1 km/h (3 Bft) 100,00 %
30.04.2016 09:08 8,7 C 69 % 1017,1 hPa 0,0 l/m 9,7 km/h (2 Bft) NO 51 1 min 0,000 mm 1,4 UV-I 468 W/m 3,3 C 6,3 C 14,5 km/h (3 Bft) 100,00 %
30.04.2016 09:09 8,7 C 69 % 1017,1 hPa 0,0 l/m 7,0 km/h (2 Bft) O-NO 59 1 min 0,000 mm 1,4 UV-I 475 W/m 3,3 C 8,2 C 9,7 km/h (2 Bft) 100,00 %
30.04.2016 09:10 8,7 C 70 % 1017,1 hPa 0,0 l/m 8,6 km/h (2 Bft) NO 53 1 min 0,000 mm 1,4 UV-I 480 W/m 3,5 C 7,1 C 14,5 km/h (3 Bft) 100,00 %
30.04.2016 09:11 8,8 C 70 % 1017,1 hPa 0,0 l/m 7,0 km/h (2 Bft) N-NO 30 1 min 0,000 mm 1,4 UV-I 486 W/m 3,6 C 8,3 C 9,7 km/h (2 Bft) 100,00 %
30.04.2016 09:12 8,8 C 70 % 1017,1 hPa 0,0 l/m 7,2 km/h (2 Bft) NO 44 1 min 0,000 mm 1,5 UV-I 491 W/m 3,6 C 8,2 C 9,7 km/h (2 Bft) 100,00 %
30.04.2016 09:13 8,9 C 69 % 1017,1 hPa 0,0 l/m 7,9 km/h (2 Bft) O-NO 57 1 min 0,000 mm 1,5 UV-I 496 W/m 3,5 C 7,8 C 9,7 km/h (2 Bft) 92,86 %
30.04.2016 09:14 8,9 C 70 % 1017,2 hPa 0,0 l/m 8,6 km/h (2 Bft) O-NO 78 1 min 0,000 mm 1,5 UV-I 500 W/m 3,7 C 7,3 C 14,5 km/h (3 Bft) 100,00 %
30.04.2016 09:15 9,1 C 71 % 1017,2 hPa 0,0 l/m 8,5 km/h (2 Bft) O 85 1 min 0,000 mm 1,5 UV-I 504 W/m 4,1 C 7,6 C 12,9 km/h (3 Bft) 100,00 %
30.04.2016 09:16 9,1 C 69 % 1017,1 hPa 0,0 l/m 7,2 km/h (2 Bft) O-NO 76 1 min 0,000 mm 1,5 UV-I 507 W/m 3,7 C 8,5 C 11,3 km/h (2 Bft) 100,00 %
30.04.2016 09:17 9,2 C 70 % 1017,2 hPa 0,0 l/m 9,1 km/h (2 Bft) NO 42 1 min 0,000 mm 1,5 UV-I 511 W/m 4,0 C 7,3 C 14,5 km/h (3 Bft) 100,00 %
30.04.2016 09:18 9,2 C 68 % 1017,1 hPa 0,0 l/m 11,7 km/h (2 Bft) NO 49 1 min 0,000 mm 1,5 UV-I 513 W/m 3,6 C 5,8 C 16,1 km/h (3 Bft) 100,00 %
30.04.2016 09:19 9,3 C 68 % 1017,2 hPa 0,0 l/m 7,8 km/h (2 Bft) O-NO 66 1 min 0,000 mm 1,6 UV-I 515 W/m 3,7 C 8,3 C 9,7 km/h (2 Bft) 96,15 %
30.04.2016 09:20 9,3 C 67 % 1017,1 hPa 0,0 l/m 10,9 km/h (2 Bft) O-SO 106 1 min 0,000 mm 1,6 UV-I 518 W/m 3,5 C 6,3 C 16,1 km/h (3 Bft) 100,00 %
30.04.2016 09:21 9,3 C 68 % 1017,1 hPa 0,0 l/m 7,6 km/h (2 Bft) O-NO 74 1 min 0,000 mm 1,6 UV-I 519 W/m 3,7 C 8,4 C 14,5 km/h (3 Bft) 100,00 %
30.04.2016 09:22 9,4 C 69 % 1017,1 hPa 0,0 l/m 5,6 km/h (1 Bft) O 83 1 min 0,000 mm 1,6 UV-I 522 W/m 4,0 C 9,4 C 11,3 km/h (2 Bft) 100,00 %
30.04.2016 09:23 9,5 C 69 % 1017,1 hPa 0,0 l/m 9,1 km/h (2 Bft) NO 45 1 min 0,000 mm 1,6 UV-I 526 W/m 4,1 C 7,6 C 14,5 km/h (3 Bft) 96,15 %
30.04.2016 09:24 9,6 C 70 % 1017,1 hPa 0,0 l/m 11,6 km/h (2 Bft) NO 50 1 min 0,000 mm 1,6 UV-I 527 W/m 4,4 C 6,3 C 16,1 km/h (3 Bft) 100,00 %
30.04.2016 09:25 9,6 C 69 % 1017,1 hPa 0,0 l/m 10,3 km/h (2 Bft) NO 45 1 min 0,000 mm 1,7 UV-I 531 W/m 4,2 C 7,0 C 16,1 km/h (3 Bft) 100,00 %
30.04.2016 09:26 9,7 C 68 % 1017,1 hPa 0,0 l/m 12,0 km/h (2 Bft) O-NO 58 1 min 0,000 mm 1,7 UV-I 533 W/m 4,1 C 6,2 C 16,1 km/h (3 Bft) 100,00 %
30.04.2016 09:27 9,6 C 66 % 1017,1 hPa 0,0 l/m 11,1 km/h (2 Bft) O-NO 63 1 min 0,000 mm 1,7 UV-I 535 W/m 3,6 C 6,5 C 14,5 km/h (3 Bft) 100,00 %
30.04.2016 09:28 9,6 C 66 % 1017,1 hPa 0,0 l/m 9,9 km/h (2 Bft) O-NO 69 1 min 0,000 mm 1,7 UV-I 538 W/m 3,6 C 7,2 C 12,9 km/h (3 Bft) 100,00 %
30.04.2016 09:29 9,6 C 68 % 1017,1 hPa 0,0 l/m 8,4 km/h (2 Bft) NO 42 1 min 0,000 mm 1,7 UV-I 542 W/m 4,0 C 8,2 C 12,9 km/h (3 Bft) 100,00 %
30.04.2016 09:30 9,7 C 69 % 1017,1 hPa 0,0 l/m 9,0 km/h (2 Bft) NO 34 1 min 0,000 mm 1,7 UV-I 543 W/m 4,3 C 7,9 C 12,9 km/h (3 Bft) 100,00 %
30.04.2016 09:31 9,8 C 68 % 1017,1 hPa 0,0 l/m 8,8 km/h (2 Bft) NO 36 1 min 0,000 mm 1,8 UV-I 546 W/m 4,2 C 8,1 C 11,3 km/h (2 Bft) 100,00 %
30.04.2016 09:32 9,8 C 70 % 1017,1 hPa 0,0 l/m 9,4 km/h (2 Bft) NO 38 1 min 0,000 mm 1,8 UV-I 549 W/m 4,6 C 7,7 C 16,1 km/h (3 Bft) 100,00 %
30.04.2016 09:33 10,0 C 69 % 1017,1 hPa 0,0 l/m 8,8 km/h (2 Bft) NO 48 1 min 0,000 mm 1,8 UV-I 552 W/m 4,6 C 8,3 C 12,9 km/h (3 Bft) 96,43 %
30.04.2016 09:34 10,1 C 67 % 1017,1 hPa 0,0 l/m 7,1 km/h (2 Bft) NO 46 1 min 0,000 mm 1,8 UV-I 554 W/m 4,3 C 9,6 C 11,3 km/h (2 Bft) 100,00 %
30.04.2016 09:35 10,1 C 67 % 1017,1 hPa 0,0 l/m 9,6 km/h (2 Bft) NO 35 1 min 0,000 mm 1,8 UV-I 556 W/m 4,3 C 7,9 C 14,5 km/h (3 Bft) 100,00 %
30.04.2016 09:36 10,2 C 67 % 1017,1 hPa 0,0 l/m 9,0 km/h (2 Bft) NO 42 1 min 0,000 mm 1,8 UV-I 559 W/m 4,4 C 8,4 C 14,5 km/h (3 Bft) 100,00 %
30.04.2016 09:37 10,2 C 69 % 1017,1 hPa 0,0 l/m 10,2 km/h (2 Bft) NO 44 1 min 0,000 mm 1,9 UV-I 563 W/m 4,8 C 7,7 C 16,1 km/h (3 Bft) 100,00 %
30.04.2016 09:38 10,2 C 68 % 1017,1 hPa 0,0 l/m 12,6 km/h (3 Bft) NO 42 1 min 0,000 mm 1,9 UV-I 563 W/m 4,6 C 6,5 C 16,1 km/h (3 Bft) 100,00 %
30.04.2016 09:39 10,2 C 68 % 1017,1 hPa 0,0 l/m 5,3 km/h (1 Bft) O-NO 58 1 min 0,000 mm 1,9 UV-I 565 W/m 4,6 C 10,2 C 8,0 km/h (2 Bft) 95,83 %
30.04.2016 09:40 10,2 C 67 % 1017,1 hPa 0,0 l/m 9,5 km/h (2 Bft) NO 46 1 min 0,000 mm 1,9 UV-I 568 W/m 4,4 C 8,1 C 12,9 km/h (3 Bft) 100,00 %
30.04.2016 09:41 10,2 C 67 % 1017,1 hPa 0,0 l/m 6,9 km/h (2 Bft) O-NO 59 1 min 0,000 mm 1,9 UV-I 571 W/m 4,4 C 9,8 C 9,7 km/h (2 Bft) 100,00 %
30.04.2016 09:42 10,2 C 68 % 1017,1 hPa 0,0 l/m 8,8 km/h (2 Bft) NO 35 1 min 0,000 mm 2,0 UV-I 575 W/m 4,6 C 8,5 C 16,1 km/h (3 Bft) 95,65 %
30.04.2016 09:43 10,3 C 68 % 1017,1 hPa 0,0 l/m 11,2 km/h (2 Bft) NO 34 1 min 0,000 mm 2,0 UV-I 577 W/m 4,7 C 7,3 C 12,9 km/h (3 Bft) 95,83 %
30.04.2016 09:44 10,4 C 70 % 1017,1 hPa 0,0 l/m 8,7 km/h (2 Bft) NO 41 1 min 0,000 mm 2,0 UV-I 579 W/m 5,2 C 8,8 C 12,9 km/h (3 Bft) 100,00 %
30.04.2016 09:45 10,4 C 68 % 1017,1 hPa 0,0 l/m 10,5 km/h (2 Bft) O-NO 69 1 min 0,000 mm 2,0 UV-I 581 W/m 4,8 C 7,8 C 16,1 km/h (3 Bft) 100,00 %
30.04.2016 09:46 10,4 C 67 % 1017,1 hPa 0,0 l/m 12,7 km/h (3 Bft) O-NO 71 1 min 0,000 mm 2,0 UV-I 584 W/m 4,5 C 6,6 C 17,7 km/h (3 Bft) 95,83 %
30.04.2016 09:47 10,5 C 68 % 1017,1 hPa 0,0 l/m 10,3 km/h (2 Bft) N-NO 17 1 min 0,000 mm 2,0 UV-I 586 W/m 4,8 C 8,0 C 14,5 km/h (3 Bft) 100,00 %
30.04.2016 09:48 10,6 C 68 % 1017,1 hPa 0,0 l/m 10,7 km/h (2 Bft) O-NO 66 1 min 0,000 mm 2,1 UV-I 589 W/m 4,9 C 7,9 C 16,1 km/h (3 Bft) 100,00 %
30.04.2016 09:49 10,6 C 66 % 1017,1 hPa 0,0 l/m 10,1 km/h (2 Bft) O-NO 65 1 min 0,000 mm 2,1 UV-I 592 W/m 4,5 C 8,2 C 16,1 km/h (3 Bft) 100,00 %
30.04.2016 09:50 10,6 C 67 % 1017,0 hPa 0,0 l/m 9,7 km/h (2 Bft) N-NO 19 1 min 0,000 mm 2,1 UV-I 594 W/m 4,7 C 8,4 C 14,5 km/h (3 Bft) 100,00 %
30.04.2016 09:51 10,7 C 70 % 1017,0 hPa 0,0 l/m 9,7 km/h (2 Bft) O-NO 66 1 min 0,000 mm 2,1 UV-I 596 W/m 5,5 C 8,5 C 14,5 km/h (3 Bft) 95,65 %
30.04.2016 09:52 10,7 C 64 % 1017,0 hPa 0,0 l/m 7,3 km/h (2 Bft) O 82 1 min 0,000 mm 2,1 UV-I 599 W/m 4,2 C 10,1 C 11,3 km/h (2 Bft) 100,00 %
30.04.2016 09:53 10,7 C 65 % 1017,0 hPa 0,0 l/m 7,6 km/h (2 Bft) O-NO 57 1 min 0,000 mm 2,2 UV-I 601 W/m 4,4 C 9,9 C 11,3 km/h (2 Bft) 95,65 %
30.04.2016 09:54 10,7 C 65 % 1017,0 hPa 0,0 l/m 8,4 km/h (2 Bft) NO 51 1 min 0,000 mm 2,2 UV-I 603 W/m 4,4 C 9,3 C 11,3 km/h (2 Bft) 100,00 %
30.04.2016 09:55 10,6 C 65 % 1017,0 hPa 0,0 l/m 6,4 km/h (2 Bft) NO 48 1 min 0,000 mm 2,2 UV-I 606 W/m 4,3 C 10,6 C 9,7 km/h (2 Bft) 100,00 %
30.04.2016 09:56 10,7 C 67 % 1017,0 hPa 0,0 l/m 7,3 km/h (2 Bft) O-NO 60 1 min 0,000 mm 2,2 UV-I 609 W/m 4,8 C 10,1 C 9,7 km/h (2 Bft) 100,00 %
30.04.2016 09:57 10,8 C 66 % 1017,0 hPa 0,0 l/m 10,6 km/h (2 Bft) NO 54 1 min 0,000 mm 2,2 UV-I 611 W/m 4,7 C 8,2 C 14,5 km/h (3 Bft) 91,30 %
30.04.2016 09:58 10,8 C 64 % 1017,0 hPa 0,0 l/m 8,6 km/h (2 Bft) O-NO 71 1 min 0,000 mm 2,2 UV-I 613 W/m 4,3 C 9,3 C 14,5 km/h (3 Bft) 100,00 %
30.04.2016 09:59 10,8 C 65 % 1017,0 hPa 0,0 l/m 9,3 km/h (2 Bft) O-NO 64 1 min 0,000 mm 2,2 UV-I 615 W/m 4,5 C 8,9 C 14,5 km/h (3 Bft) 100,00 %
30.04.2016 10:00 10,8 C 66 % 1017,0 hPa 0,0 l/m 8,7 km/h (2 Bft) O-NO 60 1 min 0,280 mm 2,2 UV-I 619 W/m 4,7 C 9,2 C 14,5 km/h (3 Bft) 100,00 %
30.04.2016 10:02 11,0 C 66 % 1017,0 hPa 0,0 l/m 11,0 km/h (2 Bft) O-NO 60 2 min 0,000 mm 2,3 UV-I 621 W/m 4,9 C 8,2 C 17,7 km/h (3 Bft) 100,00 %
30.04.2016 10:03 11,0 C 64 % 1017,0 hPa 0,0 l/m 11,9 km/h (2 Bft) NO 40 1 min 0,000 mm 2,3 UV-I 623 W/m 4,5 C 7,7 C 16,1 km/h (3 Bft) 100,00 %
30.04.2016 10:04 11,1 C 68 % 1017,0 hPa 0,0 l/m 12,7 km/h (3 Bft) O-NO 59 1 min 0,000 mm 2,3 UV-I 625 W/m 5,4 C 7,5 C 16,1 km/h (3 Bft) 100,00 %
30.04.2016 10:05 11,2 C 66 % 1017,0 hPa 0,0 l/m 12,0 km/h (2 Bft) NO 47 1 min 0,000 mm 2,3 UV-I 628 W/m 5,1 C 7,9 C 17,7 km/h (3 Bft) 100,00 %
30.04.2016 10:06 11,2 C 67 % 1017,0 hPa 0,0 l/m 8,6 km/h (2 Bft) NO 36 1 min 0,000 mm 2,4 UV-I 631 W/m 5,3 C 9,7 C 14,5 km/h (3 Bft) 100,00 %
30.04.2016 10:07 11,2 C 66 % 1017,0 hPa 0,0 l/m 11,1 km/h (2 Bft) N-NO 24 1 min 0,000 mm 2,4 UV-I 633 W/m 5,1 C 8,3 C 16,1 km/h (3 Bft) 95,83 %
30.04.2016 10:08 11,2 C 64 % 1017,0 hPa 0,0 l/m 7,0 km/h (2 Bft) NO 43 1 min 0,000 mm 2,4 UV-I 634 W/m 4,6 C 10,8 C 8,0 km/h (2 Bft) 100,00 %
30.04.2016 10:09 11,2 C 66 % 1017,0 hPa 0,0 l/m 5,5 km/h (1 Bft) NO 45 1 min 0,000 mm 2,4 UV-I 636 W/m 5,1 C 11,2 C 8,0 km/h (2 Bft) 100,00 %
30.04.2016 10:10 11,2 C 65 % 1016,9 hPa 0,0 l/m 7,1 km/h (2 Bft) NO 54 1 min 0,000 mm 2,4 UV-I 637 W/m 4,9 C 10,7 C 9,7 km/h (2 Bft) 100,00 %
30.04.2016 10:11 11,3 C 67 % 1016,9 hPa 0,0 l/m 8,9 km/h (2 Bft) N-NO 25 1 min 0,000 mm 2,4 UV-I 641 W/m 5,4 C 9,7 C 14,5 km/h (3 Bft) 95,83 %
30.04.2016 10:12 11,4 C 66 % 1016,9 hPa 0,0 l/m 11,1 km/h (2 Bft) N-NO 33 1 min 0,000 mm 2,4 UV-I 644 W/m 5,3 C 8,6 C 16,1 km/h (3 Bft) 95,65 %
30.04.2016 10:13 11,6 C 69 % 1016,9 hPa 0,0 l/m 13,7 km/h (3 Bft) O-NO 58 1 min 0,000 mm 2,5 UV-I 649 W/m 6,1 C 7,6 C 16,1 km/h (3 Bft) 95,83 %
30.04.2016 10:14 11,7 C 66 % 1016,9 hPa 0,0 l/m 13,4 km/h (3 Bft) O-NO 69 1 min 0,000 mm 2,5 UV-I 650 W/m 5,6 C 7,8 C 19,3 km/h (3 Bft) 95,65 %
30.04.2016 10:15 11,6 C 60 % 1016,9 hPa 0,0 l/m 10,3 km/h (2 Bft) N-NO 28 1 min 0,000 mm 2,5 UV-I 651 W/m 4,1 C 9,2 C 14,5 km/h (3 Bft) 100,00 %
30.04.2016 10:16 11,6 C 66 % 1016,8 hPa 0,0 l/m 11,8 km/h (2 Bft) NO 42 1 min 0,000 mm 2,5 UV-I 653 W/m 5,5 C 8,5 C 16,1 km/h (3 Bft) 91,30 %
30.04.2016 10:17 11,6 C 66 % 1016,9 hPa 0,0 l/m 13,9 km/h (3 Bft) NO 39 1 min 0,000 mm 2,6 UV-I 656 W/m 5,5 C 7,5 C 17,7 km/h (3 Bft) 100,00 %
30.04.2016 10:18 11,7 C 66 % 1016,8 hPa 0,0 l/m 11,8 km/h (2 Bft) NO 49 1 min 0,000 mm 2,6 UV-I 659 W/m 5,6 C 8,6 C 19,3 km/h (3 Bft) 91,30 %
30.04.2016 10:19 11,7 C 62 % 1016,9 hPa 0,0 l/m 9,0 km/h (2 Bft) NO 45 1 min 0,000 mm 2,6 UV-I 660 W/m 4,7 C 10,0 C 14,5 km/h (3 Bft) 100,00 %
30.04.2016 10:20 11,7 C 63 % 1016,8 hPa 0,0 l/m 9,7 km/h (2 Bft) O-NO 65 1 min 0,000 mm 2,6 UV-I 663 W/m 4,9 C 9,6 C 14,5 km/h (3 Bft) 96,15 %
30.04.2016 10:21 11,7 C 61 % 1016,8 hPa 0,0 l/m 7,5 km/h (2 Bft) O-NO 63 1 min 0,000 mm 2,6 UV-I 665 W/m 4,4 C 11,0 C 14,5 km/h (3 Bft) 95,83 %
30.04.2016 10:22 11,7 C 62 % 1016,8 hPa 0,0 l/m 12,1 km/h (2 Bft) O 86 1 min 0,000 mm 2,6 UV-I 668 W/m 4,7 C 8,4 C 17,7 km/h (3 Bft) 95,83 %
30.04.2016 10:23 11,7 C 62 % 1016,8 hPa 0,0 l/m 10,4 km/h (2 Bft) NO 34 1 min 0,000 mm 2,7 UV-I 668 W/m 4,7 C 9,3 C 14,5 km/h (3 Bft) 100,00 %
30.04.2016 10:24 11,7 C 66 % 1016,9 hPa 0,0 l/m 12,0 km/h (2 Bft) NO 42 1 min 0,000 mm 2,7 UV-I 670 W/m 5,6 C 8,5 C 16,1 km/h (3 Bft) 95,83 %
30.04.2016 10:25 11,8 C 66 % 1016,8 hPa 0,0 l/m 7,1 km/h (2 Bft) NO 39 1 min 0,000 mm 2,7 UV-I 671 W/m 5,7 C 11,3 C 9,7 km/h (2 Bft) 88,46 %
30.04.2016 10:26 11,9 C 66 % 1016,8 hPa 0,0 l/m 10,5 km/h (2 Bft) NO 42 1 min 0,000 mm 2,7 UV-I 674 W/m 5,8 C 9,4 C 16,1 km/h (3 Bft) 100,00 %
30.04.2016 10:27 11,9 C 65 % 1016,8 hPa 0,0 l/m 6,2 km/h (2 Bft) NO 34 1 min 0,000 mm 2,7 UV-I 678 W/m 5,5 C 11,9 C 8,0 km/h (2 Bft) 96,15 %
30.04.2016 10:28 11,9 C 63 % 1016,8 hPa 0,0 l/m 12,7 km/h (3 Bft) O-NO 61 1 min 0,000 mm 2,8 UV-I 680 W/m 5,1 C 8,4 C 19,3 km/h (3 Bft) 100,00 %
30.04.2016 10:29 12,0 C 60 % 1016,8 hPa 0,0 l/m 13,8 km/h (3 Bft) O-NO 70 1 min 0,000 mm 2,8 UV-I 680 W/m 4,5 C 8,0 C 19,3 km/h (3 Bft) 91,30 %
30.04.2016 10:30 11,9 C 60 % 1016,8 hPa 0,0 l/m 9,1 km/h (2 Bft) O-NO 61 1 min 0,000 mm 2,8 UV-I 686 W/m 4,4 C 10,2 C 12,9 km/h (3 Bft) 95,83 %
30.04.2016 10:32 12,1 C 64 % 1016,8 hPa 0,0 l/m 10,1 km/h (2 Bft) NO 50 2 min 0,000 mm 2,8 UV-I 686 W/m 5,5 C 9,9 C 14,5 km/h (3 Bft) 100,00 %
30.04.2016 10:33 12,0 C 62 % 1016,8 hPa 0,0 l/m 8,4 km/h (2 Bft) NO 55 1 min 0,000 mm 2,8 UV-I 690 W/m 4,9 C 10,7 C 16,1 km/h (3 Bft) 95,83 %
30.04.2016 10:34 12,0 C 64 % 1016,8 hPa 0,0 l/m 12,9 km/h (3 Bft) O-NO 61 1 min 0,000 mm 2,9 UV-I 693 W/m 5,4 C 8,4 C 17,7 km/h (3 Bft) 95,83 %
30.04.2016 10:35 12,1 C 62 % 1016,8 hPa 0,0 l/m 9,7 km/h (2 Bft) O-NO 67 1 min 0,000 mm 2,8 UV-I 691 W/m 5,0 C 10,1 C 17,7 km/h (3 Bft) 98,25 %
30.04.2016 10:38 12,2 C 63 % 1016,8 hPa 0,0 l/m 11,3 km/h (2 Bft) NO 39 3 min 0,000 mm 2,9 UV-I 696 W/m 5,4 C 9,4 C 14,5 km/h (3 Bft) 98,91 %
30.04.2016 10:39 12,2 C 64 % 1016,8 hPa 0,0 l/m 12,7 km/h (3 Bft) NO 42 1 min 0,000 mm 2,9 UV-I 701 W/m 5,6 C 8,7 C 17,7 km/h (3 Bft) 100,00 %
30.04.2016 10:40 12,3 C 64 % 1016,7 hPa 0,0 l/m 11,8 km/h (2 Bft) NO 38 1 min 0,000 mm 3,0 UV-I 703 W/m 5,7 C 9,3 C 16,1 km/h (3 Bft) 100,00 %
30.04.2016 10:41 12,3 C 62 % 1016,8 hPa 0,0 l/m 11,1 km/h (2 Bft) O-NO 57 1 min 0,000 mm 3,0 UV-I 705 W/m 5,2 C 9,6 C 16,1 km/h (3 Bft) 96,15 %
30.04.2016 10:42 12,3 C 62 % 1016,7 hPa 0,0 l/m 11,7 km/h (2 Bft) NO 42 1 min 0,000 mm 3,0 UV-I 707 W/m 5,2 C 9,3 C 17,7 km/h (3 Bft) 95,83 %
30.04.2016 10:43 12,2 C 61 % 1016,7 hPa 0,0 l/m 8,6 km/h (2 Bft) NO 42 1 min 0,000 mm 3,0 UV-I 708 W/m 4,9 C 10,8 C 14,5 km/h (3 Bft) 100,00 %
30.04.2016 10:44 12,3 C 64 % 1016,8 hPa 0,0 l/m 11,1 km/h (2 Bft) O-NO 69 1 min 0,000 mm 3,0 UV-I 710 W/m 5,7 C 9,6 C 17,7 km/h (3 Bft) 100,00 %
30.04.2016 10:45 12,3 C 59 % 1016,7 hPa 0,0 l/m 15,6 km/h (3 Bft) NO 55 1 min 0,000 mm 3,0 UV-I 714 W/m 4,5 C 7,7 C 19,3 km/h (3 Bft) 100,00 %
30.04.2016 10:46 12,2 C 60 % 1016,7 hPa 0,0 l/m 13,1 km/h (3 Bft) NO 53 1 min 0,000 mm 3,0 UV-I 714 W/m 4,7 C 8,6 C 17,7 km/h (3 Bft) 100,00 %
30.04.2016 10:47 12,3 C 63 % 1016,7 hPa 0,0 l/m 7,4 km/h (2 Bft) N-NO 22 1 min 0,000 mm 3,0 UV-I 715 W/m 5,5 C 11,6 C 11,3 km/h (2 Bft) 96,15 %
30.04.2016 10:48 12,4 C 64 % 1016,7 hPa 0,0 l/m 7,6 km/h (2 Bft) O-NO 74 1 min 0,000 mm 3,1 UV-I 718 W/m 5,8 C 11,6 C 11,3 km/h (2 Bft) 100,00 %
30.04.2016 10:49 12,5 C 61 % 1016,7 hPa 0,0 l/m 10,2 km/h (2 Bft) NO 52 1 min 0,000 mm 3,1 UV-I 720 W/m 5,2 C 10,3 C 14,5 km/h (3 Bft) 100,00 %
30.04.2016 10:50 12,5 C 62 % 1016,7 hPa 0,0 l/m 10,7 km/h (2 Bft) NO 34 1 min 0,000 mm 3,1 UV-I 722 W/m 5,4 C 10,0 C 17,7 km/h (3 Bft) 100,00 %
30.04.2016 10:51 12,6 C 64 % 1016,7 hPa 0,0 l/m 10,9 km/h (2 Bft) NO 46 1 min 0,000 mm 3,1 UV-I 723 W/m 6,0 C 10,0 C 16,1 km/h (3 Bft) 100,00 %
30.04.2016 10:52 12,6 C 61 % 1016,7 hPa 0,0 l/m 7,0 km/h (2 Bft) O-NO 59 1 min 0,000 mm 3,1 UV-I 726 W/m 5,3 C 12,2 C 8,0 km/h (2 Bft) 100,00 %
30.04.2016 10:53 12,6 C 61 % 1016,7 hPa 0,0 l/m 8,7 km/h (2 Bft) N-NO 21 1 min 0,000 mm 3,2 UV-I 728 W/m 5,3 C 11,2 C 14,5 km/h (3 Bft) 100,00 %
30.04.2016 10:54 12,7 C 64 % 1016,7 hPa 0,0 l/m 10,3 km/h (2 Bft) N-NO 27 1 min 0,000 mm 3,2 UV-I 729 W/m 6,1 C 10,4 C 14,5 km/h (3 Bft) 100,00 %
30.04.2016 10:55 12,8 C 64 % 1016,6 hPa 0,0 l/m 6,7 km/h (2 Bft) NO 49 1 min 0,000 mm 3,2 UV-I 730 W/m 6,2 C 12,6 C 9,7 km/h (2 Bft) 97,37 %
30.04.2016 10:56 12,9 C 61 % 1016,6 hPa 0,0 l/m 8,9 km/h (2 Bft) NO 40 1 min 0,000 mm 3,2 UV-I 733 W/m 5,6 C 11,4 C 12,9 km/h (3 Bft) 100,00 %
30.04.2016 10:57 13,1 C 60 % 1016,6 hPa 0,0 l/m 7,2 km/h (2 Bft) O-NO 62 1 min 0,000 mm 3,2 UV-I 735 W/m 5,5 C 12,6 C 11,3 km/h (2 Bft) 100,00 %
30.04.2016 10:58 13,1 C 62 % 1016,7 hPa 0,0 l/m 10,9 km/h (2 Bft) N-NO 28 1 min 0,000 mm 3,2 UV-I 737 W/m 6,0 C 10,6 C 17,7 km/h (3 Bft) 100,00 %
30.04.2016 10:59 13,1 C 64 % 1016,7 hPa 0,0 l/m 8,0 km/h (2 Bft) NO 49 1 min 0,000 mm 3,3 UV-I 735 W/m 6,4 C 12,1 C 14,5 km/h (3 Bft) 100,00 %
30.04.2016 11:00 13,1 C 64 % 1016,6 hPa 0,0 l/m 15,2 km/h (3 Bft) NO 38 1 min 0,000 mm 3,3 UV-I 738 W/m 6,4 C 8,8 C 20,9 km/h (4 Bft) 100,00 %
30.04.2016 11:02 13,1 C 62 % 1016,6 hPa 0,0 l/m 13,6 km/h (3 Bft) N-NO 17 2 min 0,381 mm 3,3 UV-I 742 W/m 6,0 C 9,4 C 17,7 km/h (3 Bft) 100,00 %
30.04.2016 11:03 13,1 C 62 % 1016,7 hPa 0,0 l/m 10,4 km/h (2 Bft) NO 56 1 min 0,000 mm 3,3 UV-I 744 W/m 6,0 C 10,8 C 14,5 km/h (3 Bft) 100,00 %
30.04.2016 11:04 13,1 C 63 % 1016,7 hPa 0,0 l/m 12,2 km/h (2 Bft) NO 55 1 min 0,000 mm 3,3 UV-I 745 W/m 6,2 C 10,0 C 17,7 km/h (3 Bft) 100,00 %
30.04.2016 11:05 13,1 C 60 % 1016,6 hPa 0,0 l/m 12,5 km/h (3 Bft) NO 41 1 min 0,000 mm 3,4 UV-I 748 W/m 5,5 C 9,9 C 16,1 km/h (3 Bft) 100,00 %
30.04.2016 11:06 13,1 C 63 % 1016,6 hPa 0,0 l/m 7,8 km/h (2 Bft) NO 44 1 min 0,000 mm 3,4 UV-I 751 W/m 6,2 C 12,2 C 12,9 km/h (3 Bft) 100,00 %
30.04.2016 11:07 13,1 C 63 % 1016,6 hPa 0,0 l/m 8,9 km/h (2 Bft) NO 49 1 min 0,000 mm 3,4 UV-I 751 W/m 6,2 C 11,6 C 14,5 km/h (3 Bft) 100,00 %
30.04.2016 11:08 13,2 C 61 % 1016,6 hPa 0,0 l/m 11,3 km/h (2 Bft) O-NO 59 1 min 0,000 mm 3,4 UV-I 753 W/m 5,8 C 10,5 C 17,7 km/h (3 Bft) 100,00 %
30.04.2016 11:09 13,2 C 62 % 1016,6 hPa 0,0 l/m 15,3 km/h (3 Bft) NO 55 1 min 0,000 mm 3,4 UV-I 754 W/m 6,1 C 8,9 C 20,9 km/h (4 Bft) 100,00 %
30.04.2016 11:10 13,3 C 61 % 1016,6 hPa 0,0 l/m 13,5 km/h (3 Bft) NO 51 1 min 0,000 mm 3,4 UV-I 754 W/m 5,9 C 9,7 C 19,3 km/h (3 Bft) 100,00 %
30.04.2016 11:11 13,3 C 60 % 1016,6 hPa 0,0 l/m 13,1 km/h (3 Bft) O-NO 61 1 min 0,000 mm 3,5 UV-I 758 W/m 5,7 C 9,9 C 17,7 km/h (3 Bft) 100,00 %
30.04.2016 11:12 13,3 C 59 % 1016,6 hPa 0,0 l/m 13,4 km/h (3 Bft) O-NO 63 1 min 0,000 mm 3,5 UV-I 760 W/m 5,5 C 9,7 C 17,7 km/h (3 Bft) 100,00 %
30.04.2016 11:13 13,3 C 59 % 1016,6 hPa 0,0 l/m 8,5 km/h (2 Bft) NO 49 1 min 0,000 mm 3,5 UV-I 761 W/m 5,5 C 12,0 C 12,9 km/h (3 Bft) 95,83 %
30.04.2016 11:14 13,3 C 61 % 1016,5 hPa 0,0 l/m 12,0 km/h (2 Bft) NO 49 1 min 0,000 mm 3,5 UV-I 761 W/m 5,9 C 10,3 C 16,1 km/h (3 Bft) 100,00 %
30.04.2016 11:15 13,4 C 59 % 1016,6 hPa 0,0 l/m 12,0 km/h (2 Bft) NO 42 1 min 0,000 mm 3,5 UV-I 764 W/m 5,6 C 10,4 C 17,7 km/h (3 Bft) 100,00 %
30.04.2016 11:16 13,4 C 58 % 1016,5 hPa 0,0 l/m 13,9 km/h (3 Bft) NO 41 1 min 0,000 mm 3,5 UV-I 765 W/m 5,3 C 9,7 C 19,3 km/h (3 Bft) 100,00 %
30.04.2016 11:17 13,3 C 58 % 1016,5 hPa 0,0 l/m 11,6 km/h (2 Bft) N-NO 17 1 min 0,000 mm 3,5 UV-I 766 W/m 5,2 C 10,5 C 17,7 km/h (3 Bft) 100,00 %
30.04.2016 11:18 13,3 C 60 % 1016,5 hPa 0,0 l/m 18,7 km/h (3 Bft) NO 38 1 min 0,000 mm 3,5 UV-I 768 W/m 5,7 C 7,9 C 20,9 km/h (4 Bft) 100,00 %
30.04.2016 11:19 13,5 C 64 % 1016,5 hPa 0,0 l/m 17,2 km/h (3 Bft) NO 41 1 min 0,000 mm 3,6 UV-I 769 W/m 6,8 C 8,6 C 22,5 km/h (4 Bft) 100,00 %
30.04.2016 11:20 13,6 C 62 % 1016,5 hPa 0,0 l/m 14,1 km/h (3 Bft) NO 37 1 min 0,000 mm 3,6 UV-I 772 W/m 6,5 C 9,8 C 17,7 km/h (3 Bft) 100,00 %
30.04.2016 11:21 13,6 C 60 % 1016,4 hPa 0,0 l/m 9,7 km/h (2 Bft) O-NO 61 1 min 0,000 mm 3,6 UV-I 772 W/m 6,0 C 11,7 C 14,5 km/h (3 Bft) 100,00 %
30.04.2016 11:22 13,6 C 61 % 1016,4 hPa 0,0 l/m 10,3 km/h (2 Bft) NO 45 1 min 0,000 mm 3,6 UV-I 772 W/m 6,2 C 11,4 C 19,3 km/h (3 Bft) 100,00 %
30.04.2016 11:23 13,7 C 62 % 1016,4 hPa 0,0 l/m 12,9 km/h (3 Bft) NO 36 1 min 0,000 mm 3,6 UV-I 774 W/m 6,6 C 10,4 C 19,3 km/h (3 Bft) 100,00 %
30.04.2016 11:24 13,7 C 61 % 1016,4 hPa 0,0 l/m 11,9 km/h (2 Bft) NO 40 1 min 0,000 mm 3,7 UV-I 774 W/m 6,3 C 10,8 C 17,7 km/h (3 Bft) 100,00 %
30.04.2016 11:25 13,7 C 62 % 1016,4 hPa 0,0 l/m 14,4 km/h (3 Bft) NO 40 1 min 0,000 mm 3,5 UV-I 777 W/m 6,6 C 9,8 C 17,7 km/h (3 Bft) 96,67 %
30.04.2016 11:26 13,8 C 61 % 1016,3 hPa 0,0 l/m 13,0 km/h (3 Bft) NO 42 1 min 0,000 mm 3,7 UV-I 778 W/m 6,4 C 10,5 C 17,7 km/h (3 Bft) 100,00 %
30.04.2016 11:27 13,8 C 62 % 1016,3 hPa 0,0 l/m 13,7 km/h (3 Bft) N-NO 32 1 min 0,000 mm 3,7 UV-I 782 W/m 6,6 C 10,2 C 17,7 km/h (3 Bft) 100,00 %
30.04.2016 11:28 13,9 C 64 % 1016,4 hPa 0,0 l/m 15,0 km/h (3 Bft) NO 49 1 min 0,000 mm 3,7 UV-I 780 W/m 7,2 C 9,9 C 19,3 km/h (3 Bft) 100,00 %
30.04.2016 11:29 13,9 C 57 % 1016,2 hPa 0,0 l/m 11,9 km/h (2 Bft) NO 45 1 min 0,000 mm 3,8 UV-I 783 W/m 5,5 C 11,0 C 19,3 km/h (3 Bft) 100,00 %
30.04.2016 11:30 14,1 C 57 % 1016,3 hPa 0,0 l/m 11,1 km/h (2 Bft) NO 36 1 min 0,000 mm 3,8 UV-I 786 W/m 5,7 C 11,6 C 17,7 km/h (3 Bft) 100,00 %
30.04.2016 11:31 14,1 C 59 % 1016,3 hPa 0,0 l/m 13,1 km/h (3 Bft) NO 55 1 min 0,000 mm 3,8 UV-I 787 W/m 6,2 C 10,8 C 19,3 km/h (3 Bft) 95,65 %
30.04.2016 11:32 14,1 C 56 % 1016,3 hPa 0,0 l/m 12,5 km/h (3 Bft) O-NO 69 1 min 0,000 mm 3,8 UV-I 789 W/m 5,5 C 11,0 C 17,7 km/h (3 Bft) 100,00 %
30.04.2016 11:33 14,1 C 57 % 1016,3 hPa 0,0 l/m 11,6 km/h (2 Bft) O-NO 61 1 min 0,000 mm 3,8 UV-I 789 W/m 5,7 C 11,4 C 17,7 km/h (3 Bft) 100,00 %
30.04.2016 11:34 14,1 C 55 % 1016,3 hPa 0,0 l/m 8,8 km/h (2 Bft) O-NO 68 1 min 0,000 mm 3,8 UV-I 791 W/m 5,2 C 12,7 C 16,1 km/h (3 Bft) 100,00 %
30.04.2016 11:35 14,0 C 55 % 1016,3 hPa 0,0 l/m 5,8 km/h (2 Bft) NO 41 1 min 0,000 mm 3,8 UV-I 792 W/m 5,1 C 14,0 C 9,7 km/h (2 Bft) 100,00 %
30.04.2016 11:36 14,1 C 61 % 1016,3 hPa 0,0 l/m 5,2 km/h (1 Bft) NO 40 1 min 0,000 mm 3,9 UV-I 792 W/m 6,7 C 14,1 C 8,0 km/h (2 Bft) 95,83 %
30.04.2016 11:37 14,2 C 60 % 1016,3 hPa 0,0 l/m 10,5 km/h (2 Bft) O-NO 58 1 min 0,000 mm 3,9 UV-I 795 W/m 6,5 C 12,0 C 16,1 km/h (3 Bft) 95,65 %
30.04.2016 11:38 14,4 C 57 % 1016,2 hPa 0,0 l/m 14,2 km/h (3 Bft) N-NO 29 1 min 0,000 mm 3,9 UV-I 796 W/m 6,0 C 10,7 C 19,3 km/h (3 Bft) 100,00 %
30.04.2016 11:39 14,6 C 60 % 1016,2 hPa 0,0 l/m 15,6 km/h (3 Bft) N-NO 30 1 min 0,000 mm 3,9 UV-I 796 W/m 6,9 C 10,5 C 22,5 km/h (4 Bft) 100,00 %
30.04.2016 11:40 14,6 C 60 % 1016,2 hPa 0,0 l/m 10,2 km/h (2 Bft) N-NO 17 1 min 0,000 mm 3,9 UV-I 798 W/m 6,9 C 12,6 C 16,1 km/h (3 Bft) 100,00 %
30.04.2016 11:41 14,6 C 62 % 1016,1 hPa 0,0 l/m 10,4 km/h (2 Bft) NO 34 1 min 0,000 mm 3,9 UV-I 801 W/m 7,4 C 12,5 C 16,1 km/h (3 Bft) 100,00 %
30.04.2016 11:42 14,7 C 60 % 1016,2 hPa 0,0 l/m 12,2 km/h (2 Bft) NO 53 1 min 0,000 mm 4,0 UV-I 802 W/m 7,0 C 11,8 C 17,7 km/h (3 Bft) 100,00 %
30.04.2016 11:43 14,7 C 56 % 1016,2 hPa 0,0 l/m 12,5 km/h (3 Bft) N-NO 32 1 min 0,000 mm 4,0 UV-I 802 W/m 6,0 C 11,7 C 17,7 km/h (3 Bft) 100,00 %
30.04.2016 11:44 14,7 C 56 % 1016,1 hPa 0,0 l/m 11,6 km/h (2 Bft) NO 46 1 min 0,000 mm 4,0 UV-I 803 W/m 6,0 C 12,1 C 19,3 km/h (3 Bft) 86,96 %
30.04.2016 11:45 14,7 C 57 % 1016,1 hPa 0,0 l/m 8,2 km/h (2 Bft) N-NO 26 1 min 0,000 mm 4,0 UV-I 803 W/m 6,3 C 13,7 C 9,7 km/h (2 Bft) 100,00 %
30.04.2016 11:46 14,7 C 58 % 1016,1 hPa 0,0 l/m 12,9 km/h (3 Bft) NO 42 1 min 0,000 mm 4,0 UV-I 803 W/m 6,5 C 11,6 C 17,7 km/h (3 Bft) 95,65 %
30.04.2016 11:47 14,7 C 55 % 1016,0 hPa 0,0 l/m 18,8 km/h (3 Bft) NO 52 1 min 0,000 mm 4,0 UV-I 808 W/m 5,8 C 9,7 C 22,5 km/h (4 Bft) 95,83 %
30.04.2016 11:48 14,6 C 53 % 1016,1 hPa 0,0 l/m 11,8 km/h (2 Bft) NO 44 1 min 0,000 mm 4,0 UV-I 808 W/m 5,1 C 11,9 C 17,7 km/h (3 Bft) 100,00 %
30.04.2016 11:49 14,6 C 56 % 1016,0 hPa 0,0 l/m 11,3 km/h (2 Bft) NO 55 1 min 0,000 mm 4,0 UV-I 810 W/m 5,9 C 12,1 C 16,1 km/h (3 Bft) 100,00 %
30.04.2016 11:50 14,6 C 55 % 1016,0 hPa 0,0 l/m 10,3 km/h (2 Bft) O-NO 70 1 min 0,000 mm 4,0 UV-I 810 W/m 5,7 C 12,5 C 19,3 km/h (3 Bft) 95,65 %
30.04.2016 11:51 14,6 C 54 % 1016,0 hPa 0,0 l/m 14,3 km/h (3 Bft) NO 35 1 min 0,000 mm 4,1 UV-I 812 W/m 5,4 C 10,9 C 24,1 km/h (4 Bft) 100,00 %
30.04.2016 11:52 14,7 C 54 % 1016,0 hPa 0,0 l/m 8,3 km/h (2 Bft) N-NO 28 1 min 0,000 mm 4,1 UV-I 810 W/m 5,5 C 13,6 C 14,5 km/h (3 Bft) 100,00 %
30.04.2016 11:53 14,7 C 56 % 1016,0 hPa 0,0 l/m 11,3 km/h (2 Bft) NO 40 1 min 0,000 mm 4,1 UV-I 812 W/m 6,0 C 12,2 C 17,7 km/h (3 Bft) 95,83 %
30.04.2016 11:54 14,7 C 60 % 1015,9 hPa 0,0 l/m 14,7 km/h (3 Bft) NO 53 1 min 0,000 mm 4,1 UV-I 813 W/m 7,0 C 10,9 C 19,3 km/h (3 Bft) 100,00 %
30.04.2016 11:55 14,8 C 59 % 1016,0 hPa 0,0 l/m 14,1 km/h (3 Bft) NO 36 1 min 0,000 mm 4,1 UV-I 813 W/m 6,9 C 11,3 C 19,3 km/h (3 Bft) 96,15 %
30.04.2016 11:56 14,9 C 58 % 1016,0 hPa 0,0 l/m 11,0 km/h (2 Bft) N 5 1 min 0,000 mm 4,1 UV-I 815 W/m 6,7 C 12,6 C 19,3 km/h (3 Bft) 100,00 %
30.04.2016 11:57 15,0 C 56 % 1016,0 hPa 0,0 l/m 7,4 km/h (2 Bft) NO 41 1 min 0,000 mm 4,1 UV-I 816 W/m 6,3 C 14,4 C 9,7 km/h (2 Bft) 95,65 %
30.04.2016 11:58 15,0 C 57 % 1015,9 hPa 0,0 l/m 13,3 km/h (3 Bft) NO 35 1 min 0,000 mm 3,6 UV-I 817 W/m 6,6 C 11,8 C 22,5 km/h (4 Bft) 91,67 %
30.04.2016 11:59 15,1 C 57 % 1015,9 hPa 0,0 l/m 15,2 km/h (3 Bft) N-NO 32 1 min 0,000 mm 4,1 UV-I 820 W/m 6,6 C 11,2 C 17,7 km/h (3 Bft) 100,00 %
30.04.2016 12:00 15,2 C 55 % 1015,9 hPa 0,0 l/m 12,5 km/h (3 Bft) NO 53 1 min 0,000 mm 4,1 UV-I 819 W/m 6,2 C 12,3 C 16,1 km/h (3 Bft) 91,67 %
30.04.2016 12:02 15,4 C 57 % 1015,9 hPa 0,0 l/m 6,7 km/h (2 Bft) NO 41 2 min 0,457 mm 4,2 UV-I 822 W/m 6,9 C 15,2 C 16,1 km/h (3 Bft) 97,87 %
30.04.2016 12:03 15,6 C 56 % 1015,9 hPa 0,0 l/m 16,1 km/h (3 Bft) O-NO 61 1 min 0,000 mm 4,2 UV-I 823 W/m 6,9 C 11,6 C 22,5 km/h (4 Bft) 100,00 %
30.04.2016 12:04 15,5 C 49 % 1015,9 hPa 0,0 l/m 14,1 km/h (3 Bft) O-NO 63 1 min 0,000 mm 4,2 UV-I 824 W/m 4,8 C 12,1 C 17,7 km/h (3 Bft) 95,83 %
30.04.2016 12:05 15,4 C 49 % 1015,9 hPa 0,0 l/m 11,2 km/h (2 Bft) NO 46 1 min 0,000 mm 4,3 UV-I 824 W/m 4,7 C 13,0 C 17,7 km/h (3 Bft) 95,65 %
30.04.2016 12:06 15,4 C 48 % 1015,9 hPa 0,0 l/m 12,9 km/h (3 Bft) NO 43 1 min 0,000 mm 4,3 UV-I 825 W/m 4,4 C 12,4 C 16,1 km/h (3 Bft) 91,67 %
30.04.2016 12:07 15,4 C 50 % 1015,9 hPa 0,0 l/m 12,5 km/h (3 Bft) NO 48 1 min 0,000 mm 4,3 UV-I 826 W/m 5,0 C 12,5 C 17,7 km/h (3 Bft) 91,30 %
30.04.2016 12:08 15,4 C 48 % 1015,8 hPa 0,0 l/m 11,9 km/h (2 Bft) NO 37 1 min 0,000 mm 4,3 UV-I 829 W/m 4,4 C 12,8 C 16,1 km/h (3 Bft) 95,83 %
30.04.2016 12:09 15,4 C 55 % 1015,8 hPa 0,0 l/m 13,8 km/h (3 Bft) NO 36 1 min 0,000 mm 4,3 UV-I 830 W/m 6,4 C 12,1 C 17,7 km/h (3 Bft) 92,86 %
30.04.2016 12:10 15,4 C 57 % 1015,8 hPa 0,0 l/m 10,0 km/h (2 Bft) N 10 1 min 0,000 mm 4,3 UV-I 829 W/m 6,9 C 13,6 C 16,1 km/h (3 Bft) 100,00 %
30.04.2016 12:11 15,4 C 57 % 1015,8 hPa 0,0 l/m 10,1 km/h (2 Bft) N-NO 15 1 min 0,000 mm 4,3 UV-I 831 W/m 6,9 C 13,5 C 14,5 km/h (3 Bft) 95,65 %
30.04.2016 12:12 15,6 C 58 % 1015,8 hPa 0,0 l/m 8,4 km/h (2 Bft) O-NO 61 1 min 0,000 mm 4,2 UV-I 832 W/m 7,4 C 14,5 C 14,5 km/h (3 Bft) 100,00 %
30.04.2016 12:13 15,7 C 58 % 1015,8 hPa 0,0 l/m 8,9 km/h (2 Bft) NO 49 1 min 0,000 mm 4,2 UV-I 834 W/m 7,5 C 14,4 C 14,5 km/h (3 Bft) 95,83 %
30.04.2016 12:14 15,8 C 52 % 1015,7 hPa 0,0 l/m 15,1 km/h (3 Bft) O-NO 71 1 min 0,000 mm 4,3 UV-I 835 W/m 6,0 C 12,1 C 17,7 km/h (3 Bft) 100,00 %
30.04.2016 12:15 15,8 C 47 % 1015,7 hPa 0,0 l/m 13,2 km/h (3 Bft) NO 53 1 min 0,000 mm 4,4 UV-I 834 W/m 4,5 C 12,8 C 17,7 km/h (3 Bft) 95,83 %
30.04.2016 12:16 15,8 C 48 % 1015,7 hPa 0,0 l/m 16,2 km/h (3 Bft) O-NO 67 1 min 0,000 mm 4,4 UV-I 833 W/m 4,8 C 11,8 C 20,9 km/h (4 Bft) 100,00 %
30.04.2016 12:17 15,8 C 51 % 1015,7 hPa 0,0 l/m 15,8 km/h (3 Bft) O 82 1 min 0,000 mm 4,4 UV-I 837 W/m 5,7 C 11,9 C 20,9 km/h (4 Bft) 95,83 %
30.04.2016 12:18 15,8 C 50 % 1015,7 hPa 0,0 l/m 15,6 km/h (3 Bft) O-NO 71 1 min 0,000 mm 4,4 UV-I 837 W/m 5,4 C 12,0 C 19,3 km/h (3 Bft) 95,65 %
30.04.2016 12:19 15,8 C 48 % 1015,7 hPa 0,0 l/m 16,6 km/h (3 Bft) O-NO 74 1 min 0,000 mm 4,4 UV-I 837 W/m 4,8 C 11,7 C 22,5 km/h (4 Bft) 100,00 %
30.04.2016 12:20 15,8 C 48 % 1015,8 hPa 0,0 l/m 14,6 km/h (3 Bft) O 83 1 min 0,000 mm 4,4 UV-I 837 W/m 4,8 C 12,3 C 19,3 km/h (3 Bft) 96,15 %
30.04.2016 12:21 15,7 C 48 % 1015,7 hPa 0,0 l/m 13,1 km/h (3 Bft) O-NO 65 1 min 0,000 mm 4,4 UV-I 838 W/m 4,7 C 12,7 C 19,3 km/h (3 Bft) 100,00 %
30.04.2016 12:22 15,7 C 48 % 1015,7 hPa 0,0 l/m 19,4 km/h (3 Bft) O-NO 73 1 min 0,000 mm 4,4 UV-I 838 W/m 4,7 C 10,8 C 27,4 km/h (4 Bft) 100,00 %
30.04.2016 12:23 15,7 C 47 % 1015,7 hPa 0,0 l/m 18,5 km/h (3 Bft) O-NO 74 1 min 0,000 mm 4,4 UV-I 838 W/m 4,4 C 11,0 C 24,1 km/h (4 Bft) 100,00 %
30.04.2016 12:24 15,7 C 46 % 1015,7 hPa 0,0 l/m 15,3 km/h (3 Bft) N-NO 32 1 min 0,000 mm 4,4 UV-I 841 W/m 4,1 C 11,9 C 19,3 km/h (3 Bft) 100,00 %
30.04.2016 12:25 15,7 C 45 % 1015,7 hPa 0,0 l/m 10,3 km/h (2 Bft) NO 41 1 min 0,000 mm 4,4 UV-I 841 W/m 3,8 C 13,8 C 17,7 km/h (3 Bft) 100,00 %
30.04.2016 12:26 15,7 C 46 % 1015,7 hPa 0,0 l/m 13,5 km/h (3 Bft) O-NO 58 1 min 0,000 mm 4,4 UV-I 842 W/m 4,1 C 12,5 C 20,9 km/h (4 Bft) 100,00 %
30.04.2016 12:27 15,7 C 47 % 1015,7 hPa 0,0 l/m 14,8 km/h (3 Bft) NO 36 1 min 0,000 mm 4,4 UV-I 842 W/m 4,4 C 12,1 C 19,3 km/h (3 Bft) 100,00 %
30.04.2016 12:28 15,7 C 49 % 1015,6 hPa 0,0 l/m 12,5 km/h (3 Bft) NO 51 1 min 0,000 mm 4,4 UV-I 844 W/m 5,0 C 12,9 C 24,1 km/h (4 Bft) 100,00 %
30.04.2016 12:29 15,8 C 47 % 1015,6 hPa 0,0 l/m 15,7 km/h (3 Bft) NO 56 1 min 0,000 mm 4,4 UV-I 844 W/m 4,5 C 11,9 C 20,9 km/h (4 Bft) 95,83 %
30.04.2016 12:30 15,8 C 47 % 1015,6 hPa 0,0 l/m 14,7 km/h (3 Bft) NO 47 1 min 0,000 mm 4,4 UV-I 845 W/m 4,5 C 12,3 C 20,9 km/h (4 Bft) 100,00 %
30.04.2016 12:31 15,8 C 47 % 1015,6 hPa 0,0 l/m 14,0 km/h (3 Bft) O-NO 63 1 min 0,000 mm 4,4 UV-I 845 W/m 4,5 C 12,5 C 17,7 km/h (3 Bft) 100,00 %
30.04.2016 12:32 15,9 C 47 % 1015,6 hPa 0,0 l/m 10,4 km/h (2 Bft) O 80 1 min 0,000 mm 4,5 UV-I 846 W/m 4,6 C 13,9 C 16,1 km/h (3 Bft) 100,00 %
30.04.2016 12:33 15,9 C 50 % 1015,6 hPa 0,0 l/m 14,2 km/h (3 Bft) NO 37 1 min 0,000 mm 4,5 UV-I 842 W/m 5,5 C 12,5 C 20,9 km/h (4 Bft) 100,00 %
30.04.2016 12:34 15,9 C 47 % 1015,6 hPa 0,0 l/m 11,6 km/h (2 Bft) O-NO 71 1 min 0,000 mm 4,5 UV-I 845 W/m 4,6 C 13,5 C 17,7 km/h (3 Bft) 100,00 %
30.04.2016 12:35 16,0 C 48 % 1015,6 hPa 0,0 l/m 11,5 km/h (2 Bft) O-NO 74 1 min 0,000 mm 4,5 UV-I 847 W/m 5,0 C 13,6 C 14,5 km/h (3 Bft) 100,00 %
30.04.2016 12:36 15,9 C 47 % 1015,5 hPa 0,0 l/m 9,4 km/h (2 Bft) O-NO 61 1 min 0,000 mm 4,5 UV-I 846 W/m 4,6 C 14,4 C 12,9 km/h (3 Bft) 100,00 %
30.04.2016 12:37 15,9 C 47 % 1015,5 hPa 0,0 l/m 15,4 km/h (3 Bft) O-NO 77 1 min 0,000 mm 4,5 UV-I 847 W/m 4,6 C 12,2 C 19,3 km/h (3 Bft) 100,00 %
30.04.2016 12:38 16,1 C 48 % 1015,5 hPa 0,0 l/m 15,8 km/h (3 Bft) NO 54 1 min 0,000 mm 4,5 UV-I 847 W/m 5,1 C 12,3 C 19,3 km/h (3 Bft) 95,83 %
30.04.2016 12:39 16,1 C 46 % 1015,5 hPa 0,0 l/m 15,0 km/h (3 Bft) NO 49 1 min 0,000 mm 4,5 UV-I 846 W/m 4,5 C 12,5 C 19,3 km/h (3 Bft) 100,00 %
30.04.2016 12:40 16,1 C 45 % 1015,5 hPa 0,0 l/m 19,9 km/h (4 Bft) O-NO 67 1 min 0,000 mm 4,5 UV-I 813 W/m 4,2 C 11,2 C 24,1 km/h (4 Bft) 100,00 %
30.04.2016 12:41 16,2 C 45 % 1015,5 hPa 0,0 l/m 14,6 km/h (3 Bft) O-NO 60 1 min 0,000 mm 4,5 UV-I 772 W/m 4,3 C 12,8 C 20,9 km/h (4 Bft) 100,00 %
30.04.2016 12:42 16,2 C 46 % 1015,5 hPa 0,0 l/m 12,9 km/h (3 Bft) O-NO 58 1 min 0,000 mm 4,5 UV-I 691 W/m 4,6 C 13,3 C 19,3 km/h (3 Bft) 100,00 %
30.04.2016 12:43 16,1 C 44 % 1015,5 hPa 0,0 l/m 8,5 km/h (2 Bft) NO 50 1 min 0,000 mm 4,5 UV-I 650 W/m 3,8 C 15,0 C 11,3 km/h (2 Bft) 100,00 %
30.04.2016 12:44 16,1 C 48 % 1015,5 hPa 0,0 l/m 9,4 km/h (2 Bft) NO 40 1 min 0,000 mm 4,5 UV-I 842 W/m 5,1 C 14,6 C 16,1 km/h (3 Bft) 100,00 %
30.04.2016 12:45 16,1 C 49 % 1015,5 hPa 0,0 l/m 14,6 km/h (3 Bft) NO 46 1 min 0,000 mm 4,5 UV-I 851 W/m 5,4 C 12,6 C 20,9 km/h (4 Bft) 100,00 %
30.04.2016 12:46 16,2 C 49 % 1015,5 hPa 0,0 l/m 16,2 km/h (3 Bft) NO 52 1 min 0,000 mm 4,5 UV-I 852 W/m 5,5 C 12,3 C 19,3 km/h (3 Bft) 100,00 %
30.04.2016 12:47 16,2 C 50 % 1015,4 hPa 0,0 l/m 12,7 km/h (3 Bft) NO 38 1 min 0,000 mm 4,6 UV-I 853 W/m 5,8 C 13,4 C 17,7 km/h (3 Bft) 100,00 %
30.04.2016 12:48 16,2 C 48 % 1015,4 hPa 0,0 l/m 10,3 km/h (2 Bft) N-NO 23 1 min 0,000 mm 4,6 UV-I 850 W/m 5,2 C 14,3 C 17,7 km/h (3 Bft) 95,83 %
30.04.2016 12:49 16,3 C 52 % 1015,4 hPa 0,0 l/m 8,3 km/h (2 Bft) NO 42 1 min 0,000 mm 4,6 UV-I 847 W/m 6,4 C 15,3 C 11,3 km/h (2 Bft) 95,65 %
30.04.2016 12:50 16,3 C 51 % 1015,4 hPa 0,0 l/m 9,9 km/h (2 Bft) N 10 1 min 0,000 mm 4,6 UV-I 849 W/m 6,1 C 14,6 C 14,5 km/h (3 Bft) 100,00 %
30.04.2016 12:51 16,5 C 50 % 1015,4 hPa 0,0 l/m 13,0 km/h (3 Bft) NO 52 1 min 0,000 mm 4,6 UV-I 848 W/m 6,0 C 13,6 C 19,3 km/h (3 Bft) 100,00 %
30.04.2016 12:52 16,7 C 51 % 1015,4 hPa 0,0 l/m 9,4 km/h (2 Bft) N-NO 18 1 min 0,000 mm 4,6 UV-I 849 W/m 6,5 C 15,2 C 14,5 km/h (3 Bft) 95,65 %
30.04.2016 12:53 16,7 C 51 % 1015,4 hPa 0,0 l/m 13,6 km/h (3 Bft) NO 53 1 min 0,000 mm 4,6 UV-I 849 W/m 6,5 C 13,7 C 17,7 km/h (3 Bft) 100,00 %
30.04.2016 12:54 16,7 C 45 % 1015,4 hPa 0,0 l/m 15,2 km/h (3 Bft) NO 38 1 min 0,000 mm 4,7 UV-I 853 W/m 4,7 C 13,2 C 19,3 km/h (3 Bft) 100,00 %
30.04.2016 12:55 16,7 C 46 % 1015,4 hPa 0,0 l/m 11,9 km/h (2 Bft) NO 38 1 min 0,000 mm 4,7 UV-I 853 W/m 5,0 C 14,3 C 17,7 km/h (3 Bft) 100,00 %
30.04.2016 12:56 16,7 C 50 % 1015,3 hPa 0,0 l/m 10,8 km/h (2 Bft) NO 45 1 min 0,000 mm 4,7 UV-I 663 W/m 6,2 C 14,7 C 14,5 km/h (3 Bft) 100,00 %
30.04.2016 12:57 16,7 C 48 % 1015,3 hPa 0,0 l/m 17,5 km/h (3 Bft) NO 38 1 min 0,000 mm 4,7 UV-I 718 W/m 5,6 C 12,6 C 20,9 km/h (4 Bft) 100,00 %
30.04.2016 12:58 16,7 C 47 % 1015,3 hPa 0,0 l/m 12,0 km/h (2 Bft) NO 52 1 min 0,000 mm 4,7 UV-I 853 W/m 5,3 C 14,2 C 17,7 km/h (3 Bft) 100,00 %
30.04.2016 12:59 16,8 C 51 % 1015,3 hPa 0,0 l/m 9,3 km/h (2 Bft) NO 38 1 min 0,000 mm 4,5 UV-I 852 W/m 6,6 C 15,4 C 14,5 km/h (3 Bft) 100,00 %
30.04.2016 13:00 16,9 C 51 % 1015,3 hPa 0,0 l/m 9,6 km/h (2 Bft) NO 34 1 min 0,000 mm 4,5 UV-I 851 W/m 6,7 C 15,4 C 19,3 km/h (3 Bft) 90,91 %
30.04.2016 13:02 16,9 C 45 % 1015,3 hPa 0,0 l/m 13,6 km/h (3 Bft) NO 34 2 min 0,508 mm 4,7 UV-I 855 W/m 4,9 C 13,9 C 20,9 km/h (4 Bft) 98,46 %
30.04.2016 13:03 16,9 C 48 % 1015,3 hPa 0,0 l/m 9,0 km/h (2 Bft) O-NO 61 1 min 0,000 mm 4,6 UV-I 852 W/m 5,8 C 15,6 C 14,5 km/h (3 Bft) 100,00 %
30.04.2016 13:04 16,8 C 45 % 1015,3 hPa 0,0 l/m 7,8 km/h (2 Bft) NO 42 1 min 0,000 mm 4,6 UV-I 850 W/m 4,8 C 16,1 C 16,1 km/h (3 Bft) 100,00 %
30.04.2016 13:05 16,9 C 46 % 1015,3 hPa 0,0 l/m 16,1 km/h (3 Bft) NO 51 1 min 0,000 mm 4,7 UV-I 834 W/m 5,2 C 13,2 C 20,9 km/h (4 Bft) 100,00 %
30.04.2016 13:06 16,9 C 43 % 1015,3 hPa 0,0 l/m 14,6 km/h (3 Bft) O-NO 68 1 min 0,000 mm 4,6 UV-I 846 W/m 4,2 C 13,6 C 19,3 km/h (3 Bft) 100,00 %
30.04.2016 13:07 16,9 C 46 % 1015,3 hPa 0,0 l/m 11,3 km/h (2 Bft) NO 41 1 min 0,000 mm 4,6 UV-I 842 W/m 5,2 C 14,7 C 16,1 km/h (3 Bft) 100,00 %
30.04.2016 13:08 16,9 C 52 % 1015,3 hPa 0,0 l/m 6,8 km/h (2 Bft) NO 38 1 min 0,000 mm 4,6 UV-I 853 W/m 7,0 C 16,7 C 12,9 km/h (3 Bft) 100,00 %
30.04.2016 13:09 17,0 C 48 % 1015,3 hPa 0,0 l/m 16,2 km/h (3 Bft) NO 36 1 min 0,000 mm 4,6 UV-I 853 W/m 5,9 C 13,3 C 19,3 km/h (3 Bft) 100,00 %
30.04.2016 13:10 16,9 C 45 % 1015,2 hPa 0,0 l/m 6,1 km/h (2 Bft) NO 38 1 min 0,000 mm 4,6 UV-I 853 W/m 4,9 C 16,9 C 11,3 km/h (2 Bft) 96,15 %
30.04.2016 13:11 17,1 C 45 % 1015,3 hPa 0,0 l/m 9,3 km/h (2 Bft) N-NO 27 1 min 0,000 mm 4,6 UV-I 764 W/m 5,1 C 15,7 C 14,5 km/h (3 Bft) 100,00 %
30.04.2016 13:12 17,2 C 50 % 1015,2 hPa 0,0 l/m 7,0 km/h (2 Bft) O-NO 61 1 min 0,000 mm 4,7 UV-I 726 W/m 6,7 C 16,9 C 9,7 km/h (2 Bft) 100,00 %
30.04.2016 13:13 17,2 C 46 % 1015,2 hPa 0,0 l/m 10,1 km/h (2 Bft) NO 36 1 min 0,000 mm 4,7 UV-I 840 W/m 5,5 C 15,5 C 14,5 km/h (3 Bft) 100,00 %
30.04.2016 13:14 17,3 C 45 % 1015,2 hPa 0,0 l/m 15,4 km/h (3 Bft) NO 43 1 min 0,000 mm 4,7 UV-I 853 W/m 5,3 C 13,9 C 19,3 km/h (3 Bft) 100,00 %
30.04.2016 13:15 17,3 C 45 % 1015,2 hPa 0,0 l/m 11,0 km/h (2 Bft) N-NO 28 1 min 0,000 mm 4,7 UV-I 808 W/m 5,3 C 15,3 C 17,7 km/h (3 Bft) 100,00 %
30.04.2016 13:16 17,3 C 44 % 1015,2 hPa 0,0 l/m 7,7 km/h (2 Bft) O-NO 60 1 min 0,000 mm 4,7 UV-I 719 W/m 4,9 C 16,7 C 12,9 km/h (3 Bft) 100,00 %
30.04.2016 13:17 17,5 C 44 % 1015,2 hPa 0,0 l/m 12,5 km/h (3 Bft) NO 55 1 min 0,000 mm 4,6 UV-I 802 W/m 5,1 C 15,0 C 17,7 km/h (3 Bft) 95,83 %
30.04.2016 13:18 17,4 C 42 % 1015,2 hPa 0,0 l/m 15,8 km/h (3 Bft) O-NO 73 1 min 0,000 mm 4,6 UV-I 848 W/m 4,4 C 13,9 C 19,3 km/h (3 Bft) 100,00 %
30.04.2016 13:19 17,3 C 40 % 1015,2 hPa 0,0 l/m 12,5 km/h (3 Bft) O-NO 60 1 min 0,000 mm 4,6 UV-I 851 W/m 3,6 C 14,8 C 17,7 km/h (3 Bft) 100,00 %
30.04.2016 13:20 17,3 C 41 % 1015,2 hPa 0,0 l/m 13,3 km/h (3 Bft) NO 42 1 min 0,000 mm 4,6 UV-I 851 W/m 3,9 C 14,5 C 17,7 km/h (3 Bft) 100,00 %
30.04.2016 13:21 17,3 C 40 % 1015,1 hPa 0,0 l/m 12,0 km/h (2 Bft) O-NO 60 1 min 0,000 mm 4,6 UV-I 851 W/m 3,6 C 14,9 C 16,1 km/h (3 Bft) 100,00 %
30.04.2016 13:22 17,2 C 40 % 1015,1 hPa 0,0 l/m 10,8 km/h (2 Bft) NO 36 1 min 0,000 mm 4,6 UV-I 851 W/m 3,5 C 15,2 C 14,5 km/h (3 Bft) 100,00 %
30.04.2016 13:23 17,2 C 41 % 1015,1 hPa 0,0 l/m 7,4 km/h (2 Bft) NO 44 1 min 0,000 mm 4,5 UV-I 851 W/m 3,8 C 16,7 C 12,9 km/h (3 Bft) 100,00 %
30.04.2016 13:24 17,3 C 44 % 1015,2 hPa 0,0 l/m 15,3 km/h (3 Bft) NO 55 1 min 0,000 mm 4,6 UV-I 851 W/m 4,9 C 13,9 C 20,9 km/h (4 Bft) 100,00 %
30.04.2016 13:25 17,3 C 44 % 1015,1 hPa 0,0 l/m 11,3 km/h (2 Bft) N-NO 15 1 min 0,000 mm 4,6 UV-I 853 W/m 4,9 C 15,2 C 17,7 km/h (3 Bft) 95,65 %
30.04.2016 13:26 17,3 C 48 % 1015,1 hPa 0,0 l/m 11,6 km/h (2 Bft) O-NO 62 1 min 0,000 mm 4,6 UV-I 850 W/m 6,2 C 15,1 C 17,7 km/h (3 Bft) 100,00 %
30.04.2016 13:27 17,3 C 42 % 1015,0 hPa 0,0 l/m 13,2 km/h (3 Bft) NO 47 1 min 0,000 mm 4,6 UV-I 850 W/m 4,3 C 14,5 C 20,9 km/h (4 Bft) 95,65 %
30.04.2016 13:28 17,3 C 40 % 1015,0 hPa 0,0 l/m 9,9 km/h (2 Bft) N 355 1 min 0,000 mm 4,5 UV-I 849 W/m 3,6 C 15,7 C 14,5 km/h (3 Bft) 100,00 %
30.04.2016 13:29 17,4 C 40 % 1015,0 hPa 0,0 l/m 10,7 km/h (2 Bft) NO 44 1 min 0,000 mm 4,6 UV-I 849 W/m 3,7 C 15,5 C 16,1 km/h (3 Bft) 100,00 %
30.04.2016 13:30 17,5 C 46 % 1015,0 hPa 0,0 l/m 9,3 km/h (2 Bft) N-NO 24 1 min 0,000 mm 4,6 UV-I 847 W/m 5,8 C 16,2 C 14,5 km/h (3 Bft) 100,00 %
30.04.2016 13:31 17,5 C 47 % 1015,0 hPa 0,0 l/m 13,4 km/h (3 Bft) N-NO 19 1 min 0,000 mm 4,6 UV-I 847 W/m 6,1 C 14,7 C 16,1 km/h (3 Bft) 100,00 %
30.04.2016 13:32 17,5 C 45 % 1015,0 hPa 0,0 l/m 9,1 km/h (2 Bft) NO 56 1 min 0,000 mm 4,6 UV-I 848 W/m 5,4 C 16,2 C 12,9 km/h (3 Bft) 100,00 %
30.04.2016 13:33 17,6 C 43 % 1015,0 hPa 0,0 l/m 8,8 km/h (2 Bft) O-NO 65 1 min 0,000 mm 4,6 UV-I 850 W/m 4,9 C 16,5 C 11,3 km/h (2 Bft) 100,00 %
30.04.2016 13:34 17,7 C 40 % 1015,0 hPa 0,0 l/m 12,3 km/h (3 Bft) O 92 1 min 0,000 mm 4,6 UV-I 852 W/m 3,9 C 15,3 C 16,1 km/h (3 Bft) 100,00 %
30.04.2016 13:35 17,7 C 38 % 1015,0 hPa 0,0 l/m 9,3 km/h (2 Bft) O-NO 74 1 min 0,000 mm 4,6 UV-I 852 W/m 3,2 C 16,4 C 14,5 km/h (3 Bft) 100,00 %
30.04.2016 13:36 17,6 C 42 % 1015,0 hPa 0,0 l/m 9,3 km/h (2 Bft) NO 51 1 min 0,000 mm 4,6 UV-I 851 W/m 4,5 C 16,3 C 12,9 km/h (3 Bft) 100,00 %
30.04.2016 13:37 17,7 C 41 % 1014,9 hPa 0,0 l/m 10,3 km/h (2 Bft) NO 46 1 min 0,000 mm 4,5 UV-I 780 W/m 4,3 C 16,0 C 16,1 km/h (3 Bft) 100,00 %
30.04.2016 13:38 17,7 C 40 % 1014,9 hPa 0,0 l/m 15,9 km/h (3 Bft) NO 53 1 min 0,000 mm 4,6 UV-I 848 W/m 3,9 C 14,2 C 19,3 km/h (3 Bft) 100,00 %
30.04.2016 13:39 17,7 C 40 % 1014,9 hPa 0,0 l/m 13,2 km/h (3 Bft) NO 56 1 min 0,000 mm 4,5 UV-I 848 W/m 3,9 C 15,0 C 17,7 km/h (3 Bft) 96,30 %
30.04.2016 13:40 17,6 C 41 % 1014,9 hPa 0,0 l/m 13,5 km/h (3 Bft) NO 42 1 min 0,000 mm 4,5 UV-I 847 W/m 4,2 C 14,8 C 19,3 km/h (3 Bft) 95,65 %
30.04.2016 13:41 17,6 C 43 % 1014,9 hPa 0,0 l/m 13,2 km/h (3 Bft) N 355 1 min 0,000 mm 4,5 UV-I 847 W/m 4,9 C 14,9 C 16,1 km/h (3 Bft) 95,83 %
30.04.2016 13:42 17,6 C 41 % 1014,9 hPa 0,0 l/m 15,0 km/h (3 Bft) O-NO 67 1 min 0,000 mm 4,5 UV-I 847 W/m 4,2 C 14,3 C 17,7 km/h (3 Bft) 96,15 %
30.04.2016 13:43 17,6 C 40 % 1014,9 hPa 0,0 l/m 11,9 km/h (2 Bft) NO 50 1 min 0,000 mm 4,2 UV-I 847 W/m 3,8 C 15,3 C 16,1 km/h (3 Bft) 100,00 %
30.04.2016 13:44 17,7 C 42 % 1014,9 hPa 0,0 l/m 16,2 km/h (3 Bft) NO 36 1 min 0,000 mm 4,5 UV-I 849 W/m 4,6 C 14,1 C 20,9 km/h (4 Bft) 92,31 %
30.04.2016 13:45 17,7 C 44 % 1014,9 hPa 0,0 l/m 10,6 km/h (2 Bft) O-NO 59 1 min 0,000 mm 4,5 UV-I 849 W/m 5,3 C 15,9 C 17,7 km/h (3 Bft) 100,00 %
30.04.2016 13:46 17,7 C 40 % 1014,9 hPa 0,0 l/m 9,6 km/h (2 Bft) O-NO 65 1 min 0,000 mm 4,5 UV-I 849 W/m 3,9 C 16,3 C 14,5 km/h (3 Bft) 91,30 %
30.04.2016 13:47 17,7 C 40 % 1014,9 hPa 0,0 l/m 13,9 km/h (3 Bft) NO 39 1 min 0,000 mm 4,5 UV-I 849 W/m 3,9 C 14,8 C 20,9 km/h (4 Bft) 100,00 %
30.04.2016 13:48 17,7 C 41 % 1014,8 hPa 0,0 l/m 17,6 km/h (3 Bft) NO 41 1 min 0,000 mm 4,5 UV-I 844 W/m 4,3 C 13,8 C 24,1 km/h (4 Bft) 91,30 %
30.04.2016 13:49 17,7 C 40 % 1014,8 hPa 0,0 l/m 16,2 km/h (3 Bft) NO 55 1 min 0,000 mm 4,5 UV-I 844 W/m 3,9 C 14,1 C 19,3 km/h (3 Bft) 95,83 %
30.04.2016 13:50 17,7 C 38 % 1014,8 hPa 0,0 l/m 16,5 km/h (3 Bft) NO 44 1 min 0,000 mm 4,5 UV-I 844 W/m 3,2 C 14,1 C 22,5 km/h (4 Bft) 100,00 %
30.04.2016 13:51 17,7 C 38 % 1014,8 hPa 0,0 l/m 12,4 km/h (3 Bft) N-NO 30 1 min 0,000 mm 4,4 UV-I 844 W/m 3,2 C 15,2 C 16,1 km/h (3 Bft) 100,00 %
30.04.2016 13:52 17,7 C 37 % 1014,8 hPa 0,0 l/m 14,1 km/h (3 Bft) N-NO 31 1 min 0,000 mm 4,4 UV-I 845 W/m 2,8 C 14,7 C 19,3 km/h (3 Bft) 95,83 %
30.04.2016 13:53 17,7 C 39 % 1014,8 hPa 0,0 l/m 13,7 km/h (3 Bft) O-NO 61 1 min 0,000 mm 4,4 UV-I 843 W/m 3,6 C 14,8 C 17,7 km/h (3 Bft) 91,30 %
30.04.2016 13:54 17,7 C 37 % 1014,7 hPa 0,0 l/m 10,9 km/h (2 Bft) O-NO 59 1 min 0,000 mm 4,4 UV-I 846 W/m 2,8 C 15,8 C 16,1 km/h (3 Bft) 100,00 %
30.04.2016 13:55 17,7 C 41 % 1014,7 hPa 0,0 l/m 8,9 km/h (2 Bft) NO 41 1 min 0,000 mm 4,4 UV-I 846 W/m 4,3 C 16,5 C 12,9 km/h (3 Bft) 95,65 %
30.04.2016 13:56 17,7 C 38 % 1014,8 hPa 0,0 l/m 11,0 km/h (2 Bft) O-NO 59 1 min 0,000 mm 4,4 UV-I 840 W/m 3,2 C 15,7 C 16,1 km/h (3 Bft) 100,00 %
30.04.2016 13:57 17,8 C 37 % 1014,7 hPa 0,0 l/m 8,9 km/h (2 Bft) O-NO 59 1 min 0,000 mm 4,4 UV-I 838 W/m 2,9 C 16,7 C 14,5 km/h (3 Bft) 96,15 %
30.04.2016 13:58 17,8 C 44 % 1014,7 hPa 0,0 l/m 11,2 km/h (2 Bft) NO 44 1 min 0,000 mm 4,3 UV-I 838 W/m 5,4 C 15,8 C 14,5 km/h (3 Bft) 95,83 %
30.04.2016 13:59 17,8 C 44 % 1014,7 hPa 0,0 l/m 11,1 km/h (2 Bft) NO 39 1 min 0,000 mm 4,0 UV-I 838 W/m 5,4 C 15,8 C 17,7 km/h (3 Bft) 91,30 %
30.04.2016 14:00 18,0 C 43 % 1014,7 hPa 0,0 l/m 15,0 km/h (3 Bft) O-NO 62 1 min 0,000 mm 4,3 UV-I 838 W/m 5,2 C 14,8 C 19,3 km/h (3 Bft) 91,67 %
30.04.2016 14:02 17,9 C 35 % 1014,7 hPa 0,0 l/m 15,8 km/h (3 Bft) O-NO 66 2 min 0,533 mm 4,4 UV-I 839 W/m 2,2 C 14,5 C 20,9 km/h (4 Bft) 98,00 %
30.04.2016 14:03 17,8 C 35 % 1014,7 hPa 0,0 l/m 13,1 km/h (3 Bft) NO 43 1 min 0,000 mm 4,3 UV-I 840 W/m 2,1 C 15,1 C 19,3 km/h (3 Bft) 91,30 %
30.04.2016 14:04 17,8 C 41 % 1014,6 hPa 0,0 l/m 13,1 km/h (3 Bft) N-NO 30 1 min 0,000 mm 4,3 UV-I 840 W/m 4,4 C 15,1 C 20,9 km/h (4 Bft) 96,30 %
30.04.2016 14:05 17,8 C 42 % 1014,6 hPa 0,0 l/m 10,4 km/h (2 Bft) N-NO 22 1 min 0,000 mm 4,3 UV-I 840 W/m 4,7 C 16,1 C 14,5 km/h (3 Bft) 95,65 %
30.04.2016 14:06 17,8 C 45 % 1014,6 hPa 0,0 l/m 17,1 km/h (3 Bft) N-NO 23 1 min 0,000 mm 4,3 UV-I 834 W/m 5,7 C 14,0 C 22,5 km/h (4 Bft) 91,67 %
30.04.2016 14:07 17,9 C 37 % 1014,6 hPa 0,0 l/m 15,1 km/h (3 Bft) N-NO 21 1 min 0,000 mm 3,8 UV-I 834 W/m 3,0 C 14,7 C 19,3 km/h (3 Bft) 100,00 %
30.04.2016 14:08 18,0 C 39 % 1014,6 hPa 0,0 l/m 10,3 km/h (2 Bft) N-NO 15 1 min 0,000 mm 4,3 UV-I 831 W/m 3,8 C 16,3 C 14,5 km/h (3 Bft) 95,83 %
30.04.2016 14:09 18,1 C 42 % 1014,5 hPa 0,0 l/m 12,9 km/h (3 Bft) N-NO 17 1 min 0,000 mm 4,3 UV-I 833 W/m 5,0 C 15,6 C 20,9 km/h (4 Bft) 95,65 %
30.04.2016 14:10 18,2 C 40 % 1014,5 hPa 0,0 l/m 16,8 km/h (3 Bft) NO 49 1 min 0,000 mm 4,3 UV-I 832 W/m 4,4 C 14,6 C 24,1 km/h (4 Bft) 100,00 %
30.04.2016 14:11 18,2 C 36 % 1014,5 hPa 0,0 l/m 11,3 km/h (2 Bft) NO 34 1 min 0,000 mm 4,2 UV-I 830 W/m 2,9 C 16,2 C 16,1 km/h (3 Bft) 100,00 %
30.04.2016 14:12 18,2 C 41 % 1014,5 hPa 0,0 l/m 12,7 km/h (3 Bft) N-NO 26 1 min 0,000 mm 4,3 UV-I 830 W/m 4,7 C 15,7 C 20,9 km/h (4 Bft) 100,00 %
30.04.2016 14:13 18,2 C 40 % 1014,5 hPa 0,0 l/m 14,9 km/h (3 Bft) O-NO 74 1 min 0,000 mm 4,1 UV-I 829 W/m 4,4 C 15,1 C 20,9 km/h (4 Bft) 100,00 %
30.04.2016 14:14 18,2 C 35 % 1014,5 hPa 0,0 l/m 14,2 km/h (3 Bft) O-NO 61 1 min 0,000 mm 3,7 UV-I 828 W/m 2,5 C 15,3 C 17,7 km/h (3 Bft) 100,00 %
30.04.2016 14:15 18,2 C 33 % 1014,5 hPa 0,0 l/m 16,9 km/h (3 Bft) O 84 1 min 0,000 mm 4,2 UV-I 827 W/m 1,7 C 14,6 C 20,9 km/h (4 Bft) 100,00 %
30.04.2016 14:16 18,2 C 33 % 1014,5 hPa 0,0 l/m 9,3 km/h (2 Bft) NO 39 1 min 0,000 mm 4,2 UV-I 826 W/m 1,7 C 16,9 C 16,1 km/h (3 Bft) 100,00 %
30.04.2016 14:17 18,2 C 35 % 1014,5 hPa 0,0 l/m 8,7 km/h (2 Bft) O-NO 64 1 min 0,000 mm 4,2 UV-I 826 W/m 2,5 C 17,2 C 12,9 km/h (3 Bft) 91,67 %
30.04.2016 14:18 18,3 C 40 % 1014,4 hPa 0,0 l/m 8,3 km/h (2 Bft) NO 55 1 min 0,000 mm 4,2 UV-I 823 W/m 4,5 C 17,4 C 14,5 km/h (3 Bft) 95,65 %
30.04.2016 14:19 18,4 C 36 % 1014,4 hPa 0,0 l/m 18,2 km/h (3 Bft) NO 43 1 min 0,000 mm 4,2 UV-I 823 W/m 3,1 C 14,5 C 22,5 km/h (4 Bft) 100,00 %
30.04.2016 14:20 18,4 C 37 % 1014,4 hPa 0,0 l/m 16,5 km/h (3 Bft) N-NO 29 1 min 0,000 mm 4,0 UV-I 823 W/m 3,5 C 14,9 C 22,5 km/h (4 Bft) 100,00 %
30.04.2016 14:21 18,4 C 38 % 1014,4 hPa 0,0 l/m 18,1 km/h (3 Bft) NO 34 1 min 0,000 mm 3,9 UV-I 823 W/m 3,8 C 14,5 C 22,5 km/h (4 Bft) 100,00 %
30.04.2016 14:22 18,4 C 35 % 1014,4 hPa 0,0 l/m 16,8 km/h (3 Bft) NO 51 1 min 0,000 mm 4,1 UV-I 823 W/m 2,7 C 14,9 C 22,5 km/h (4 Bft) 100,00 %
30.04.2016 14:23 18,3 C 33 % 1014,3 hPa 0,0 l/m 17,2 km/h (3 Bft) O-NO 73 1 min 0,000 mm 4,1 UV-I 821 W/m 1,8 C 14,6 C 20,9 km/h (4 Bft) 100,00 %
30.04.2016 14:24 18,3 C 31 % 1014,3 hPa 0,0 l/m 19,7 km/h (3 Bft) NO 44 1 min 0,000 mm 4,1 UV-I 801 W/m 0,9 C 14,1 C 24,1 km/h (4 Bft) 100,00 %
30.04.2016 14:25 18,2 C 30 % 1014,4 hPa 0,0 l/m 17,5 km/h (3 Bft) O-NO 75 1 min 0,000 mm 4,1 UV-I 682 W/m 0,3 C 14,4 C 22,5 km/h (4 Bft) 100,00 %
30.04.2016 14:26 18,2 C 33 % 1014,4 hPa 0,0 l/m 17,0 km/h (3 Bft) O-NO 78 1 min 0,000 mm 4,1 UV-I 682 W/m 1,7 C 14,6 C 27,4 km/h (4 Bft) 100,00 %
30.04.2016 14:27 18,2 C 32 % 1014,3 hPa 0,0 l/m 20,8 km/h (4 Bft) O-NO 69 1 min 0,000 mm 4,1 UV-I 638 W/m 1,2 C 13,7 C 27,4 km/h (4 Bft) 96,15 %
30.04.2016 14:28 18,2 C 33 % 1014,3 hPa 0,0 l/m 18,0 km/h (3 Bft) O-NO 63 1 min 0,000 mm 4,0 UV-I 770 W/m 1,7 C 14,3 C 25,7 km/h (4 Bft) 100,00 %
30.04.2016 14:29 18,2 C 35 % 1014,3 hPa 0,0 l/m 16,0 km/h (3 Bft) NO 51 1 min 0,000 mm 4,0 UV-I 812 W/m 2,5 C 14,8 C 24,1 km/h (4 Bft) 100,00 %
30.04.2016 14:30 18,2 C 32 % 1014,3 hPa 0,0 l/m 15,9 km/h (3 Bft) NO 51 1 min 0,000 mm 4,0 UV-I 813 W/m 1,2 C 14,8 C 22,5 km/h (4 Bft) 100,00 %
30.04.2016 14:31 18,1 C 31 % 1014,3 hPa 0,0 l/m 11,9 km/h (2 Bft) O-NO 69 1 min 0,000 mm 4,0 UV-I 807 W/m 0,7 C 15,9 C 16,1 km/h (3 Bft) 100,00 %
30.04.2016 14:32 18,2 C 33 % 1014,3 hPa 0,0 l/m 12,1 km/h (2 Bft) NO 53 1 min 0,000 mm 4,0 UV-I 799 W/m 1,7 C 15,9 C 17,7 km/h (3 Bft) 95,83 %
30.04.2016 14:33 18,2 C 33 % 1014,3 hPa 0,0 l/m 14,8 km/h (3 Bft) NO 49 1 min 0,000 mm 4,0 UV-I 803 W/m 1,7 C 15,1 C 20,9 km/h (4 Bft) 100,00 %
30.04.2016 14:34 18,3 C 40 % 1014,3 hPa 0,0 l/m 18,9 km/h (3 Bft) O-NO 63 1 min 0,000 mm 3,9 UV-I 807 W/m 4,5 C 14,2 C 22,5 km/h (4 Bft) 100,00 %
30.04.2016 14:35 18,3 C 32 % 1014,3 hPa 0,0 l/m 16,8 km/h (3 Bft) NO 54 1 min 0,000 mm 3,9 UV-I 803 W/m 1,3 C 14,7 C 22,5 km/h (4 Bft) 95,65 %
30.04.2016 14:36 18,3 C 32 % 1014,3 hPa 0,0 l/m 17,9 km/h (3 Bft) O 97 1 min 0,000 mm 3,9 UV-I 803 W/m 1,3 C 14,5 C 20,9 km/h (4 Bft) 95,83 %
30.04.2016 14:37 18,3 C 34 % 1014,3 hPa 0,0 l/m 17,5 km/h (3 Bft) O-NO 61 1 min 0,000 mm 3,9 UV-I 803 W/m 2,2 C 14,6 C 24,1 km/h (4 Bft) 95,65 %
30.04.2016 14:38 18,3 C 33 % 1014,2 hPa 0,0 l/m 17,2 km/h (3 Bft) NO 44 1 min 0,000 mm 3,9 UV-I 802 W/m 1,8 C 14,6 C 22,5 km/h (4 Bft) 100,00 %
30.04.2016 14:39 18,3 C 35 % 1014,2 hPa 0,0 l/m 13,8 km/h (3 Bft) O 81 1 min 0,000 mm 3,9 UV-I 801 W/m 2,6 C 15,5 C 20,9 km/h (4 Bft) 100,00 %
30.04.2016 14:40 18,3 C 33 % 1014,2 hPa 0,0 l/m 18,4 km/h (3 Bft) O-NO 70 1 min 0,000 mm 3,9 UV-I 800 W/m 1,8 C 14,4 C 22,5 km/h (4 Bft) 100,00 %
30.04.2016 14:41 18,3 C 34 % 1014,2 hPa 0,0 l/m 17,7 km/h (3 Bft) NO 42 1 min 0,000 mm 3,8 UV-I 798 W/m 2,2 C 14,5 C 20,9 km/h (4 Bft) 91,30 %
30.04.2016 14:42 18,3 C 33 % 1014,2 hPa 0,0 l/m 19,2 km/h (3 Bft) O-NO 71 1 min 0,000 mm 3,8 UV-I 796 W/m 1,8 C 14,2 C 24,1 km/h (4 Bft) 100,00 %
30.04.2016 14:43 18,3 C 34 % 1014,1 hPa 0,0 l/m 19,8 km/h (3 Bft) O-NO 74 1 min 0,000 mm 3,8 UV-I 796 W/m 2,2 C 14,1 C 25,7 km/h (4 Bft) 100,00 %
30.04.2016 14:44 18,3 C 33 % 1014,1 hPa 0,0 l/m 17,6 km/h (3 Bft) O-NO 67 1 min 0,000 mm 3,8 UV-I 795 W/m 1,8 C 14,5 C 27,4 km/h (4 Bft) 100,00 %
30.04.2016 14:45 18,4 C 35 % 1014,1 hPa 0,0 l/m 18,5 km/h (3 Bft) O-NO 71 1 min 0,000 mm 3,8 UV-I 792 W/m 2,7 C 14,5 C 22,5 km/h (4 Bft) 100,00 %
30.04.2016 14:46 18,4 C 33 % 1014,1 hPa 0,0 l/m 18,6 km/h (3 Bft) NO 40 1 min 0,000 mm 3,8 UV-I 789 W/m 1,8 C 14,4 C 27,4 km/h (4 Bft) 100,00 %
30.04.2016 14:47 18,3 C 34 % 1014,1 hPa 0,0 l/m 17,0 km/h (3 Bft) NO 55 1 min 0,000 mm 3,7 UV-I 789 W/m 2,2 C 14,7 C 20,9 km/h (4 Bft) 95,65 %
30.04.2016 14:48 18,4 C 33 % 1014,1 hPa 0,0 l/m 19,2 km/h (3 Bft) O-NO 74 1 min 0,000 mm 3,7 UV-I 788 W/m 1,8 C 14,3 C 24,1 km/h (4 Bft) 100,00 %
30.04.2016 14:49 18,3 C 32 % 1014,0 hPa 0,0 l/m 19,0 km/h (3 Bft) O-NO 78 1 min 0,000 mm 3,7 UV-I 785 W/m 1,3 C 14,2 C 24,1 km/h (4 Bft) 100,00 %
30.04.2016 14:50 18,3 C 33 % 1014,0 hPa 0,0 l/m 20,5 km/h (4 Bft) O-NO 67 1 min 0,000 mm 3,7 UV-I 784 W/m 1,8 C 13,9 C 25,7 km/h (4 Bft) 100,00 %
30.04.2016 14:51 18,3 C 35 % 1014,0 hPa 0,0 l/m 19,2 km/h (3 Bft) O-NO 63 1 min 0,000 mm 3,7 UV-I 784 W/m 2,6 C 14,2 C 24,1 km/h (4 Bft) 91,30 %
30.04.2016 14:52 18,3 C 34 % 1014,0 hPa 0,0 l/m 21,3 km/h (4 Bft) O-NO 65 1 min 0,000 mm 3,7 UV-I 780 W/m 2,2 C 13,7 C 25,7 km/h (4 Bft) 100,00 %
30.04.2016 14:53 18,3 C 32 % 1014,0 hPa 0,0 l/m 18,8 km/h (3 Bft) O 82 1 min 0,000 mm 3,6 UV-I 780 W/m 1,3 C 14,3 C 24,1 km/h (4 Bft) 95,65 %
30.04.2016 14:54 18,3 C 32 % 1014,0 hPa 0,0 l/m 14,8 km/h (3 Bft) O-NO 59 1 min 0,000 mm 3,6 UV-I 778 W/m 1,3 C 15,2 C 20,9 km/h (4 Bft) 100,00 %
30.04.2016 14:55 18,3 C 34 % 1014,0 hPa 0,0 l/m 14,5 km/h (3 Bft) O-NO 62 1 min 0,000 mm 3,6 UV-I 775 W/m 2,2 C 15,3 C 19,3 km/h (3 Bft) 100,00 %
30.04.2016 14:56 18,4 C 36 % 1013,9 hPa 0,0 l/m 12,7 km/h (3 Bft) O-NO 61 1 min 0,000 mm 3,6 UV-I 773 W/m 3,1 C 16,0 C 19,3 km/h (3 Bft) 95,83 %
30.04.2016 14:57 18,5 C 35 % 1014,0 hPa 0,0 l/m 13,1 km/h (3 Bft) O 79 1 min 0,000 mm 3,6 UV-I 773 W/m 2,8 C 16,0 C 16,1 km/h (3 Bft) 100,00 %
30.04.2016 14:58 18,6 C 39 % 1013,9 hPa 0,0 l/m 13,9 km/h (3 Bft) N-NO 19 1 min 0,000 mm 3,6 UV-I 772 W/m 4,4 C 15,9 C 20,9 km/h (4 Bft) 100,00 %
30.04.2016 14:59 18,6 C 37 % 1013,9 hPa 0,0 l/m 11,5 km/h (2 Bft) N-NO 30 1 min 0,000 mm 3,6 UV-I 770 W/m 3,6 C 16,6 C 19,3 km/h (3 Bft) 100,00 %
30.04.2016 15:00 18,6 C 35 % 1013,9 hPa 0,0 l/m 15,2 km/h (3 Bft) NO 54 1 min 0,585 mm 3,5 UV-I 767 W/m 2,8 C 15,5 C 19,3 km/h (3 Bft) 100,00 %
30.04.2016 15:02 18,7 C 35 % 1013,9 hPa 0,0 l/m 15,5 km/h (3 Bft) O-NO 72 2 min 0,000 mm 3,5 UV-I 765 W/m 2,9 C 15,5 C 24,1 km/h (4 Bft) 100,00 %
30.04.2016 15:03 18,7 C 33 % 1013,9 hPa 0,0 l/m 17,8 km/h (3 Bft) O 88 1 min 0,000 mm 3,5 UV-I 764 W/m 2,1 C 15,0 C 20,9 km/h (4 Bft) 100,00 %
30.04.2016 15:04 18,6 C 33 % 1013,8 hPa 0,0 l/m 18,3 km/h (3 Bft) NO 43 1 min 0,000 mm 3,4 UV-I 761 W/m 2,0 C 14,8 C 22,5 km/h (4 Bft) 100,00 %
30.04.2016 15:05 18,7 C 36 % 1013,9 hPa 0,0 l/m 14,6 km/h (3 Bft) NO 56 1 min 0,000 mm 3,4 UV-I 761 W/m 3,3 C 15,8 C 20,9 km/h (4 Bft) 95,83 %
30.04.2016 15:06 18,6 C 34 % 1013,8 hPa 0,0 l/m 16,6 km/h (3 Bft) O-NO 61 1 min 0,000 mm 3,4 UV-I 759 W/m 2,4 C 15,2 C 20,9 km/h (4 Bft) 100,00 %
30.04.2016 15:07 18,6 C 33 % 1013,8 hPa 0,0 l/m 18,5 km/h (3 Bft) O-NO 59 1 min 0,000 mm 3,4 UV-I 759 W/m 2,0 C 14,7 C 24,1 km/h (4 Bft) 91,67 %
30.04.2016 15:08 18,6 C 34 % 1013,8 hPa 0,0 l/m 19,9 km/h (4 Bft) O 82 1 min 0,000 mm 3,4 UV-I 757 W/m 2,4 C 14,4 C 25,7 km/h (4 Bft) 100,00 %
30.04.2016 15:09 18,6 C 34 % 1013,8 hPa 0,0 l/m 17,1 km/h (3 Bft) O-NO 78 1 min 0,000 mm 3,4 UV-I 753 W/m 2,4 C 15,0 C 22,5 km/h (4 Bft) 100,00 %
30.04.2016 15:10 18,5 C 34 % 1013,8 hPa 0,0 l/m 16,1 km/h (3 Bft) O-NO 63 1 min 0,000 mm 3,4 UV-I 752 W/m 2,3 C 15,1 C 19,3 km/h (3 Bft) 100,00 %
30.04.2016 15:11 18,5 C 34 % 1013,7 hPa 0,0 l/m 14,7 km/h (3 Bft) O-NO 61 1 min 0,000 mm 3,3 UV-I 753 W/m 2,3 C 15,5 C 22,5 km/h (4 Bft) 100,00 %
30.04.2016 15:12 18,6 C 36 % 1013,7 hPa 0,0 l/m 22,9 km/h (4 Bft) O-NO 74 1 min 0,000 mm 3,3 UV-I 748 W/m 3,2 C 13,8 C 30,6 km/h (5 Bft) 100,00 %
30.04.2016 15:13 18,6 C 33 % 1013,7 hPa 0,0 l/m 25,0 km/h (4 Bft) NO 53 1 min 0,000 mm 3,3 UV-I 747 W/m 2,0 C 13,5 C 32,2 km/h (5 Bft) 100,00 %
30.04.2016 15:14 18,6 C 32 % 1013,7 hPa 0,0 l/m 19,8 km/h (3 Bft) NO 37 1 min 0,000 mm 3,3 UV-I 745 W/m 1,6 C 14,4 C 27,4 km/h (4 Bft) 100,00 %
30.04.2016 15:15 18,7 C 33 % 1013,7 hPa 0,0 l/m 17,6 km/h (3 Bft) O 84 1 min 0,000 mm 3,2 UV-I 741 W/m 2,1 C 15,0 C 22,5 km/h (4 Bft) 100,00 %
30.04.2016 15:16 18,7 C 31 % 1013,7 hPa 0,0 l/m 12,9 km/h (3 Bft) O 85 1 min 0,000 mm 3,2 UV-I 744 W/m 1,2 C 16,3 C 20,9 km/h (4 Bft) 100,00 %
30.04.2016 15:17 18,7 C 30 % 1013,7 hPa 0,0 l/m 17,1 km/h (3 Bft) O-NO 57 1 min 0,000 mm 3,2 UV-I 742 W/m 0,8 C 15,2 C 24,1 km/h (4 Bft) 100,00 %
30.04.2016 15:18 18,6 C 31 % 1013,7 hPa 0,0 l/m 10,2 km/h (2 Bft) NO 51 1 min 0,000 mm 3,2 UV-I 741 W/m 1,1 C 17,0 C 14,5 km/h (3 Bft) 100,00 %
30.04.2016 15:19 18,6 C 35 % 1013,7 hPa 0,0 l/m 15,7 km/h (3 Bft) O-NO 61 1 min 0,000 mm 3,2 UV-I 737 W/m 2,8 C 15,4 C 24,1 km/h (4 Bft) 100,00 %
30.04.2016 15:20 18,7 C 33 % 1013,6 hPa 0,0 l/m 19,4 km/h (3 Bft) O-NO 73 1 min 0,000 mm 3,2 UV-I 736 W/m 2,1 C 14,6 C 24,1 km/h (4 Bft) 100,00 %
30.04.2016 15:21 18,7 C 34 % 1013,6 hPa 0,0 l/m 18,5 km/h (3 Bft) O-NO 75 1 min 0,000 mm 3,2 UV-I 735 W/m 2,5 C 14,8 C 22,5 km/h (4 Bft) 95,65 %
30.04.2016 15:22 18,7 C 32 % 1013,6 hPa 0,0 l/m 19,0 km/h (3 Bft) O-NO 77 1 min 0,000 mm 3,1 UV-I 731 W/m 1,7 C 14,7 C 24,1 km/h (4 Bft) 95,83 %
30.04.2016 15:23 18,7 C 34 % 1013,6 hPa 0,0 l/m 18,8 km/h (3 Bft) NO 50 1 min 0,000 mm 3,1 UV-I 728 W/m 2,5 C 14,8 C 24,1 km/h (4 Bft) 100,00 %
30.04.2016 15:24 18,7 C 32 % 1013,5 hPa 0,0 l/m 19,2 km/h (3 Bft) O 80 1 min 0,000 mm 3,1 UV-I 725 W/m 1,7 C 14,7 C 22,5 km/h (4 Bft) 95,83 %
30.04.2016 15:25 18,6 C 33 % 1013,5 hPa 0,0 l/m 15,6 km/h (3 Bft) O-NO 59 1 min 0,000 mm 3,1 UV-I 724 W/m 2,0 C 15,4 C 22,5 km/h (4 Bft) 100,00 %
30.04.2016 15:26 18,7 C 35 % 1013,5 hPa 0,0 l/m 15,4 km/h (3 Bft) NO 35 1 min 0,000 mm 3,1 UV-I 723 W/m 2,9 C 15,6 C 22,5 km/h (4 Bft) 100,00 %
30.04.2016 15:27 18,8 C 36 % 1013,5 hPa 0,0 l/m 15,9 km/h (3 Bft) NO 42 1 min 0,000 mm 3,1 UV-I 720 W/m 3,4 C 15,6 C 24,1 km/h (4 Bft) 97,14 %
30.04.2016 15:28 18,9 C 39 % 1013,5 hPa 0,0 l/m 14,6 km/h (3 Bft) NO 50 1 min 0,000 mm 3,0 UV-I 717 W/m 4,6 C 16,0 C 19,3 km/h (3 Bft) 91,67 %
30.04.2016 15:29 18,9 C 34 % 1013,5 hPa 0,0 l/m 21,1 km/h (4 Bft) NO 44 1 min 0,000 mm 3,0 UV-I 714 W/m 2,7 C 14,6 C 27,4 km/h (4 Bft) 100,00 %
30.04.2016 15:30 18,9 C 32 % 1013,5 hPa 0,0 l/m 23,3 km/h (4 Bft) O-NO 59 1 min 0,000 mm 3,0 UV-I 714 W/m 1,8 C 14,2 C 29,0 km/h (5 Bft) 95,83 %
30.04.2016 15:31 18,8 C 30 % 1013,5 hPa 0,0 l/m 17,9 km/h (3 Bft) O-NO 76 1 min 0,000 mm 3,0 UV-I 714 W/m 0,9 C 15,1 C 24,1 km/h (4 Bft) 100,00 %
30.04.2016 15:32 18,7 C 32 % 1013,4 hPa 0,0 l/m 16,4 km/h (3 Bft) NO 39 1 min 0,000 mm 3,0 UV-I 714 W/m 1,7 C 15,3 C 24,1 km/h (4 Bft) 91,30 %
30.04.2016 15:33 18,7 C 33 % 1013,4 hPa 0,0 l/m 17,0 km/h (3 Bft) NO 51 1 min 0,000 mm 3,0 UV-I 712 W/m 2,1 C 15,2 C 22,5 km/h (4 Bft) 100,00 %
30.04.2016 15:34 18,7 C 34 % 1013,4 hPa 0,0 l/m 20,4 km/h (4 Bft) O-NO 59 1 min 0,000 mm 2,9 UV-I 708 W/m 2,5 C 14,4 C 25,7 km/h (4 Bft) 95,65 %
30.04.2016 15:35 18,8 C 34 % 1013,3 hPa 0,0 l/m 10,5 km/h (2 Bft) O-NO 59 1 min 0,000 mm 2,9 UV-I 707 W/m 2,6 C 17,1 C 16,1 km/h (3 Bft) 96,30 %
30.04.2016 15:36 18,8 C 32 % 1013,4 hPa 0,0 l/m 18,0 km/h (3 Bft) O-NO 65 1 min 0,000 mm 2,9 UV-I 704 W/m 1,8 C 15,1 C 27,4 km/h (4 Bft) 100,00 %
30.04.2016 15:37 18,8 C 31 % 1013,3 hPa 0,0 l/m 18,3 km/h (3 Bft) N-NO 28 1 min 0,000 mm 2,9 UV-I 703 W/m 1,3 C 15,0 C 24,1 km/h (4 Bft) 95,83 %
30.04.2016 15:38 18,8 C 31 % 1013,3 hPa 0,0 l/m 17,0 km/h (3 Bft) NO 39 1 min 0,000 mm 2,9 UV-I 701 W/m 1,3 C 15,3 C 20,9 km/h (4 Bft) 100,00 %
30.04.2016 15:39 18,8 C 34 % 1013,3 hPa 0,0 l/m 19,7 km/h (3 Bft) N-NO 29 1 min 0,000 mm 2,9 UV-I 700 W/m 2,6 C 14,7 C 24,1 km/h (4 Bft) 96,55 %
30.04.2016 15:40 18,8 C 35 % 1013,3 hPa 0,0 l/m 15,6 km/h (3 Bft) N-NO 32 1 min 0,000 mm 2,8 UV-I 696 W/m 3,0 C 15,6 C 20,9 km/h (4 Bft) 95,65 %
30.04.2016 15:41 18,8 C 38 % 1013,2 hPa 0,0 l/m 16,6 km/h (3 Bft) N-NO 24 1 min 0,000 mm 2,8 UV-I 694 W/m 4,2 C 15,4 C 22,5 km/h (4 Bft) 95,83 %
30.04.2016 15:42 18,8 C 36 % 1013,2 hPa 0,0 l/m 14,2 km/h (3 Bft) N-NO 14 1 min 0,000 mm 2,8 UV-I 692 W/m 3,4 C 16,0 C 20,9 km/h (4 Bft) 95,65 %
30.04.2016 15:43 18,8 C 36 % 1013,2 hPa 0,0 l/m 13,6 km/h (3 Bft) NO 55 1 min 0,000 mm 2,8 UV-I 690 W/m 3,4 C 16,2 C 19,3 km/h (3 Bft) 91,67 %
30.04.2016 15:44 18,8 C 31 % 1013,2 hPa 0,0 l/m 15,3 km/h (3 Bft) NO 55 1 min 0,000 mm 2,8 UV-I 687 W/m 1,3 C 15,7 C 20,9 km/h (4 Bft) 88,46 %
30.04.2016 15:45 18,8 C 33 % 1013,2 hPa 0,0 l/m 12,5 km/h (3 Bft) NO 48 1 min 0,000 mm 2,7 UV-I 684 W/m 2,2 C 16,5 C 19,3 km/h (3 Bft) 100,00 %
30.04.2016 15:46 18,8 C 37 % 1013,2 hPa 0,0 l/m 12,7 km/h (3 Bft) N 9 1 min 0,000 mm 2,7 UV-I 680 W/m 3,8 C 16,4 C 19,3 km/h (3 Bft) 100,00 %
30.04.2016 15:47 18,9 C 39 % 1013,2 hPa 0,0 l/m 15,0 km/h (3 Bft) N 5 1 min 0,000 mm 2,7 UV-I 678 W/m 4,6 C 15,9 C 20,9 km/h (4 Bft) 96,55 %
30.04.2016 15:48 19,0 C 37 % 1013,2 hPa 0,0 l/m 16,2 km/h (3 Bft) NO 41 1 min 0,000 mm 2,7 UV-I 676 W/m 4,0 C 15,7 C 20,9 km/h (4 Bft) 91,67 %
30.04.2016 15:49 19,0 C 33 % 1013,2 hPa 0,0 l/m 10,9 km/h (2 Bft) O-NO 57 1 min 0,000 mm 2,7 UV-I 674 W/m 2,4 C 17,2 C 16,1 km/h (3 Bft) 96,15 %
30.04.2016 15:50 19,1 C 30 % 1013,2 hPa 0,0 l/m 13,5 km/h (3 Bft) O-NO 63 1 min 0,000 mm 2,6 UV-I 672 W/m 1,1 C 16,6 C 16,1 km/h (3 Bft) 95,65 %
30.04.2016 15:51 19,1 C 30 % 1013,2 hPa 0,0 l/m 16,5 km/h (3 Bft) NO 53 1 min 0,000 mm 2,6 UV-I 671 W/m 1,1 C 15,8 C 25,7 km/h (4 Bft) 100,00 %
30.04.2016 15:52 19,0 C 31 % 1013,1 hPa 0,0 l/m 15,3 km/h (3 Bft) NO 41 1 min 0,000 mm 2,6 UV-I 670 W/m 1,5 C 16,0 C 19,3 km/h (3 Bft) 95,83 %
30.04.2016 15:53 18,9 C 31 % 1013,1 hPa 0,0 l/m 11,3 km/h (2 Bft) NO 48 1 min 0,000 mm 2,6 UV-I 667 W/m 1,4 C 17,0 C 17,7 km/h (3 Bft) 95,65 %
30.04.2016 15:54 18,9 C 31 % 1013,2 hPa 0,0 l/m 13,2 km/h (3 Bft) O-NO 61 1 min 0,000 mm 2,6 UV-I 665 W/m 1,4 C 16,4 C 17,7 km/h (3 Bft) 100,00 %
30.04.2016 15:55 19,0 C 33 % 1013,2 hPa 0,0 l/m 14,4 km/h (3 Bft) O-NO 58 1 min 0,000 mm 2,6 UV-I 664 W/m 2,4 C 16,2 C 19,3 km/h (3 Bft) 91,30 %
30.04.2016 15:56 19,0 C 32 % 1013,1 hPa 0,0 l/m 13,4 km/h (3 Bft) O-NO 74 1 min 0,000 mm 2,5 UV-I 662 W/m 1,9 C 16,5 C 16,1 km/h (3 Bft) 100,00 %
30.04.2016 15:57 19,0 C 30 % 1013,2 hPa 0,0 l/m 19,0 km/h (3 Bft) O-NO 66 1 min 0,000 mm 2,5 UV-I 659 W/m 1,0 C 15,1 C 24,1 km/h (4 Bft) 95,65 %
30.04.2016 15:58 18,9 C 29 % 1013,1 hPa 0,0 l/m 20,9 km/h (4 Bft) O-NO 64 1 min 0,000 mm 2,5 UV-I 656 W/m 0,5 C 14,6 C 27,4 km/h (4 Bft) 100,00 %
30.04.2016 15:59 18,9 C 28 % 1013,1 hPa 0,0 l/m 22,1 km/h (4 Bft) O-NO 57 1 min 0,000 mm 2,5 UV-I 654 W/m -0,0 C 14,4 C 25,7 km/h (4 Bft) 96,15 %
30.04.2016 16:00 18,9 C 29 % 1013,1 hPa 0,0 l/m 20,0 km/h (4 Bft) O-NO 57 1 min 0,000 mm 2,5 UV-I 652 W/m 0,5 C 14,8 C 25,7 km/h (4 Bft) 100,00 %
30.04.2016 16:02 18,8 C 33 % 1013,1 hPa 0,0 l/m 18,9 km/h (3 Bft) NO 40 2 min 0,558 mm 2,4 UV-I 649 W/m 2,2 C 14,9 C 25,7 km/h (4 Bft) 100,00 %
30.04.2016 16:03 18,7 C 29 % 1013,1 hPa 0,0 l/m 16,5 km/h (3 Bft) N-NO 15 1 min 0,000 mm 2,4 UV-I 645 W/m 0,3 C 15,3 C 20,9 km/h (4 Bft) 100,00 %
30.04.2016 16:04 18,7 C 33 % 1013,0 hPa 0,0 l/m 18,5 km/h (3 Bft) O-NO 65 1 min 0,000 mm 2,4 UV-I 642 W/m 2,1 C 14,8 C 24,1 km/h (4 Bft) 96,30 %
30.04.2016 16:05 18,7 C 30 % 1013,0 hPa 0,0 l/m 21,0 km/h (4 Bft) O-NO 57 1 min 0,000 mm 2,4 UV-I 639 W/m 0,8 C 14,3 C 27,4 km/h (4 Bft) 100,00 %
30.04.2016 16:06 18,7 C 28 % 1013,0 hPa 0,0 l/m 17,5 km/h (3 Bft) O-NO 68 1 min 0,000 mm 2,4 UV-I 638 W/m -0,2 C 15,1 C 24,1 km/h (4 Bft) 91,67 %
30.04.2016 16:07 18,7 C 27 % 1013,0 hPa 0,0 l/m 21,8 km/h (4 Bft) O-NO 61 1 min 0,000 mm 2,3 UV-I 636 W/m -0,7 C 14,2 C 27,4 km/h (4 Bft) 100,00 %
30.04.2016 16:08 18,7 C 28 % 1013,0 hPa 0,0 l/m 20,0 km/h (4 Bft) O-NO 63 1 min 0,000 mm 2,3 UV-I 633 W/m -0,2 C 14,5 C 24,1 km/h (4 Bft) 100,00 %
30.04.2016 16:09 18,8 C 26 % 1013,0 hPa 0,0 l/m 20,8 km/h (4 Bft) NO 50 1 min 0,000 mm 2,3 UV-I 631 W/m -1,1 C 14,5 C 29,0 km/h (5 Bft) 95,83 %
30.04.2016 16:10 18,8 C 26 % 1013,0 hPa 0,0 l/m 16,3 km/h (3 Bft) O-NO 64 1 min 0,000 mm 2,3 UV-I 630 W/m -1,1 C 15,5 C 22,5 km/h (4 Bft) 100,00 %
30.04.2016 16:11 18,8 C 27 % 1013,0 hPa 0,0 l/m 13,9 km/h (3 Bft) NO 55 1 min 0,000 mm 2,3 UV-I 629 W/m -0,6 C 16,1 C 20,9 km/h (4 Bft) 100,00 %
30.04.2016 16:12 18,8 C 29 % 1013,0 hPa 0,0 l/m 19,4 km/h (3 Bft) O-NO 58 1 min 0,000 mm 2,3 UV-I 627 W/m 0,4 C 14,8 C 29,0 km/h (5 Bft) 100,00 %
30.04.2016 16:13 18,8 C 27 % 1012,9 hPa 0,0 l/m 22,6 km/h (4 Bft) NO 55 1 min 0,000 mm 2,2 UV-I 623 W/m -0,6 C 14,2 C 32,2 km/h (5 Bft) 100,00 %
30.04.2016 16:14 18,8 C 28 % 1012,9 hPa 0,0 l/m 18,9 km/h (3 Bft) O-NO 74 1 min 0,000 mm 2,2 UV-I 621 W/m -0,1 C 14,9 C 22,5 km/h (4 Bft) 100,00 %
30.04.2016 16:15 18,8 C 28 % 1012,9 hPa 0,0 l/m 23,4 km/h (4 Bft) NO 53 1 min 0,000 mm 2,2 UV-I 619 W/m -0,1 C 14,0 C 29,0 km/h (5 Bft) 100,00 %
30.04.2016 16:16 18,8 C 28 % 1013,0 hPa 0,0 l/m 17,4 km/h (3 Bft) O-NO 73 1 min 0,000 mm 2,2 UV-I 616 W/m -0,1 C 15,2 C 22,5 km/h (4 Bft) 100,00 %
30.04.2016 16:17 18,8 C 29 % 1012,9 hPa 0,0 l/m 20,0 km/h (4 Bft) NO 49 1 min 0,000 mm 2,2 UV-I 614 W/m 0,4 C 14,7 C 24,1 km/h (4 Bft) 100,00 %
30.04.2016 16:18 18,8 C 27 % 1012,9 hPa 0,0 l/m 16,7 km/h (3 Bft) O-NO 67 1 min 0,000 mm 2,2 UV-I 611 W/m -0,6 C 15,4 C 25,7 km/h (4 Bft) 100,00 %
30.04.2016 16:19 18,8 C 29 % 1012,9 hPa 0,0 l/m 18,0 km/h (3 Bft) NO 48 1 min 0,000 mm 2,1 UV-I 607 W/m 0,4 C 15,1 C 24,1 km/h (4 Bft) 100,00 %
30.04.2016 16:20 18,8 C 29 % 1012,9 hPa 0,0 l/m 19,3 km/h (3 Bft) O-NO 67 1 min 0,000 mm 2,2 UV-I 610 W/m 0,4 C 14,8 C 32,2 km/h (5 Bft) 97,37 %
30.04.2016 16:25 18,9 C 29 % 1012,8 hPa 0,0 l/m 19,3 km/h (3 Bft) NO 45 5 min 0,000 mm 2,1 UV-I 598 W/m 0,5 C 14,9 C 29,0 km/h (5 Bft) 97,37 %
30.04.2016 16:30 19,0 C 28 % 1012,7 hPa 0,0 l/m 17,7 km/h (3 Bft) O-NO 67 5 min 0,000 mm 2,0 UV-I 584 W/m 0,1 C 15,4 C 30,6 km/h (5 Bft) 98,25 %
30.04.2016 16:35 19,1 C 31 % 1012,7 hPa 0,0 l/m 14,5 km/h (3 Bft) O-NO 67 5 min 0,000 mm 1,9 UV-I 571 W/m 1,6 C 16,3 C 24,1 km/h (4 Bft) 100,00 %
30.04.2016 16:40 19,1 C 33 % 1012,5 hPa 0,0 l/m 19,3 km/h (3 Bft) O-NO 67 5 min 0,000 mm 1,8 UV-I 556 W/m 2,5 C 15,2 C 29,0 km/h (5 Bft) 98,25 %
30.04.2016 16:45 19,1 C 30 % 1012,6 hPa 0,0 l/m 19,1 km/h (3 Bft) O-NO 64 5 min 0,000 mm 2,0 UV-I 585 W/m 1,1 C 15,2 C 20,9 km/h (4 Bft) 99,16 %
30.04.2016 16:46 19,1 C 28 % 1012,5 hPa 0,0 l/m 16,4 km/h (3 Bft) O-NO 75 1 min 0,000 mm 1,7 UV-I 536 W/m 0,2 C 15,8 C 22,5 km/h (4 Bft) 100,00 %
30.04.2016 16:47 19,1 C 29 % 1012,6 hPa 0,0 l/m 14,6 km/h (3 Bft) NO 51 1 min 0,000 mm 1,6 UV-I 534 W/m 0,7 C 16,3 C 22,5 km/h (4 Bft) 100,00 %
30.04.2016 16:48 19,1 C 29 % 1012,5 hPa 0,0 l/m 15,6 km/h (3 Bft) NO 36 1 min 0,000 mm 1,6 UV-I 532 W/m 0,7 C 16,0 C 19,3 km/h (3 Bft) 100,00 %
30.04.2016 16:49 19,1 C 31 % 1012,5 hPa 0,0 l/m 19,8 km/h (3 Bft) O-NO 57 1 min 0,000 mm 1,6 UV-I 531 W/m 1,6 C 15,1 C 27,4 km/h (4 Bft) 100,00 %
30.04.2016 16:50 19,1 C 27 % 1012,5 hPa 0,0 l/m 21,6 km/h (4 Bft) NO 55 1 min 0,000 mm 1,6 UV-I 529 W/m -0,3 C 14,7 C 27,4 km/h (4 Bft) 100,00 %
30.04.2016 16:51 19,1 C 27 % 1012,5 hPa 0,0 l/m 20,9 km/h (4 Bft) O-NO 69 1 min 0,000 mm 1,6 UV-I 525 W/m -0,3 C 14,9 C 25,7 km/h (4 Bft) 95,65 %
30.04.2016 16:52 19,1 C 28 % 1012,5 hPa 0,0 l/m 20,5 km/h (4 Bft) NO 55 1 min 0,000 mm 1,6 UV-I 520 W/m 0,2 C 14,9 C 27,4 km/h (4 Bft) 100,00 %
30.04.2016 16:53 19,1 C 28 % 1012,5 hPa 0,0 l/m 15,6 km/h (3 Bft) NO 46 1 min 0,000 mm 1,5 UV-I 519 W/m 0,2 C 16,0 C 19,3 km/h (3 Bft) 100,00 %
30.04.2016 16:54 19,0 C 29 % 1012,5 hPa 0,0 l/m 18,9 km/h (3 Bft) O-NO 63 1 min 0,000 mm 1,5 UV-I 516 W/m 0,6 C 15,1 C 27,4 km/h (4 Bft) 100,00 %
30.04.2016 16:55 19,0 C 27 % 1012,5 hPa 0,0 l/m 18,3 km/h (3 Bft) O-NO 61 1 min 0,000 mm 1,5 UV-I 513 W/m -0,4 C 15,3 C 27,4 km/h (4 Bft) 100,00 %
30.04.2016 16:56 19,0 C 28 % 1012,4 hPa 0,0 l/m 20,9 km/h (4 Bft) O-NO 61 1 min 0,000 mm 1,5 UV-I 513 W/m 0,1 C 14,7 C 25,7 km/h (4 Bft) 100,00 %
30.04.2016 16:57 18,9 C 28 % 1012,4 hPa 0,0 l/m 23,3 km/h (4 Bft) NO 52 1 min 0,000 mm 1,5 UV-I 510 W/m -0,0 C 14,2 C 30,6 km/h (5 Bft) 100,00 %
30.04.2016 16:58 18,9 C 28 % 1012,4 hPa 0,0 l/m 22,9 km/h (4 Bft) O 84 1 min 0,000 mm 1,5 UV-I 507 W/m -0,0 C 14,2 C 30,6 km/h (5 Bft) 100,00 %
30.04.2016 16:59 18,9 C 28 % 1012,4 hPa 0,0 l/m 20,5 km/h (4 Bft) O-NO 57 1 min 0,000 mm 1,4 UV-I 504 W/m -0,0 C 14,7 C 29,0 km/h (5 Bft) 100,00 %
30.04.2016 17:00 18,9 C 28 % 1012,4 hPa 0,0 l/m 25,1 km/h (4 Bft) O 94 1 min 0,508 mm 1,4 UV-I 502 W/m -0,0 C 13,9 C 29,0 km/h (5 Bft) 100,00 %
30.04.2016 17:02 18,9 C 27 % 1012,5 hPa 0,0 l/m 23,4 km/h (4 Bft) O-NO 70 2 min 0,000 mm 1,4 UV-I 498 W/m -0,5 C 14,2 C 35,4 km/h (5 Bft) 100,00 %
30.04.2016 17:03 18,8 C 27 % 1012,4 hPa 0,0 l/m 17,4 km/h (3 Bft) O-NO 77 1 min 0,000 mm 1,4 UV-I 493 W/m -0,6 C 15,2 C 24,1 km/h (4 Bft) 100,00 %
30.04.2016 17:04 18,8 C 29 % 1012,4 hPa 0,0 l/m 16,2 km/h (3 Bft) O-NO 63 1 min 0,000 mm 1,4 UV-I 490 W/m 0,4 C 15,5 C 22,5 km/h (4 Bft) 100,00 %
30.04.2016 17:05 18,9 C 29 % 1012,4 hPa 0,0 l/m 21,4 km/h (4 Bft) O-NO 57 1 min 0,000 mm 1,3 UV-I 487 W/m 0,5 C 14,5 C 25,7 km/h (4 Bft) 100,00 %
30.04.2016 17:06 18,9 C 29 % 1012,4 hPa 0,0 l/m 20,0 km/h (4 Bft) O-NO 68 1 min 0,000 mm 1,3 UV-I 484 W/m 0,5 C 14,8 C 24,1 km/h (4 Bft) 100,00 %
30.04.2016 17:07 18,9 C 29 % 1012,4 hPa 0,0 l/m 17,1 km/h (3 Bft) NO 53 1 min 0,000 mm 1,3 UV-I 480 W/m 0,5 C 15,4 C 25,7 km/h (4 Bft) 100,00 %
30.04.2016 17:08 18,9 C 29 % 1012,4 hPa 0,0 l/m 18,4 km/h (3 Bft) N-NO 32 1 min 0,000 mm 1,3 UV-I 478 W/m 0,5 C 15,1 C 27,4 km/h (4 Bft) 100,00 %
30.04.2016 17:10 18,9 C 28 % 1012,4 hPa 0,0 l/m 20,4 km/h (4 Bft) O-NO 65 2 min 0,000 mm 1,3 UV-I 475 W/m -0,0 C 14,7 C 22,5 km/h (4 Bft) 97,78 %
30.04.2016 17:11 18,9 C 28 % 1012,4 hPa 0,0 l/m 15,7 km/h (3 Bft) N-NO 19 1 min 0,000 mm 1,3 UV-I 471 W/m -0,0 C 15,7 C 24,1 km/h (4 Bft) 100,00 %
30.04.2016 17:12 18,9 C 30 % 1012,4 hPa 0,0 l/m 18,7 km/h (3 Bft) NO 46 1 min 0,000 mm 1,2 UV-I 468 W/m 1,0 C 15,1 C 27,4 km/h (4 Bft) 100,00 %
30.04.2016 17:13 18,8 C 30 % 1012,4 hPa 0,0 l/m 15,1 km/h (3 Bft) NO 42 1 min 0,000 mm 1,2 UV-I 466 W/m 0,9 C 15,8 C 20,9 km/h (4 Bft) 100,00 %
30.04.2016 17:14 18,9 C 30 % 1012,4 hPa 0,0 l/m 14,3 km/h (3 Bft) NO 52 1 min 0,000 mm 1,2 UV-I 462 W/m 1,0 C 16,1 C 20,9 km/h (4 Bft) 95,65 %
30.04.2016 17:15 18,9 C 29 % 1012,4 hPa 0,0 l/m 20,7 km/h (4 Bft) O-NO 59 1 min 0,000 mm 1,2 UV-I 460 W/m 0,5 C 14,6 C 27,4 km/h (4 Bft) 100,00 %
30.04.2016 17:16 18,9 C 30 % 1012,4 hPa 0,0 l/m 21,7 km/h (4 Bft) O 82 1 min 0,000 mm 1,2 UV-I 456 W/m 1,0 C 14,5 C 32,2 km/h (5 Bft) 100,00 %
30.04.2016 17:17 18,9 C 27 % 1012,4 hPa 0,0 l/m 24,9 km/h (4 Bft) O 90 1 min 0,000 mm 1,2 UV-I 454 W/m -0,5 C 13,9 C 30,6 km/h (5 Bft) 100,00 %
30.04.2016 17:18 18,8 C 28 % 1012,4 hPa 0,0 l/m 24,2 km/h (4 Bft) O 101 1 min 0,000 mm 1,2 UV-I 452 W/m -0,1 C 13,9 C 30,6 km/h (5 Bft) 95,65 %
30.04.2016 17:19 18,8 C 27 % 1012,3 hPa 0,0 l/m 21,2 km/h (4 Bft) O-NO 68 1 min 0,000 mm 1,1 UV-I 448 W/m -0,6 C 14,4 C 27,4 km/h (4 Bft) 100,00 %
30.04.2016 17:20 18,8 C 28 % 1012,3 hPa 0,0 l/m 23,5 km/h (4 Bft) O-NO 71 1 min 0,000 mm 1,1 UV-I 446 W/m -0,1 C 14,0 C 29,0 km/h (5 Bft) 100,00 %
30.04.2016 17:21 18,8 C 28 % 1012,3 hPa 0,0 l/m 19,0 km/h (3 Bft) O-NO 76 1 min 0,000 mm 1,1 UV-I 444 W/m -0,1 C 14,9 C 25,7 km/h (4 Bft) 95,65 %
30.04.2016 17:22 18,8 C 29 % 1012,3 hPa 0,0 l/m 20,6 km/h (4 Bft) O-NO 64 1 min 0,000 mm 1,1 UV-I 440 W/m 0,4 C 14,5 C 25,7 km/h (4 Bft) 100,00 %
30.04.2016 17:23 18,8 C 27 % 1012,3 hPa 0,0 l/m 19,3 km/h (3 Bft) O-NO 64 1 min 0,000 mm 1,1 UV-I 438 W/m -0,6 C 14,8 C 27,4 km/h (4 Bft) 91,30 %
30.04.2016 17:24 18,8 C 29 % 1012,3 hPa 0,0 l/m 17,9 km/h (3 Bft) O-NO 70 1 min 0,000 mm 1,1 UV-I 436 W/m 0,4 C 15,1 C 22,5 km/h (4 Bft) 100,00 %
30.04.2016 17:25 18,8 C 29 % 1012,3 hPa 0,0 l/m 17,8 km/h (3 Bft) O-NO 65 1 min 0,000 mm 1,1 UV-I 432 W/m 0,4 C 15,1 C 24,1 km/h (4 Bft) 92,31 %
30.04.2016 17:26 18,8 C 29 % 1012,3 hPa 0,0 l/m 17,1 km/h (3 Bft) O-NO 69 1 min 0,000 mm 1,0 UV-I 430 W/m 0,4 C 15,3 C 24,1 km/h (4 Bft) 95,83 %
30.04.2016 17:27 18,8 C 30 % 1012,3 hPa 0,0 l/m 17,2 km/h (3 Bft) O-NO 57 1 min 0,000 mm 1,0 UV-I 426 W/m 0,9 C 15,3 C 22,5 km/h (4 Bft) 91,30 %
30.04.2016 17:28 18,8 C 29 % 1012,3 hPa 0,0 l/m 19,6 km/h (3 Bft) O-NO 63 1 min 0,000 mm 1,0 UV-I 424 W/m 0,4 C 14,7 C 30,6 km/h (5 Bft) 95,83 %
30.04.2016 17:29 18,8 C 28 % 1012,2 hPa 0,0 l/m 23,5 km/h (4 Bft) O-NO 66 1 min 0,000 mm 1,0 UV-I 421 W/m -0,1 C 14,0 C 32,2 km/h (5 Bft) 100,00 %
30.04.2016 17:30 18,8 C 27 % 1012,3 hPa 0,0 l/m 26,0 km/h (4 Bft) NO 52 1 min 0,000 mm 1,0 UV-I 398 W/m -0,6 C 13,6 C 30,6 km/h (5 Bft) 96,30 %
30.04.2016 17:31 18,8 C 28 % 1012,2 hPa 0,0 l/m 21,3 km/h (4 Bft) O 86 1 min 0,000 mm 1,0 UV-I 378 W/m -0,1 C 14,4 C 25,7 km/h (4 Bft) 95,65 %
30.04.2016 17:32 18,8 C 29 % 1012,2 hPa 0,0 l/m 22,7 km/h (4 Bft) O-NO 74 1 min 0,000 mm 0,9 UV-I 387 W/m 0,4 C 14,1 C 29,0 km/h (5 Bft) 95,83 %
30.04.2016 17:33 18,7 C 29 % 1012,2 hPa 0,0 l/m 21,9 km/h (4 Bft) NO 48 1 min 0,000 mm 0,9 UV-I 377 W/m 0,3 C 14,2 C 27,4 km/h (4 Bft) 96,15 %
30.04.2016 17:34 18,7 C 28 % 1012,2 hPa 0,0 l/m 19,2 km/h (3 Bft) O 80 1 min 0,000 mm 0,9 UV-I 360 W/m -0,2 C 14,7 C 24,1 km/h (4 Bft) 95,83 %
30.04.2016 17:35 18,7 C 29 % 1012,2 hPa 0,0 l/m 22,6 km/h (4 Bft) O-NO 71 1 min 0,000 mm 0,9 UV-I 341 W/m 0,3 C 14,0 C 29,0 km/h (5 Bft) 100,00 %
30.04.2016 17:36 18,6 C 29 % 1012,2 hPa 0,0 l/m 25,7 km/h (4 Bft) O-NO 72 1 min 0,000 mm 0,9 UV-I 341 W/m 0,2 C 13,4 C 32,2 km/h (5 Bft) 95,83 %
30.04.2016 17:37 18,6 C 29 % 1012,2 hPa 0,0 l/m 20,6 km/h (4 Bft) NO 51 1 min 0,000 mm 0,9 UV-I 351 W/m 0,2 C 14,3 C 24,1 km/h (4 Bft) 95,65 %
30.04.2016 17:38 18,5 C 30 % 1012,2 hPa 0,0 l/m 25,4 km/h (4 Bft) O 93 1 min 0,000 mm 0,8 UV-I 363 W/m 0,6 C 13,3 C 32,2 km/h (5 Bft) 100,00 %
30.04.2016 17:39 18,5 C 30 % 1012,2 hPa 0,0 l/m 22,9 km/h (4 Bft) O-NO 69 1 min 0,000 mm 0,8 UV-I 354 W/m 0,6 C 13,7 C 29,0 km/h (5 Bft) 95,65 %
30.04.2016 17:40 18,4 C 31 % 1012,2 hPa 0,0 l/m 22,1 km/h (4 Bft) O 86 1 min 0,000 mm 0,8 UV-I 330 W/m 1,0 C 13,7 C 32,2 km/h (5 Bft) 100,00 %
30.04.2016 17:41 18,4 C 30 % 1012,3 hPa 0,0 l/m 24,3 km/h (4 Bft) O 86 1 min 0,000 mm 0,8 UV-I 302 W/m 0,5 C 13,3 C 30,6 km/h (5 Bft) 95,65 %
30.04.2016 17:42 18,4 C 31 % 1012,2 hPa 0,0 l/m 25,3 km/h (4 Bft) O-SO 103 1 min 0,000 mm 0,8 UV-I 295 W/m 1,0 C 13,2 C 30,6 km/h (5 Bft) 100,00 %
30.04.2016 17:43 18,3 C 31 % 1012,3 hPa 0,0 l/m 24,1 km/h (4 Bft) O-NO 73 1 min 0,000 mm 0,8 UV-I 294 W/m 0,9 C 13,2 C 30,6 km/h (5 Bft) 95,83 %
30.04.2016 17:44 18,3 C 31 % 1012,2 hPa 0,0 l/m 20,8 km/h (4 Bft) O 87 1 min 0,000 mm 0,7 UV-I 282 W/m 0,9 C 13,8 C 29,0 km/h (5 Bft) 95,65 %
30.04.2016 17:45 18,3 C 32 % 1012,2 hPa 0,0 l/m 23,9 km/h (4 Bft) O 85 1 min 0,000 mm 0,7 UV-I 250 W/m 1,3 C 13,3 C 32,2 km/h (5 Bft) 100,00 %
30.04.2016 17:46 18,2 C 32 % 1012,2 hPa 0,0 l/m 25,9 km/h (4 Bft) O-NO 68 1 min 0,000 mm 0,7 UV-I 244 W/m 1,2 C 12,8 C 32,2 km/h (5 Bft) 95,65 %
30.04.2016 17:47 18,2 C 32 % 1012,2 hPa 0,0 l/m 28,0 km/h (4 Bft) O-NO 77 1 min 0,000 mm 0,7 UV-I 255 W/m 1,2 C 12,5 C 32,2 km/h (5 Bft) 100,00 %
30.04.2016 17:48 18,2 C 31 % 1012,2 hPa 0,0 l/m 24,1 km/h (4 Bft) O 96 1 min 0,000 mm 0,7 UV-I 249 W/m 0,8 C 13,1 C 30,6 km/h (5 Bft) 95,65 %
30.04.2016 17:49 18,2 C 32 % 1012,2 hPa 0,0 l/m 21,7 km/h (4 Bft) O-NO 61 1 min 0,000 mm 0,7 UV-I 252 W/m 1,2 C 13,5 C 35,4 km/h (5 Bft) 100,00 %
30.04.2016 17:50 18,1 C 32 % 1012,2 hPa 0,0 l/m 21,7 km/h (4 Bft) O-NO 77 1 min 0,000 mm 0,7 UV-I 265 W/m 1,2 C 13,4 C 25,7 km/h (4 Bft) 95,65 %
30.04.2016 17:51 18,1 C 32 % 1012,2 hPa 0,0 l/m 28,2 km/h (4 Bft) N-NO 29 1 min 0,000 mm 0,7 UV-I 335 W/m 1,2 C 12,3 C 35,4 km/h (5 Bft) 93,33 %
30.04.2016 17:52 18,1 C 33 % 1012,2 hPa 0,0 l/m 21,1 km/h (4 Bft) O 90 1 min 0,000 mm 0,7 UV-I 379 W/m 1,6 C 13,5 C 29,0 km/h (5 Bft) 95,65 %
30.04.2016 17:53 18,1 C 33 % 1012,2 hPa 0,0 l/m 18,4 km/h (3 Bft) O-NO 65 1 min 0,000 mm 0,7 UV-I 376 W/m 1,6 C 14,1 C 22,5 km/h (4 Bft) 100,00 %
30.04.2016 17:54 18,1 C 33 % 1012,2 hPa 0,0 l/m 17,6 km/h (3 Bft) O-NO 61 1 min 0,000 mm 0,7 UV-I 344 W/m 1,6 C 14,3 C 22,5 km/h (4 Bft) 95,65 %
30.04.2016 17:55 18,1 C 35 % 1012,1 hPa 0,0 l/m 16,2 km/h (3 Bft) O-NO 71 1 min 0,000 mm 0,7 UV-I 342 W/m 2,4 C 14,6 C 20,9 km/h (4 Bft) 100,00 %
30.04.2016 17:56 18,2 C 35 % 1012,2 hPa 0,0 l/m 13,8 km/h (3 Bft) O-NO 76 1 min 0,000 mm 0,7 UV-I 334 W/m 2,5 C 15,4 C 16,1 km/h (3 Bft) 100,00 %
30.04.2016 17:57 18,2 C 34 % 1012,2 hPa 0,0 l/m 18,5 km/h (3 Bft) NO 34 1 min 0,000 mm 0,6 UV-I 316 W/m 2,1 C 14,2 C 27,4 km/h (4 Bft) 100,00 %
30.04.2016 17:58 18,2 C 32 % 1012,2 hPa 0,0 l/m 24,9 km/h (4 Bft) O 80 1 min 0,000 mm 0,6 UV-I 315 W/m 1,2 C 13,0 C 37,0 km/h (5 Bft) 100,00 %
30.04.2016 17:59 18,2 C 34 % 1012,2 hPa 0,0 l/m 25,5 km/h (4 Bft) O-NO 65 1 min 0,000 mm 0,6 UV-I 306 W/m 2,1 C 12,9 C 32,2 km/h (5 Bft) 100,00 %
30.04.2016 18:00 18,2 C 33 % 1012,1 hPa 0,0 l/m 26,1 km/h (4 Bft) NO 47 1 min 0,000 mm 0,6 UV-I 273 W/m 1,7 C 12,8 C 33,8 km/h (5 Bft) 100,00 %
30.04.2016 18:02 18,1 C 33 % 1012,1 hPa 0,0 l/m 23,3 km/h (4 Bft) O-NO 75 2 min 0,407 mm 0,6 UV-I 255 W/m 1,6 C 13,1 C 30,6 km/h (5 Bft) 97,87 %
30.04.2016 18:03 18,1 C 33 % 1012,1 hPa 0,0 l/m 26,4 km/h (4 Bft) O-NO 64 1 min 0,000 mm 0,6 UV-I 251 W/m 1,6 C 12,6 C 32,2 km/h (5 Bft) 100,00 %
30.04.2016 18:04 18,1 C 31 % 1012,1 hPa 0,0 l/m 24,5 km/h (4 Bft) O-NO 69 1 min 0,000 mm 0,6 UV-I 270 W/m 0,7 C 12,9 C 33,8 km/h (5 Bft) 100,00 %
30.04.2016 18:05 18,1 C 32 % 1012,1 hPa 0,0 l/m 23,1 km/h (4 Bft) O 79 1 min 0,000 mm 0,6 UV-I 300 W/m 1,2 C 13,1 C 29,0 km/h (5 Bft) 100,00 %
30.04.2016 18:06 18,0 C 33 % 1012,1 hPa 0,0 l/m 23,2 km/h (4 Bft) O-NO 77 1 min 0,000 mm 0,5 UV-I 283 W/m 1,5 C 13,0 C 32,2 km/h (5 Bft) 100,00 %
30.04.2016 18:07 18,0 C 33 % 1011,9 hPa 0,0 l/m 27,2 km/h (4 Bft) O-NO 78 1 min 0,000 mm 0,5 UV-I 266 W/m 1,5 C 12,3 C 35,4 km/h (5 Bft) 100,00 %
30.04.2016 18:08 18,0 C 34 % 1012,0 hPa 0,0 l/m 18,0 km/h (3 Bft) O-NO 58 1 min 0,000 mm 0,5 UV-I 268 W/m 1,9 C 14,1 C 24,1 km/h (4 Bft) 100,00 %
30.04.2016 18:09 18,0 C 35 % 1012,0 hPa 0,0 l/m 24,3 km/h (4 Bft) O 86 1 min 0,000 mm 0,5 UV-I 263 W/m 2,3 C 12,8 C 32,2 km/h (5 Bft) 100,00 %
30.04.2016 18:10 18,1 C 34 % 1012,0 hPa 0,0 l/m 23,7 km/h (4 Bft) O-NO 78 1 min 0,000 mm 0,5 UV-I 246 W/m 2,0 C 13,0 C 33,8 km/h (5 Bft) 100,00 %
30.04.2016 18:11 18,0 C 34 % 1012,0 hPa 0,0 l/m 23,5 km/h (4 Bft) NO 46 1 min 0,000 mm 0,5 UV-I 237 W/m 1,9 C 12,9 C 33,8 km/h (5 Bft) 100,00 %
30.04.2016 18:12 18,0 C 35 % 1012,0 hPa 0,0 l/m 22,4 km/h (4 Bft) O 97 1 min 0,000 mm 0,5 UV-I 220 W/m 2,3 C 13,1 C 29,0 km/h (5 Bft) 100,00 %
30.04.2016 18:13 18,0 C 35 % 1012,0 hPa 0,0 l/m 20,9 km/h (4 Bft) O 79 1 min 0,000 mm 0,5 UV-I 240 W/m 2,3 C 13,4 C 27,4 km/h (4 Bft) 100,00 %
30.04.2016 18:14 18,0 C 35 % 1012,0 hPa 0,0 l/m 17,9 km/h (3 Bft) O-NO 75 1 min 0,000 mm 0,4 UV-I 223 W/m 2,3 C 14,1 C 24,1 km/h (4 Bft) 100,00 %
30.04.2016 18:15 17,9 C 36 % 1012,1 hPa 0,0 l/m 19,6 km/h (3 Bft) NO 45 1 min 0,000 mm 0,0 UV-I 206 W/m 2,6 C 13,6 C 27,4 km/h (4 Bft) 100,00 %
30.04.2016 18:16 17,9 C 35 % 1012,0 hPa 0,0 l/m 22,3 km/h (4 Bft) O-NO 67 1 min 0,000 mm 0,0 UV-I 198 W/m 2,2 C 13,0 C 29,0 km/h (5 Bft) 100,00 %
30.04.2016 18:17 17,9 C 34 % 1012,0 hPa 0,0 l/m 19,0 km/h (3 Bft) O-NO 74 1 min 0,000 mm 0,0 UV-I 210 W/m 1,8 C 13,7 C 24,1 km/h (4 Bft) 95,65 %
30.04.2016 18:18 17,9 C 36 % 1012,0 hPa 0,0 l/m 22,3 km/h (4 Bft) N-NO 30 1 min 0,000 mm 0,0 UV-I 227 W/m 2,6 C 13,0 C 32,2 km/h (5 Bft) 100,00 %
30.04.2016 18:19 17,9 C 36 % 1012,0 hPa 0,0 l/m 23,6 km/h (4 Bft) O-NO 60 1 min 0,000 mm 0,0 UV-I 226 W/m 2,6 C 12,8 C 32,2 km/h (5 Bft) 100,00 %
30.04.2016 18:20 17,9 C 35 % 1011,9 hPa 0,0 l/m 23,7 km/h (4 Bft) O-NO 57 1 min 0,000 mm 0,0 UV-I 228 W/m 2,2 C 12,8 C 29,0 km/h (5 Bft) 100,00 %
30.04.2016 18:21 17,8 C 36 % 1011,9 hPa 0,0 l/m 22,1 km/h (4 Bft) NO 45 1 min 0,000 mm 0,0 UV-I 198 W/m 2,5 C 12,9 C 27,4 km/h (4 Bft) 100,00 %
30.04.2016 18:22 17,9 C 36 % 1011,9 hPa 0,0 l/m 21,7 km/h (4 Bft) O-NO 63 1 min 0,000 mm 0,0 UV-I 215 W/m 2,6 C 13,1 C 27,4 km/h (4 Bft) 100,00 %
30.04.2016 18:23 17,9 C 36 % 1011,9 hPa 0,0 l/m 25,9 km/h (4 Bft) O-NO 59 1 min 0,000 mm 0,0 UV-I 190 W/m 2,6 C 12,4 C 33,8 km/h (5 Bft) 95,65 %
30.04.2016 18:24 17,9 C 36 % 1011,9 hPa 0,0 l/m 24,1 km/h (4 Bft) NO 48 1 min 0,000 mm 0,0 UV-I 181 W/m 2,6 C 12,7 C 33,8 km/h (5 Bft) 100,00 %
30.04.2016 18:25 17,8 C 36 % 1011,9 hPa 0,0 l/m 24,9 km/h (4 Bft) O-NO 66 1 min 0,000 mm 0,0 UV-I 194 W/m 2,5 C 12,4 C 33,8 km/h (5 Bft) 100,00 %
30.04.2016 18:26 17,8 C 36 % 1011,9 hPa 0,0 l/m 25,3 km/h (4 Bft) O-NO 72 1 min 0,000 mm 0,0 UV-I 199 W/m 2,5 C 12,4 C 35,4 km/h (5 Bft) 100,00 %
30.04.2016 18:27 17,8 C 37 % 1011,9 hPa 0,0 l/m 24,2 km/h (4 Bft) O-NO 63 1 min 0,000 mm 0,0 UV-I 217 W/m 2,9 C 12,5 C 32,2 km/h (5 Bft) 95,83 %
30.04.2016 18:28 17,8 C 37 % 1011,9 hPa 0,0 l/m 17,2 km/h (3 Bft) O-NO 67 1 min 0,000 mm 0,0 UV-I 224 W/m 2,9 C 14,0 C 24,1 km/h (4 Bft) 100,00 %
30.04.2016 18:29 17,8 C 38 % 1011,9 hPa 0,0 l/m 15,8 km/h (3 Bft) NO 44 1 min 0,000 mm 0,0 UV-I 245 W/m 3,3 C 14,4 C 22,5 km/h (4 Bft) 95,83 %
30.04.2016 18:30 17,8 C 39 % 1011,9 hPa 0,0 l/m 19,0 km/h (3 Bft) O-NO 74 1 min 0,000 mm 0,0 UV-I 272 W/m 3,7 C 13,6 C 24,1 km/h (4 Bft) 100,00 %
30.04.2016 18:31 17,8 C 37 % 1011,9 hPa 0,0 l/m 24,0 km/h (4 Bft) O-NO 59 1 min 0,000 mm 0,0 UV-I 256 W/m 2,9 C 12,6 C 30,6 km/h (5 Bft) 100,00 %
30.04.2016 18:32 17,8 C 37 % 1012,0 hPa 0,0 l/m 23,9 km/h (4 Bft) NO 51 1 min 0,000 mm 0,0 UV-I 239 W/m 2,9 C 12,6 C 30,6 km/h (5 Bft) 100,00 %
30.04.2016 18:33 17,8 C 37 % 1012,0 hPa 0,0 l/m 21,0 km/h (4 Bft) O-NO 68 1 min 0,000 mm 0,0 UV-I 253 W/m 2,9 C 13,2 C 27,4 km/h (4 Bft) 96,43 %
30.04.2016 18:34 17,8 C 37 % 1012,0 hPa 0,0 l/m 18,8 km/h (3 Bft) O-NO 65 1 min 0,000 mm 0,0 UV-I 251 W/m 2,9 C 13,6 C 24,1 km/h (4 Bft) 96,15 %
30.04.2016 18:35 17,8 C 38 % 1012,0 hPa 0,0 l/m 17,2 km/h (3 Bft) NO 51 1 min 0,000 mm 0,0 UV-I 207 W/m 3,3 C 14,0 C 22,5 km/h (4 Bft) 100,00 %
30.04.2016 18:36 17,8 C 39 % 1011,9 hPa 0,0 l/m 21,3 km/h (4 Bft) NO 53 1 min 0,000 mm 0,0 UV-I 148 W/m 3,7 C 13,1 C 25,7 km/h (4 Bft) 100,00 %
30.04.2016 18:37 17,8 C 38 % 1012,0 hPa 0,0 l/m 23,9 km/h (4 Bft) O-NO 72 1 min 0,000 mm 0,0 UV-I 153 W/m 3,3 C 12,6 C 30,6 km/h (5 Bft) 100,00 %
30.04.2016 18:38 17,8 C 37 % 1012,0 hPa 0,0 l/m 20,7 km/h (4 Bft) O-NO 70 1 min 0,000 mm 0,0 UV-I 171 W/m 2,9 C 13,2 C 24,1 km/h (4 Bft) 95,65 %
30.04.2016 18:39 17,8 C 39 % 1012,0 hPa 0,0 l/m 17,1 km/h (3 Bft) O-NO 72 1 min 0,000 mm 0,0 UV-I 174 W/m 3,7 C 14,0 C 24,1 km/h (4 Bft) 100,00 %
30.04.2016 18:40 17,7 C 40 % 1012,0 hPa 0,0 l/m 15,5 km/h (3 Bft) NO 40 1 min 0,000 mm 0,0 UV-I 184 W/m 3,9 C 14,3 C 22,5 km/h (4 Bft) 95,65 %
30.04.2016 18:41 17,7 C 39 % 1012,0 hPa 0,0 l/m 22,1 km/h (4 Bft) O-NO 61 1 min 0,000 mm 0,0 UV-I 195 W/m 3,6 C 12,8 C 27,4 km/h (4 Bft) 100,00 %
30.04.2016 18:42 17,7 C 39 % 1012,0 hPa 0,0 l/m 20,7 km/h (4 Bft) NO 41 1 min 0,000 mm 0,0 UV-I 200 W/m 3,6 C 13,1 C 25,7 km/h (4 Bft) 100,00 %
30.04.2016 18:43 17,7 C 38 % 1012,0 hPa 0,0 l/m 26,6 km/h (4 Bft) O-NO 57 1 min 0,000 mm 0,0 UV-I 199 W/m 3,2 C 12,0 C 37,0 km/h (5 Bft) 95,65 %
30.04.2016 18:44 17,7 C 38 % 1012,0 hPa 0,0 l/m 25,3 km/h (4 Bft) O-NO 73 1 min 0,000 mm 0,0 UV-I 194 W/m 3,2 C 12,2 C 33,8 km/h (5 Bft) 100,00 %
30.04.2016 18:45 17,7 C 38 % 1012,0 hPa 0,0 l/m 22,9 km/h (4 Bft) O-NO 59 1 min 0,000 mm 0,0 UV-I 186 W/m 3,2 C 12,6 C 30,6 km/h (5 Bft) 100,00 %
30.04.2016 18:46 17,6 C 37 % 1012,0 hPa 0,0 l/m 24,2 km/h (4 Bft) O 80 1 min 0,000 mm 0,0 UV-I 176 W/m 2,7 C 12,3 C 35,4 km/h (5 Bft) 100,00 %
30.04.2016 18:47 17,6 C 38 % 1011,9 hPa 0,0 l/m 27,9 km/h (4 Bft) O-NO 78 1 min 0,000 mm 0,0 UV-I 167 W/m 3,1 C 11,7 C 37,0 km/h (5 Bft) 100,00 %
30.04.2016 18:48 17,6 C 38 % 1012,0 hPa 0,0 l/m 25,1 km/h (4 Bft) NO 44 1 min 0,000 mm 0,0 UV-I 155 W/m 3,1 C 12,1 C 32,2 km/h (5 Bft) 100,00 %
30.04.2016 18:49 17,6 C 38 % 1011,9 hPa 0,0 l/m 27,4 km/h (4 Bft) NO 51 1 min 0,000 mm 0,0 UV-I 151 W/m 3,1 C 11,7 C 35,4 km/h (5 Bft) 91,30 %
30.04.2016 18:50 17,5 C 38 % 1011,9 hPa 0,0 l/m 26,0 km/h (4 Bft) O 90 1 min 0,000 mm 0,0 UV-I 156 W/m 3,0 C 11,8 C 33,8 km/h (5 Bft) 100,00 %
30.04.2016 18:51 17,5 C 39 % 1011,9 hPa 0,0 l/m 20,7 km/h (4 Bft) O-SO 111 1 min 0,000 mm 0,0 UV-I 139 W/m 3,4 C 12,8 C 32,2 km/h (5 Bft) 100,00 %
30.04.2016 18:52 17,4 C 38 % 1011,9 hPa 0,0 l/m 19,8 km/h (3 Bft) NO 53 1 min 0,000 mm 0,0 UV-I 130 W/m 2,9 C 12,9 C 27,4 km/h (4 Bft) 100,00 %
30.04.2016 18:53 17,4 C 38 % 1011,9 hPa 0,0 l/m 21,1 km/h (4 Bft) O-NO 57 1 min 0,000 mm 0,0 UV-I 123 W/m 2,9 C 12,6 C 33,8 km/h (5 Bft) 100,00 %
30.04.2016 18:54 17,3 C 39 % 1011,9 hPa 0,0 l/m 21,4 km/h (4 Bft) O 81 1 min 0,000 mm 0,0 UV-I 124 W/m 3,2 C 12,4 C 30,6 km/h (5 Bft) 100,00 %
30.04.2016 18:55 17,3 C 39 % 1011,9 hPa 0,0 l/m 16,5 km/h (3 Bft) O-NO 61 1 min 0,000 mm 0,0 UV-I 133 W/m 3,2 C 13,6 C 22,5 km/h (4 Bft) 100,00 %
30.04.2016 18:56 17,3 C 39 % 1011,9 hPa 0,0 l/m 20,3 km/h (4 Bft) O-NO 71 1 min 0,000 mm 0,0 UV-I 139 W/m 3,2 C 12,7 C 27,4 km/h (4 Bft) 100,00 %
30.04.2016 18:57 17,2 C 39 % 1011,9 hPa 0,0 l/m 21,9 km/h (4 Bft) O-NO 67 1 min 0,000 mm 0,0 UV-I 150 W/m 3,1 C 12,2 C 32,2 km/h (5 Bft) 91,30 %
30.04.2016 18:58 17,2 C 39 % 1011,9 hPa 0,0 l/m 18,8 km/h (3 Bft) NO 55 1 min 0,000 mm 0,0 UV-I 152 W/m 3,1 C 12,9 C 25,7 km/h (4 Bft) 100,00 %
30.04.2016 18:59 17,2 C 39 % 1011,9 hPa 0,0 l/m 21,1 km/h (4 Bft) O 88 1 min 0,000 mm 0,0 UV-I 154 W/m 3,1 C 12,3 C 29,0 km/h (5 Bft) 100,00 %
30.04.2016 19:00 17,2 C 39 % 1011,9 hPa 0,0 l/m 22,5 km/h (4 Bft) O 82 1 min 0,000 mm 0,0 UV-I 136 W/m 3,1 C 12,1 C 32,2 km/h (5 Bft) 100,00 %
30.04.2016 19:02 17,2 C 38 % 1011,9 hPa 0,0 l/m 24,1 km/h (4 Bft) O 84 2 min 0,305 mm 0,0 UV-I 119 W/m 2,8 C 11,8 C 33,8 km/h (5 Bft) 100,00 %
30.04.2016 19:03 17,2 C 39 % 1011,9 hPa 0,0 l/m 18,8 km/h (3 Bft) NO 54 1 min 0,000 mm 0,0 UV-I 115 W/m 3,1 C 12,9 C 24,1 km/h (4 Bft) 100,00 %
30.04.2016 19:04 17,2 C 39 % 1011,9 hPa 0,0 l/m 21,1 km/h (4 Bft) O-NO 75 1 min 0,000 mm 0,0 UV-I 117 W/m 3,1 C 12,3 C 25,7 km/h (4 Bft) 100,00 %
30.04.2016 19:05 17,2 C 39 % 1011,9 hPa 0,0 l/m 17,6 km/h (3 Bft) O-NO 70 1 min 0,000 mm 0,0 UV-I 120 W/m 3,1 C 13,2 C 22,5 km/h (4 Bft) 100,00 %
30.04.2016 19:06 17,2 C 39 % 1011,9 hPa 0,0 l/m 15,9 km/h (3 Bft) NO 42 1 min 0,000 mm 0,0 UV-I 117 W/m 3,1 C 13,6 C 19,3 km/h (3 Bft) 100,00 %
30.04.2016 19:07 17,1 C 39 % 1011,9 hPa 0,0 l/m 18,6 km/h (3 Bft) O-NO 66 1 min 0,000 mm 0,0 UV-I 112 W/m 3,0 C 12,8 C 24,1 km/h (4 Bft) 100,00 %
30.04.2016 19:08 17,1 C 40 % 1011,9 hPa 0,0 l/m 17,8 km/h (3 Bft) O-NO 76 1 min 0,000 mm 0,0 UV-I 106 W/m 3,4 C 13,0 C 24,1 km/h (4 Bft) 95,65 %
30.04.2016 19:09 17,1 C 39 % 1011,9 hPa 0,0 l/m 18,5 km/h (3 Bft) O-NO 78 1 min 0,000 mm 0,0 UV-I 94 W/m 3,0 C 12,8 C 25,7 km/h (4 Bft) 100,00 %
30.04.2016 19:10 17,1 C 39 % 1011,9 hPa 0,0 l/m 18,8 km/h (3 Bft) O-NO 71 0 min 0,000 mm 0,0 UV-I 78 W/m 3,0 C 12,7 C 22,5 km/h (4 Bft) 100,00 %
30.04.2016 19:11 17,0 C 40 % 1011,9 hPa 0,0 l/m 14,8 km/h (3 Bft) O-NO 63 0 min 0,000 mm 0,0 UV-I 77 W/m 3,3 C 13,7 C 22,5 km/h (4 Bft) 100,00 %
30.04.2016 19:12 17,0 C 41 % 1011,9 hPa 0,0 l/m 12,9 km/h (3 Bft) NO 51 0 min 0,000 mm 0,0 UV-I 85 W/m 3,7 C 14,3 C 16,1 km/h (3 Bft) 100,00 %
30.04.2016 19:13 16,9 C 41 % 1011,9 hPa 0,0 l/m 17,4 km/h (3 Bft) NO 56 1 min 0,000 mm 0,0 UV-I 87 W/m 3,6 C 12,8 C 20,9 km/h (4 Bft) 100,00 %
30.04.2016 19:14 16,9 C 41 % 1011,8 hPa 0,0 l/m 18,8 km/h (3 Bft) O-NO 66 0 min 0,000 mm 0,0 UV-I 85 W/m 3,6 C 12,5 C 24,1 km/h (4 Bft) 95,65 %
30.04.2016 19:15 16,8 C 41 % 1011,8 hPa 0,0 l/m 17,6 km/h (3 Bft) O-NO 74 0 min 0,000 mm 0,0 UV-I 80 W/m 3,5 C 12,7 C 22,5 km/h (4 Bft) 100,00 %
30.04.2016 19:16 16,8 C 41 % 1011,8 hPa 0,0 l/m 14,6 km/h (3 Bft) O-NO 77 0 min 0,000 mm 0,0 UV-I 77 W/m 3,5 C 13,5 C 17,7 km/h (3 Bft) 100,00 %
30.04.2016 19:17 16,8 C 41 % 1011,8 hPa 0,0 l/m 11,9 km/h (2 Bft) O-NO 57 0 min 0,000 mm 0,0 UV-I 73 W/m 3,5 C 14,4 C 16,1 km/h (3 Bft) 100,00 %
30.04.2016 19:18 16,7 C 41 % 1011,8 hPa 0,0 l/m 14,3 km/h (3 Bft) O-NO 63 0 min 0,000 mm 0,0 UV-I 70 W/m 3,4 C 13,5 C 17,7 km/h (3 Bft) 100,00 %
30.04.2016 19:19 16,7 C 42 % 1011,8 hPa 0,0 l/m 10,5 km/h (2 Bft) NO 56 0 min 0,000 mm 0,0 UV-I 68 W/m 3,7 C 14,8 C 14,5 km/h (3 Bft) 96,15 %
30.04.2016 19:20 16,6 C 43 % 1011,8 hPa 0,0 l/m 11,9 km/h (2 Bft) NO 56 0 min 0,000 mm 0,0 UV-I 63 W/m 4,0 C 14,2 C 17,7 km/h (3 Bft) 100,00 %
30.04.2016 19:21 16,6 C 42 % 1011,8 hPa 0,0 l/m 13,2 km/h (3 Bft) O-NO 61 0 min 0,000 mm 0,0 UV-I 57 W/m 3,6 C 13,7 C 19,3 km/h (3 Bft) 95,83 %
30.04.2016 19:22 16,6 C 42 % 1011,8 hPa 0,0 l/m 10,3 km/h (2 Bft) NO 53 0 min 0,000 mm 0,0 UV-I 54 W/m 3,6 C 14,8 C 14,5 km/h (3 Bft) 100,00 %
30.04.2016 19:23 16,4 C 43 % 1011,8 hPa 0,0 l/m 13,2 km/h (3 Bft) NO 42 0 min 0,000 mm 0,0 UV-I 59 W/m 3,8 C 13,5 C 17,7 km/h (3 Bft) 95,65 %
30.04.2016 19:24 16,4 C 42 % 1011,8 hPa 0,0 l/m 12,6 km/h (3 Bft) NO 56 0 min 0,000 mm 0,0 UV-I 66 W/m 3,5 C 13,7 C 17,7 km/h (3 Bft) 100,00 %
30.04.2016 19:25 16,4 C 43 % 1011,8 hPa 0,0 l/m 13,2 km/h (3 Bft) O-NO 65 1 min 0,000 mm 0,0 UV-I 71 W/m 3,8 C 13,5 C 19,3 km/h (3 Bft) 95,65 %
30.04.2016 19:26 16,3 C 42 % 1011,8 hPa 0,0 l/m 16,4 km/h (3 Bft) O-NO 64 1 min 0,000 mm 0,0 UV-I 69 W/m 3,4 C 12,4 C 22,5 km/h (4 Bft) 100,00 %
30.04.2016 19:27 16,3 C 43 % 1011,8 hPa 0,0 l/m 18,2 km/h (3 Bft) O 87 0 min 0,000 mm 0,0 UV-I 62 W/m 3,7 C 11,9 C 29,0 km/h (5 Bft) 92,31 %
30.04.2016 19:28 16,3 C 42 % 1011,8 hPa 0,0 l/m 19,6 km/h (3 Bft) O-NO 60 0 min 0,000 mm 0,0 UV-I 58 W/m 3,4 C 11,5 C 24,1 km/h (4 Bft) 95,83 %
30.04.2016 19:29 16,3 C 42 % 1011,8 hPa 0,0 l/m 18,8 km/h (3 Bft) O-NO 65 0 min 0,000 mm 0,0 UV-I 52 W/m 3,4 C 11,7 C 25,7 km/h (4 Bft) 100,00 %
30.04.2016 19:30 16,3 C 42 % 1011,8 hPa 0,0 l/m 17,5 km/h (3 Bft) NO 52 0 min 0,000 mm 0,0 UV-I 48 W/m 3,4 C 12,1 C 24,1 km/h (4 Bft) 95,83 %
30.04.2016 19:31 16,3 C 42 % 1011,8 hPa 0,0 l/m 16,4 km/h (3 Bft) NO 49 0 min 0,000 mm 0,0 UV-I 46 W/m 3,4 C 12,4 C 20,9 km/h (4 Bft) 100,00 %
30.04.2016 19:32 16,3 C 41 % 1011,8 hPa 0,0 l/m 22,2 km/h (4 Bft) O-NO 65 0 min 0,000 mm 0,0 UV-I 46 W/m 3,0 C 10,9 C 29,0 km/h (5 Bft) 91,67 %
30.04.2016 19:33 16,3 C 41 % 1011,8 hPa 0,0 l/m 19,4 km/h (3 Bft) O-NO 73 0 min 0,000 mm 0,0 UV-I 46 W/m 3,0 C 11,6 C 25,7 km/h (4 Bft) 96,15 %
30.04.2016 19:34 16,3 C 42 % 1011,8 hPa 0,0 l/m 16,6 km/h (3 Bft) O-NO 74 0 min 0,000 mm 0,0 UV-I 42 W/m 3,4 C 12,3 C 25,7 km/h (4 Bft) 95,83 %
30.04.2016 19:35 16,3 C 43 % 1011,7 hPa 0,0 l/m 16,8 km/h (3 Bft) O 84 0 min 0,000 mm 0,0 UV-I 42 W/m 3,7 C 12,2 C 22,5 km/h (4 Bft) 96,15 %
30.04.2016 19:36 16,2 C 43 % 1011,8 hPa 0,0 l/m 15,4 km/h (3 Bft) O-NO 73 0 min 0,000 mm 0,0 UV-I 40 W/m 3,6 C 12,5 C 20,9 km/h (4 Bft) 95,83 %
30.04.2016 19:37 16,2 C 43 % 1011,8 hPa 0,0 l/m 20,9 km/h (4 Bft) O-NO 60 0 min 0,000 mm 0,0 UV-I 39 W/m 3,6 C 11,1 C 25,7 km/h (4 Bft) 100,00 %
30.04.2016 19:38 16,1 C 43 % 1011,6 hPa 0,0 l/m 21,1 km/h (4 Bft) NO 53 0 min 0,000 mm 0,0 UV-I 39 W/m 3,5 C 10,9 C 27,4 km/h (4 Bft) 96,15 %
30.04.2016 19:39 16,1 C 42 % 1011,8 hPa 0,0 l/m 19,4 km/h (3 Bft) O 82 0 min 0,000 mm 0,0 UV-I 37 W/m 3,2 C 11,3 C 24,1 km/h (4 Bft) 95,83 %
30.04.2016 19:40 16,1 C 43 % 1011,6 hPa 0,0 l/m 17,8 km/h (3 Bft) O-NO 76 0 min 0,000 mm 0,0 UV-I 37 W/m 3,5 C 11,7 C 24,1 km/h (4 Bft) 95,65 %
30.04.2016 19:41 16,0 C 43 % 1011,6 hPa 0,0 l/m 19,5 km/h (3 Bft) O-NO 59 0 min 0,000 mm 0,0 UV-I 35 W/m 3,4 C 11,2 C 27,4 km/h (4 Bft) 95,83 %
30.04.2016 19:42 16,0 C 43 % 1011,6 hPa 0,0 l/m 20,7 km/h (4 Bft) O-NO 65 0 min 0,000 mm 0,0 UV-I 35 W/m 3,4 C 10,9 C 30,6 km/h (5 Bft) 100,00 %
30.04.2016 19:43 16,0 C 43 % 1011,7 hPa 0,0 l/m 22,2 km/h (4 Bft) O-NO 78 0 min 0,000 mm 0,0 UV-I 35 W/m 3,4 C 10,5 C 29,0 km/h (5 Bft) 95,83 %
30.04.2016 19:44 15,9 C 43 % 1011,6 hPa 0,0 l/m 21,4 km/h (4 Bft) O-NO 65 0 min 0,000 mm 0,0 UV-I 35 W/m 3,3 C 10,6 C 30,6 km/h (5 Bft) 100,00 %
30.04.2016 19:45 15,9 C 43 % 1011,6 hPa 0,0 l/m 18,4 km/h (3 Bft) O-NO 60 0 min 0,000 mm 0,0 UV-I 33 W/m 3,3 C 11,3 C 27,4 km/h (4 Bft) 95,83 %
30.04.2016 19:46 15,9 C 43 % 1011,6 hPa 0,0 l/m 18,6 km/h (3 Bft) NO 55 0 min 0,000 mm 0,0 UV-I 33 W/m 3,3 C 11,3 C 27,4 km/h (4 Bft) 92,31 %
30.04.2016 19:47 15,9 C 43 % 1011,6 hPa 0,0 l/m 16,8 km/h (3 Bft) O-NO 69 0 min 0,000 mm 0,0 UV-I 33 W/m 3,3 C 11,7 C 24,1 km/h (4 Bft) 95,83 %
30.04.2016 19:48 15,9 C 43 % 1011,6 hPa 0,0 l/m 19,2 km/h (3 Bft) O-NO 60 0 min 0,000 mm 0,0 UV-I 32 W/m 3,3 C 11,1 C 24,1 km/h (4 Bft) 95,65 %
30.04.2016 19:49 15,9 C 43 % 1011,6 hPa 0,0 l/m 19,2 km/h (3 Bft) NO 38 0 min 0,000 mm 0,0 UV-I 32 W/m 3,3 C 11,1 C 24,1 km/h (4 Bft) 100,00 %
30.04.2016 19:50 15,9 C 43 % 1011,6 hPa 0,0 l/m 20,5 km/h (4 Bft) O-NO 72 1 min 0,000 mm 0,0 UV-I 32 W/m 3,3 C 10,8 C 27,4 km/h (4 Bft) 95,65 %
30.04.2016 19:51 15,9 C 43 % 1011,6 hPa 0,0 l/m 19,6 km/h (3 Bft) O-NO 72 1 min 0,000 mm 0,0 UV-I 30 W/m 3,3 C 11,0 C 24,1 km/h (4 Bft) 100,00 %
30.04.2016 19:52 15,9 C 43 % 1011,6 hPa 0,0 l/m 18,2 km/h (3 Bft) O-NO 67 1 min 0,000 mm 0,0 UV-I 28 W/m 3,3 C 11,4 C 24,1 km/h (4 Bft) 91,30 %
30.04.2016 19:53 15,8 C 43 % 1011,6 hPa 0,0 l/m 17,0 km/h (3 Bft) NO 53 1 min 0,000 mm 0,0 UV-I 27 W/m 3,3 C 11,6 C 22,5 km/h (4 Bft) 100,00 %
30.04.2016 19:54 15,8 C 43 % 1011,6 hPa 0,0 l/m 19,7 km/h (3 Bft) NO 48 1 min 0,000 mm 0,0 UV-I 26 W/m 3,3 C 10,9 C 22,5 km/h (4 Bft) 100,00 %
30.04.2016 19:55 15,8 C 44 % 1011,6 hPa 0,0 l/m 17,9 km/h (3 Bft) O 86 1 min 0,000 mm 0,0 UV-I 25 W/m 3,6 C 11,3 C 22,5 km/h (4 Bft) 100,00 %
30.04.2016 19:56 15,8 C 44 % 1011,7 hPa 0,0 l/m 16,7 km/h (3 Bft) NO 48 1 min 0,000 mm 0,0 UV-I 24 W/m 3,6 C 11,7 C 22,5 km/h (4 Bft) 100,00 %
30.04.2016 19:57 15,8 C 44 % 1011,7 hPa 0,0 l/m 15,0 km/h (3 Bft) NO 46 1 min 0,000 mm 0,0 UV-I 21 W/m 3,6 C 12,2 C 24,1 km/h (4 Bft) 95,83 %
30.04.2016 19:58 15,8 C 44 % 1011,6 hPa 0,0 l/m 15,4 km/h (3 Bft) NO 44 1 min 0,000 mm 0,0 UV-I 21 W/m 3,6 C 12,0 C 20,9 km/h (4 Bft) 95,65 %
30.04.2016 19:59 15,7 C 44 % 1011,7 hPa 0,0 l/m 15,2 km/h (3 Bft) O-NO 67 1 min 0,000 mm 0,0 UV-I 19 W/m 3,5 C 12,0 C 19,3 km/h (3 Bft) 100,00 %
30.04.2016 20:00 15,7 C 44 % 1011,6 hPa 0,0 l/m 12,1 km/h (2 Bft) O-NO 76 1 min 0,000 mm 0,0 UV-I 17 W/m 3,5 C 13,0 C 17,7 km/h (3 Bft) 100,00 %
30.04.2016 20:02 15,6 C 44 % 1011,6 hPa 0,0 l/m 15,5 km/h (3 Bft) NO 52 2 min 0,152 mm 0,0 UV-I 14 W/m 3,4 C 11,8 C 20,9 km/h (4 Bft) 98,00 %
30.04.2016 20:03 15,6 C 45 % 1011,7 hPa 0,0 l/m 12,9 km/h (3 Bft) O-NO 76 1 min 0,000 mm 0,0 UV-I 12 W/m 3,7 C 12,6 C 17,7 km/h (3 Bft) 95,65 %
30.04.2016 20:04 15,6 C 45 % 1011,7 hPa 0,0 l/m 13,0 km/h (3 Bft) O-NO 57 1 min 0,000 mm 0,0 UV-I 11 W/m 3,7 C 12,6 C 20,9 km/h (4 Bft) 100,00 %
30.04.2016 20:05 15,5 C 45 % 1011,6 hPa 0,0 l/m 14,4 km/h (3 Bft) NO 56 1 min 0,000 mm 0,0 UV-I 10 W/m 3,6 C 12,0 C 17,7 km/h (3 Bft) 100,00 %
30.04.2016 20:06 15,4 C 45 % 1011,6 hPa 0,0 l/m 13,2 km/h (3 Bft) O-NO 69 0 min 0,000 mm 0,0 UV-I 9 W/m 3,5 C 12,3 C 16,1 km/h (3 Bft) 100,00 %
30.04.2016 20:07 15,4 C 45 % 1011,6 hPa 0,0 l/m 15,8 km/h (3 Bft) O-NO 57 0 min 0,000 mm 0,0 UV-I 9 W/m 3,5 C 11,4 C 20,9 km/h (4 Bft) 100,00 %
30.04.2016 20:08 15,4 C 45 % 1011,6 hPa 0,0 l/m 15,0 km/h (3 Bft) O-NO 64 0 min 0,000 mm 0,0 UV-I 7 W/m 3,5 C 11,7 C 19,3 km/h (3 Bft) 100,00 %
30.04.2016 20:09 15,3 C 46 % 1011,6 hPa 0,0 l/m 16,7 km/h (3 Bft) O-NO 63 0 min 0,000 mm 0,0 UV-I 7 W/m 3,8 C 11,0 C 20,9 km/h (4 Bft) 100,00 %
30.04.2016 20:10 15,3 C 46 % 1011,6 hPa 0,0 l/m 13,7 km/h (3 Bft) NO 51 0 min 0,000 mm 0,0 UV-I 7 W/m 3,8 C 12,0 C 19,3 km/h (3 Bft) 100,00 %
30.04.2016 20:11 15,3 C 46 % 1011,6 hPa 0,0 l/m 12,8 km/h (3 Bft) O-NO 71 0 min 0,000 mm 0,0 UV-I 7 W/m 3,8 C 12,3 C 20,9 km/h (4 Bft) 100,00 %
30.04.2016 20:12 15,2 C 46 % 1011,6 hPa 0,0 l/m 17,3 km/h (3 Bft) O-NO 57 0 min 0,000 mm 0,0 UV-I 7 W/m 3,7 C 10,7 C 22,5 km/h (4 Bft) 100,00 %
30.04.2016 20:13 15,2 C 46 % 1011,6 hPa 0,0 l/m 14,0 km/h (3 Bft) O-NO 63 0 min 0,000 mm 0,0 UV-I 7 W/m 3,7 C 11,8 C 17,7 km/h (3 Bft) 95,65 %
30.04.2016 20:14 15,1 C 46 % 1011,6 hPa 0,0 l/m 13,2 km/h (3 Bft) NO 38 0 min 0,000 mm 0,0 UV-I 7 W/m 3,6 C 11,9 C 16,1 km/h (3 Bft) 100,00 %
30.04.2016 20:15 15,1 C 46 % 1011,6 hPa 0,0 l/m 12,7 km/h (3 Bft) O-NO 73 0 min 0,000 mm 0,0 UV-I 5 W/m 3,6 C 12,1 C 14,5 km/h (3 Bft) 100,00 %
30.04.2016 20:16 15,1 C 46 % 1011,6 hPa 0,0 l/m 12,5 km/h (3 Bft) O-NO 67 0 min 0,000 mm 0,0 UV-I 5 W/m 3,6 C 12,2 C 17,7 km/h (3 Bft) 100,00 %
30.04.2016 20:17 15,0 C 46 % 1011,6 hPa 0,0 l/m 12,9 km/h (3 Bft) O-NO 65 0 min 0,000 mm 0,0 UV-I 3 W/m 3,5 C 11,9 C 17,7 km/h (3 Bft) 100,00 %
30.04.2016 20:18 15,0 C 47 % 1011,6 hPa 0,0 l/m 12,2 km/h (2 Bft) O 80 0 min 0,000 mm 0,0 UV-I 0 W/m 3,8 C 12,2 C 17,7 km/h (3 Bft) 100,00 %
30.04.2016 20:19 14,9 C 47 % 1011,6 hPa 0,0 l/m 12,1 km/h (2 Bft) O-NO 74 0 min 0,000 mm 0,0 UV-I 0 W/m 3,7 C 12,1 C 16,1 km/h (3 Bft) 100,00 %
30.04.2016 20:20 14,9 C 48 % 1011,6 hPa 0,0 l/m 10,7 km/h (2 Bft) O-NO 62 0 min 0,000 mm 0,0 UV-I 0 W/m 4,0 C 12,7 C 14,5 km/h (3 Bft) 100,00 %
30.04.2016 20:21 14,8 C 47 % 1011,7 hPa 0,0 l/m 11,8 km/h (2 Bft) NO 55 0 min 0,000 mm 0,0 UV-I 0 W/m 3,6 C 12,1 C 16,1 km/h (3 Bft) 100,00 %
30.04.2016 20:22 14,8 C 48 % 1011,7 hPa 0,0 l/m 12,3 km/h (3 Bft) O-NO 69 0 min 0,000 mm 0,0 UV-I 0 W/m 3,9 C 11,9 C 14,5 km/h (3 Bft) 100,00 %
30.04.2016 20:23 14,7 C 48 % 1011,7 hPa 0,0 l/m 12,6 km/h (3 Bft) O-NO 77 0 min 0,000 mm 0,0 UV-I 0 W/m 3,8 C 11,7 C 16,1 km/h (3 Bft) 100,00 %
30.04.2016 20:24 14,7 C 47 % 1011,7 hPa 0,0 l/m 12,1 km/h (2 Bft) O-NO 58 0 min 0,000 mm 0,0 UV-I 0 W/m 3,5 C 11,9 C 14,5 km/h (3 Bft) 100,00 %
30.04.2016 20:25 14,7 C 47 % 1011,6 hPa 0,0 l/m 11,9 km/h (2 Bft) O-NO 57 0 min 0,000 mm 0,0 UV-I 0 W/m 3,5 C 12,0 C 17,7 km/h (3 Bft) 100,00 %
30.04.2016 20:26 14,6 C 47 % 1011,6 hPa 0,0 l/m 12,3 km/h (3 Bft) O-NO 75 0 min 0,000 mm 0,0 UV-I 0 W/m 3,4 C 11,7 C 17,7 km/h (3 Bft) 100,00 %
30.04.2016 20:27 14,6 C 47 % 1011,6 hPa 0,0 l/m 13,2 km/h (3 Bft) O-NO 63 0 min 0,000 mm 0,0 UV-I 0 W/m 3,4 C 11,3 C 17,7 km/h (3 Bft) 100,00 %
30.04.2016 20:28 14,6 C 48 % 1011,6 hPa 0,0 l/m 12,0 km/h (2 Bft) O-NO 59 0 min 0,000 mm 0,0 UV-I 0 W/m 3,7 C 11,8 C 17,7 km/h (3 Bft) 100,00 %
30.04.2016 20:29 14,6 C 48 % 1011,6 hPa 0,0 l/m 13,0 km/h (3 Bft) NO 44 0 min 0,000 mm 0,0 UV-I 0 W/m 3,7 C 11,4 C 17,7 km/h (3 Bft) 100,00 %
30.04.2016 20:30 14,5 C 48 % 1011,6 hPa 0,0 l/m 11,2 km/h (2 Bft) NO 46 0 min 0,000 mm 0,0 UV-I 0 W/m 3,6 C 12,0 C 16,1 km/h (3 Bft) 100,00 %
30.04.2016 20:31 14,4 C 49 % 1011,6 hPa 0,0 l/m 11,9 km/h (2 Bft) O-NO 67 0 min 0,000 mm 0,0 UV-I 0 W/m 3,8 C 11,6 C 16,1 km/h (3 Bft) 100,00 %
30.04.2016 20:32 14,4 C 49 % 1011,6 hPa 0,0 l/m 9,6 km/h (2 Bft) NO 48 0 min 0,000 mm 0,0 UV-I 0 W/m 3,8 C 12,6 C 16,1 km/h (3 Bft) 95,65 %
30.04.2016 20:33 14,4 C 49 % 1011,6 hPa 0,0 l/m 12,5 km/h (3 Bft) NO 52 0 min 0,000 mm 0,0 UV-I 0 W/m 3,8 C 11,4 C 16,1 km/h (3 Bft) 100,00 %
30.04.2016 20:34 14,3 C 49 % 1011,6 hPa 0,0 l/m 11,3 km/h (2 Bft) O-NO 72 0 min 0,000 mm 0,0 UV-I 0 W/m 3,7 C 11,8 C 14,5 km/h (3 Bft) 100,00 %
30.04.2016 20:35 14,2 C 49 % 1011,6 hPa 0,0 l/m 10,1 km/h (2 Bft) O-NO 63 0 min 0,000 mm 0,0 UV-I 0 W/m 3,6 C 12,2 C 14,5 km/h (3 Bft) 100,00 %
30.04.2016 20:36 14,2 C 50 % 1011,6 hPa 0,0 l/m 9,7 km/h (2 Bft) O-NO 71 0 min 0,000 mm 0,0 UV-I 0 W/m 3,9 C 12,4 C 16,1 km/h (3 Bft) 100,00 %
30.04.2016 20:37 14,2 C 50 % 1011,6 hPa 0,0 l/m 10,2 km/h (2 Bft) O-NO 63 0 min 0,000 mm 0,0 UV-I 0 W/m 3,9 C 12,1 C 16,1 km/h (3 Bft) 100,00 %
30.04.2016 20:38 14,1 C 50 % 1011,6 hPa 0,0 l/m 11,0 km/h (2 Bft) NO 54 0 min 0,000 mm 0,0 UV-I 0 W/m 3,8 C 11,7 C 16,1 km/h (3 Bft) 95,83 %
30.04.2016 20:39 14,1 C 50 % 1011,6 hPa 0,0 l/m 13,9 km/h (3 Bft) O-NO 74 0 min 0,000 mm 0,0 UV-I 0 W/m 3,8 C 10,5 C 17,7 km/h (3 Bft) 95,65 %
30.04.2016 20:40 14,1 C 50 % 1011,6 hPa 0,0 l/m 10,7 km/h (2 Bft) O-NO 69 0 min 0,000 mm 0,0 UV-I 0 W/m 3,8 C 11,8 C 16,1 km/h (3 Bft) 100,00 %
30.04.2016 20:41 14,1 C 50 % 1011,6 hPa 0,0 l/m 12,9 km/h (3 Bft) O-NO 61 0 min 0,000 mm 0,0 UV-I 0 W/m 3,8 C 10,9 C 17,7 km/h (3 Bft) 100,00 %
30.04.2016 20:42 14,1 C 50 % 1011,6 hPa 0,0 l/m 14,1 km/h (3 Bft) NO 47 0 min 0,000 mm 0,0 UV-I 0 W/m 3,8 C 10,4 C 20,9 km/h (4 Bft) 100,00 %
30.04.2016 20:43 14,1 C 50 % 1011,6 hPa 0,0 l/m 14,3 km/h (3 Bft) NO 48 0 min 0,000 mm 0,0 UV-I 0 W/m 3,8 C 10,3 C 20,9 km/h (4 Bft) 100,00 %
30.04.2016 20:44 14,0 C 51 % 1011,6 hPa 0,0 l/m 9,9 km/h (2 Bft) O-NO 58 0 min 0,000 mm 0,0 UV-I 0 W/m 4,0 C 12,1 C 14,5 km/h (3 Bft) 100,00 %
30.04.2016 20:45 14,0 C 51 % 1011,6 hPa 0,0 l/m 12,7 km/h (3 Bft) O-NO 61 0 min 0,000 mm 0,0 UV-I 0 W/m 4,0 C 10,8 C 17,7 km/h (3 Bft) 100,00 %
30.04.2016 20:46 13,9 C 51 % 1011,6 hPa 0,0 l/m 12,1 km/h (2 Bft) O-NO 57 0 min 0,000 mm 0,0 UV-I 0 W/m 3,9 C 11,0 C 16,1 km/h (3 Bft) 95,83 %
30.04.2016 20:47 13,9 C 51 % 1011,7 hPa 0,0 l/m 14,3 km/h (3 Bft) NO 41 0 min 0,000 mm 0,0 UV-I 0 W/m 3,9 C 10,1 C 19,3 km/h (3 Bft) 100,00 %
30.04.2016 20:48 13,9 C 50 % 1011,7 hPa 0,0 l/m 14,3 km/h (3 Bft) NO 55 0 min 0,000 mm 0,0 UV-I 0 W/m 3,7 C 10,1 C 19,3 km/h (3 Bft) 95,83 %
30.04.2016 20:49 13,9 C 50 % 1011,7 hPa 0,0 l/m 12,3 km/h (3 Bft) O-NO 70 0 min 0,000 mm 0,0 UV-I 0 W/m 3,7 C 10,9 C 16,1 km/h (3 Bft) 96,15 %
30.04.2016 20:50 13,9 C 50 % 1011,7 hPa 0,0 l/m 12,3 km/h (3 Bft) O-NO 61 0 min 0,000 mm 0,0 UV-I 0 W/m 3,7 C 10,9 C 16,1 km/h (3 Bft) 100,00 %
30.04.2016 20:51 13,9 C 51 % 1011,6 hPa 0,0 l/m 11,8 km/h (2 Bft) O-NO 59 0 min 0,000 mm 0,0 UV-I 0 W/m 3,9 C 11,1 C 16,1 km/h (3 Bft) 100,00 %
30.04.2016 20:52 13,9 C 51 % 1011,7 hPa 0,0 l/m 13,0 km/h (3 Bft) O-NO 65 0 min 0,000 mm 0,0 UV-I 0 W/m 3,9 C 10,6 C 16,1 km/h (3 Bft) 100,00 %
30.04.2016 20:53 13,9 C 51 % 1011,6 hPa 0,0 l/m 10,3 km/h (2 Bft) O-NO 68 0 min 0,000 mm 0,0 UV-I 0 W/m 3,9 C 11,8 C 14,5 km/h (3 Bft) 100,00 %
30.04.2016 20:54 13,8 C 51 % 1011,7 hPa 0,0 l/m 10,9 km/h (2 Bft) O-NO 65 0 min 0,000 mm 0,0 UV-I 0 W/m 3,8 C 11,4 C 14,5 km/h (3 Bft) 100,00 %
30.04.2016 20:55 13,8 C 51 % 1011,7 hPa 0,0 l/m 10,0 km/h (2 Bft) NO 54 0 min 0,000 mm 0,0 UV-I 0 W/m 3,8 C 11,8 C 14,5 km/h (3 Bft) 100,00 %
30.04.2016 20:56 13,8 C 51 % 1011,6 hPa 0,0 l/m 12,3 km/h (3 Bft) O-NO 64 0 min 0,000 mm 0,0 UV-I 0 W/m 3,8 C 10,8 C 16,1 km/h (3 Bft) 100,00 %
30.04.2016 20:57 13,7 C 51 % 1011,7 hPa 0,0 l/m 11,1 km/h (2 Bft) NO 56 0 min 0,000 mm 0,0 UV-I 0 W/m 3,8 C 11,2 C 16,1 km/h (3 Bft) 100,00 %
30.04.2016 20:58 13,7 C 52 % 1011,7 hPa 0,0 l/m 10,7 km/h (2 Bft) NO 49 0 min 0,000 mm 0,0 UV-I 0 W/m 4,0 C 11,3 C 14,5 km/h (3 Bft) 100,00 %
30.04.2016 20:59 13,7 C 51 % 1011,7 hPa 0,0 l/m 10,9 km/h (2 Bft) O-NO 64 0 min 0,000 mm 0,0 UV-I 0 W/m 3,8 C 11,3 C 17,7 km/h (3 Bft) 100,00 %
30.04.2016 21:00 13,6 C 52 % 1011,7 hPa 0,0 l/m 10,3 km/h (2 Bft) NO 49 0 min 0,000 mm 0,0 UV-I 0 W/m 3,9 C 11,4 C 16,1 km/h (3 Bft) 100,00 %
30.04.2016 21:02 13,5 C 52 % 1011,7 hPa 0,0 l/m 9,8 km/h (2 Bft) O-NO 57 0 min 0,076 mm 0,0 UV-I 0 W/m 3,8 C 11,6 C 14,5 km/h (3 Bft) 100,00 %
30.04.2016 21:03 13,5 C 52 % 1011,7 hPa 0,0 l/m 9,8 km/h (2 Bft) NO 40 0 min 0,000 mm 0,0 UV-I 0 W/m 3,8 C 11,6 C 14,5 km/h (3 Bft) 100,00 %
30.04.2016 21:04 13,5 C 52 % 1011,8 hPa 0,0 l/m 11,8 km/h (2 Bft) NO 49 0 min 0,000 mm 0,0 UV-I 0 W/m 3,8 C 10,6 C 19,3 km/h (3 Bft) 100,00 %
30.04.2016 21:05 13,4 C 52 % 1011,7 hPa 0,0 l/m 12,1 km/h (2 Bft) O-NO 57 0 min 0,000 mm 0,0 UV-I 0 W/m 3,7 C 10,4 C 17,7 km/h (3 Bft) 100,00 %
30.04.2016 21:06 13,4 C 52 % 1011,7 hPa 0,0 l/m 10,3 km/h (2 Bft) NO 48 0 min 0,000 mm 0,0 UV-I 0 W/m 3,7 C 11,2 C 14,5 km/h (3 Bft) 100,00 %
30.04.2016 21:07 13,4 C 52 % 1011,7 hPa 0,0 l/m 10,7 km/h (2 Bft) O-NO 57 0 min 0,000 mm 0,0 UV-I 0 W/m 3,7 C 11,0 C 14,5 km/h (3 Bft) 100,00 %
30.04.2016 21:08 13,4 C 52 % 1011,7 hPa 0,0 l/m 10,3 km/h (2 Bft) O-NO 57 0 min 0,000 mm 0,0 UV-I 0 W/m 3,7 C 11,2 C 12,9 km/h (3 Bft) 100,00 %
30.04.2016 21:09 13,3 C 52 % 1011,7 hPa 0,0 l/m 12,4 km/h (3 Bft) NO 47 0 min 0,000 mm 0,0 UV-I 0 W/m 3,7 C 10,1 C 17,7 km/h (3 Bft) 100,00 %
30.04.2016 21:10 13,3 C 53 % 1011,7 hPa 0,0 l/m 9,6 km/h (2 Bft) O-NO 64 0 min 0,000 mm 0,0 UV-I 0 W/m 3,9 C 11,4 C 14,5 km/h (3 Bft) 100,00 %
30.04.2016 21:11 13,3 C 53 % 1011,8 hPa 0,0 l/m 9,6 km/h (2 Bft) O-NO 65 0 min 0,000 mm 0,0 UV-I 0 W/m 3,9 C 11,4 C 14,5 km/h (3 Bft) 100,00 %
30.04.2016 21:12 13,3 C 53 % 1011,8 hPa 0,0 l/m 9,3 km/h (2 Bft) NO 55 0 min 0,000 mm 0,0 UV-I 0 W/m 3,9 C 11,6 C 14,5 km/h (3 Bft) 100,00 %
30.04.2016 21:13 13,3 C 53 % 1011,7 hPa 0,0 l/m 10,8 km/h (2 Bft) O-NO 58 0 min 0,000 mm 0,0 UV-I 0 W/m 3,9 C 10,9 C 14,5 km/h (3 Bft) 100,00 %
30.04.2016 21:14 13,2 C 53 % 1011,7 hPa 0,0 l/m 10,1 km/h (2 Bft) NO 55 0 min 0,000 mm 0,0 UV-I 0 W/m 3,8 C 11,1 C 14,5 km/h (3 Bft) 100,00 %
30.04.2016 21:15 13,2 C 53 % 1011,7 hPa 0,0 l/m 11,5 km/h (2 Bft) O-NO 59 0 min 0,000 mm 0,0 UV-I 0 W/m 3,8 C 10,4 C 17,7 km/h (3 Bft) 100,00 %
30.04.2016 21:16 13,2 C 53 % 1011,7 hPa 0,0 l/m 12,5 km/h (3 Bft) O-NO 57 0 min 0,000 mm 0,0 UV-I 0 W/m 3,8 C 10,0 C 17,7 km/h (3 Bft) 95,65 %
30.04.2016 21:17 13,2 C 53 % 1011,7 hPa 0,0 l/m 11,4 km/h (2 Bft) NO 55 0 min 0,000 mm 0,0 UV-I 0 W/m 3,8 C 10,5 C 16,1 km/h (3 Bft) 100,00 %
30.04.2016 21:18 13,2 C 53 % 1011,8 hPa 0,0 l/m 12,0 km/h (2 Bft) O-NO 75 0 min 0,000 mm 0,0 UV-I 0 W/m 3,8 C 10,2 C 16,1 km/h (3 Bft) 95,65 %
30.04.2016 21:19 13,1 C 53 % 1011,7 hPa 0,0 l/m 12,5 km/h (3 Bft) O-NO 65 0 min 0,000 mm 0,0 UV-I 0 W/m 3,7 C 9,9 C 16,1 km/h (3 Bft) 100,00 %
30.04.2016 21:20 13,1 C 53 % 1011,7 hPa 0,0 l/m 13,1 km/h (3 Bft) O-NO 78 0 min 0,000 mm 0,0 UV-I 0 W/m 3,7 C 9,6 C 19,3 km/h (3 Bft) 95,83 %
30.04.2016 21:21 13,1 C 53 % 1011,7 hPa 0,0 l/m 11,2 km/h (2 Bft) NO 51 0 min 0,000 mm 0,0 UV-I 0 W/m 3,7 C 10,4 C 16,1 km/h (3 Bft) 95,65 %
30.04.2016 21:22 13,1 C 53 % 1011,7 hPa 0,0 l/m 8,7 km/h (2 Bft) NO 55 0 min 0,000 mm 0,0 UV-I 0 W/m 3,7 C 11,7 C 11,3 km/h (2 Bft) 100,00 %
30.04.2016 21:23 13,1 C 53 % 1011,7 hPa 0,0 l/m 10,0 km/h (2 Bft) O-NO 59 0 min 0,000 mm 0,0 UV-I 0 W/m 3,7 C 11,0 C 16,1 km/h (3 Bft) 95,65 %
30.04.2016 21:24 13,1 C 54 % 1011,7 hPa 0,0 l/m 10,1 km/h (2 Bft) O-NO 61 0 min 0,000 mm 0,0 UV-I 0 W/m 4,0 C 11,0 C 16,1 km/h (3 Bft) 100,00 %
30.04.2016 21:25 13,1 C 54 % 1011,7 hPa 0,0 l/m 10,0 km/h (2 Bft) NO 44 0 min 0,000 mm 0,0 UV-I 0 W/m 4,0 C 11,0 C 14,5 km/h (3 Bft) 86,96 %
30.04.2016 21:26 13,0 C 54 % 1011,7 hPa 0,0 l/m 10,2 km/h (2 Bft) O-NO 59 0 min 0,000 mm 0,0 UV-I 0 W/m 3,9 C 10,8 C 14,5 km/h (3 Bft) 100,00 %
30.04.2016 21:27 12,9 C 54 % 1011,6 hPa 0,0 l/m 11,4 km/h (2 Bft) O-NO 66 0 min 0,000 mm 0,0 UV-I 0 W/m 3,8 C 10,1 C 16,1 km/h (3 Bft) 95,65 %
30.04.2016 21:28 12,9 C 54 % 1011,6 hPa 0,0 l/m 12,4 km/h (3 Bft) NO 55 0 min 0,000 mm 0,0 UV-I 0 W/m 3,8 C 9,7 C 17,7 km/h (3 Bft) 100,00 %
30.04.2016 21:29 12,9 C 54 % 1011,6 hPa 0,0 l/m 10,6 km/h (2 Bft) O-NO 69 0 min 0,000 mm 0,0 UV-I 0 W/m 3,8 C 10,5 C 16,1 km/h (3 Bft) 96,15 %
30.04.2016 21:30 12,8 C 54 % 1011,6 hPa 0,0 l/m 13,2 km/h (3 Bft) NO 50 0 min 0,000 mm 0,0 UV-I 0 W/m 3,7 C 9,2 C 17,7 km/h (3 Bft) 100,00 %
30.04.2016 21:31 12,8 C 54 % 1011,6 hPa 0,0 l/m 12,9 km/h (3 Bft) NO 47 0 min 0,000 mm 0,0 UV-I 0 W/m 3,7 C 9,4 C 19,3 km/h (3 Bft) 96,15 %
30.04.2016 21:32 12,8 C 54 % 1011,6 hPa 0,0 l/m 12,1 km/h (2 Bft) O-NO 67 0 min 0,000 mm 0,0 UV-I 0 W/m 3,7 C 9,7 C 19,3 km/h (3 Bft) 95,83 %
30.04.2016 21:33 12,8 C 54 % 1011,6 hPa 0,0 l/m 12,3 km/h (3 Bft) NO 52 0 min 0,000 mm 0,0 UV-I 0 W/m 3,7 C 9,6 C 16,1 km/h (3 Bft) 100,00 %
30.04.2016 21:34 12,8 C 54 % 1011,6 hPa 0,0 l/m 10,5 km/h (2 Bft) O-NO 61 0 min 0,000 mm 0,0 UV-I 0 W/m 3,7 C 10,4 C 14,5 km/h (3 Bft) 95,83 %
30.04.2016 21:35 12,8 C 55 % 1011,6 hPa 0,0 l/m 10,7 km/h (2 Bft) NO 44 0 min 0,000 mm 0,0 UV-I 0 W/m 4,0 C 10,3 C 14,5 km/h (3 Bft) 100,00 %
30.04.2016 21:36 12,8 C 55 % 1011,6 hPa 0,0 l/m 9,7 km/h (2 Bft) O-NO 62 0 min 0,000 mm 0,0 UV-I 0 W/m 4,0 C 10,8 C 16,1 km/h (3 Bft) 95,83 %
30.04.2016 21:37 12,7 C 55 % 1011,6 hPa 0,0 l/m 11,5 km/h (2 Bft) O-NO 58 0 min 0,000 mm 0,0 UV-I 0 W/m 3,9 C 9,8 C 16,1 km/h (3 Bft) 100,00 %
30.04.2016 21:38 12,7 C 55 % 1011,6 hPa 0,0 l/m 9,6 km/h (2 Bft) O-NO 65 0 min 0,000 mm 0,0 UV-I 0 W/m 3,9 C 10,8 C 14,5 km/h (3 Bft) 95,83 %
30.04.2016 21:39 12,7 C 55 % 1011,6 hPa 0,0 l/m 8,0 km/h (2 Bft) O-NO 61 0 min 0,000 mm 0,0 UV-I 0 W/m 3,9 C 11,7 C 11,3 km/h (2 Bft) 95,83 %
30.04.2016 21:40 12,7 C 55 % 1011,6 hPa 0,0 l/m 8,7 km/h (2 Bft) NO 46 0 min 0,000 mm 0,0 UV-I 0 W/m 3,9 C 11,3 C 11,3 km/h (2 Bft) 100,00 %
30.04.2016 21:41 12,7 C 55 % 1011,6 hPa 0,0 l/m 11,0 km/h (2 Bft) NO 46 0 min 0,000 mm 0,0 UV-I 0 W/m 3,9 C 10,1 C 14,5 km/h (3 Bft) 95,83 %
30.04.2016 21:42 12,6 C 55 % 1011,6 hPa 0,0 l/m 10,9 km/h (2 Bft) O-NO 63 0 min 0,000 mm 0,0 UV-I 0 W/m 3,8 C 10,0 C 16,1 km/h (3 Bft) 95,65 %
30.04.2016 21:43 12,6 C 55 % 1011,6 hPa 0,0 l/m 10,9 km/h (2 Bft) O-NO 57 0 min 0,000 mm 0,0 UV-I 0 W/m 3,8 C 10,0 C 16,1 km/h (3 Bft) 95,83 %
30.04.2016 21:44 12,6 C 55 % 1011,5 hPa 0,0 l/m 10,6 km/h (2 Bft) NO 52 0 min 0,000 mm 0,0 UV-I 0 W/m 3,8 C 10,2 C 16,1 km/h (3 Bft) 92,31 %
30.04.2016 21:45 12,6 C 56 % 1011,6 hPa 0,0 l/m 10,0 km/h (2 Bft) O-NO 67 0 min 0,000 mm 0,0 UV-I 0 W/m 4,1 C 10,5 C 14,5 km/h (3 Bft) 95,83 %
30.04.2016 21:46 12,6 C 56 % 1011,6 hPa 0,0 l/m 10,5 km/h (2 Bft) NO 40 0 min 0,000 mm 0,0 UV-I 0 W/m 4,1 C 10,2 C 14,5 km/h (3 Bft) 95,65 %
30.04.2016 21:47 12,5 C 56 % 1011,5 hPa 0,0 l/m 10,7 km/h (2 Bft) O-NO 65 0 min 0,000 mm 0,0 UV-I 0 W/m 4,0 C 10,0 C 14,5 km/h (3 Bft) 100,00 %
30.04.2016 21:48 12,5 C 56 % 1011,6 hPa 0,0 l/m 10,2 km/h (2 Bft) O-NO 63 0 min 0,000 mm 0,0 UV-I 0 W/m 4,0 C 10,3 C 14,5 km/h (3 Bft) 94,12 %
30.04.2016 21:49 12,4 C 56 % 1011,5 hPa 0,0 l/m 6,4 km/h (2 Bft) O-NO 63 0 min 0,000 mm 0,0 UV-I 0 W/m 3,9 C 12,4 C 11,3 km/h (2 Bft) 100,00 %
30.04.2016 21:50 12,4 C 56 % 1011,6 hPa 0,0 l/m 9,5 km/h (2 Bft) NO 49 0 min 0,000 mm 0,0 UV-I 0 W/m 3,9 C 10,5 C 12,9 km/h (3 Bft) 95,65 %
30.04.2016 21:51 12,4 C 56 % 1011,5 hPa 0,0 l/m 9,2 km/h (2 Bft) O-NO 60 0 min 0,000 mm 0,0 UV-I 0 W/m 3,9 C 10,7 C 12,9 km/h (3 Bft) 100,00 %
30.04.2016 21:52 12,4 C 56 % 1011,6 hPa 0,0 l/m 11,1 km/h (2 Bft) NO 53 0 min 0,000 mm 0,0 UV-I 0 W/m 3,9 C 9,7 C 16,1 km/h (3 Bft) 95,65 %
30.04.2016 21:53 12,4 C 56 % 1011,6 hPa 0,0 l/m 8,0 km/h (2 Bft) O-NO 69 0 min 0,000 mm 0,0 UV-I 0 W/m 3,9 C 11,4 C 11,3 km/h (2 Bft) 100,00 %
30.04.2016 21:54 12,3 C 57 % 1011,6 hPa 0,0 l/m 8,6 km/h (2 Bft) O-NO 71 0 min 0,000 mm 0,0 UV-I 0 W/m 4,0 C 10,9 C 12,9 km/h (3 Bft) 96,15 %
30.04.2016 21:55 12,3 C 56 % 1011,6 hPa 0,0 l/m 9,1 km/h (2 Bft) NO 44 0 min 0,000 mm 0,0 UV-I 0 W/m 3,8 C 10,6 C 12,9 km/h (3 Bft) 100,00 %
30.04.2016 21:56 12,3 C 57 % 1011,6 hPa 0,0 l/m 8,3 km/h (2 Bft) NO 46 0 min 0,000 mm 0,0 UV-I 0 W/m 4,0 C 11,1 C 14,5 km/h (3 Bft) 100,00 %
30.04.2016 21:57 12,2 C 57 % 1011,6 hPa 0,0 l/m 7,8 km/h (2 Bft) O-NO 57 0 min 0,000 mm 0,0 UV-I 0 W/m 3,9 C 11,3 C 9,7 km/h (2 Bft) 100,00 %
30.04.2016 21:58 12,2 C 57 % 1011,6 hPa 0,0 l/m 7,6 km/h (2 Bft) O-NO 60 0 min 0,000 mm 0,0 UV-I 0 W/m 3,9 C 11,4 C 9,7 km/h (2 Bft) 100,00 %
30.04.2016 21:59 12,2 C 57 % 1011,6 hPa 0,0 l/m 9,7 km/h (2 Bft) O-NO 62 0 min 0,000 mm 0,0 UV-I 0 W/m 3,9 C 10,2 C 16,1 km/h (3 Bft) 100,00 %
30.04.2016 22:00 12,2 C 57 % 1011,6 hPa 0,0 l/m 10,1 km/h (2 Bft) O-NO 59 0 min 0,000 mm 0,0 UV-I 0 W/m 3,9 C 10,0 C 12,9 km/h (3 Bft) 100,00 %
30.04.2016 22:02 12,2 C 57 % 1011,6 hPa 0,0 l/m 11,0 km/h (2 Bft) NO 46 0 min 0,051 mm 0,0 UV-I 0 W/m 3,9 C 9,5 C 17,7 km/h (3 Bft) 100,00 %
30.04.2016 22:03 12,2 C 57 % 1011,6 hPa 0,0 l/m 9,9 km/h (2 Bft) O-NO 60 0 min 0,000 mm 0,0 UV-I 0 W/m 3,9 C 10,1 C 14,5 km/h (3 Bft) 95,65 %
30.04.2016 22:04 12,2 C 57 % 1011,6 hPa 0,0 l/m 9,0 km/h (2 Bft) NO 47 0 min 0,000 mm 0,0 UV-I 0 W/m 3,9 C 10,6 C 12,9 km/h (3 Bft) 100,00 %
30.04.2016 22:05 12,2 C 57 % 1011,6 hPa 0,0 l/m 9,1 km/h (2 Bft) NO 47 0 min 0,000 mm 0,0 UV-I 0 W/m 3,9 C 10,5 C 12,9 km/h (3 Bft) 95,65 %
30.04.2016 22:06 12,1 C 58 % 1011,6 hPa 0,0 l/m 8,8 km/h (2 Bft) NO 45 0 min 0,000 mm 0,0 UV-I 0 W/m 4,1 C 10,6 C 12,9 km/h (3 Bft) 100,00 %
30.04.2016 22:07 12,1 C 57 % 1011,6 hPa 0,0 l/m 11,9 km/h (2 Bft) NO 47 0 min 0,000 mm 0,0 UV-I 0 W/m 3,8 C 9,0 C 17,7 km/h (3 Bft) 100,00 %
30.04.2016 22:08 12,1 C 58 % 1011,6 hPa 0,0 l/m 14,6 km/h (3 Bft) O-NO 62 0 min 0,000 mm 0,0 UV-I 0 W/m 4,1 C 7,8 C 19,3 km/h (3 Bft) 100,00 %
30.04.2016 22:09 12,1 C 58 % 1011,6 hPa 0,0 l/m 11,9 km/h (2 Bft) O-NO 64 0 min 0,000 mm 0,0 UV-I 0 W/m 4,1 C 9,0 C 19,3 km/h (3 Bft) 100,00 %
30.04.2016 22:10 12,1 C 58 % 1011,6 hPa 0,0 l/m 11,5 km/h (2 Bft) O-NO 59 0 min 0,000 mm 0,0 UV-I 0 W/m 4,1 C 9,2 C 16,1 km/h (3 Bft) 100,00 %
30.04.2016 22:11 12,0 C 58 % 1011,6 hPa 0,0 l/m 12,1 km/h (2 Bft) O-NO 59 0 min 0,000 mm 0,0 UV-I 0 W/m 4,0 C 8,8 C 17,7 km/h (3 Bft) 95,65 %
30.04.2016 22:12 12,0 C 58 % 1011,5 hPa 0,0 l/m 16,1 km/h (3 Bft) O-NO 76 0 min 0,000 mm 0,0 UV-I 0 W/m 4,0 C 7,1 C 19,3 km/h (3 Bft) 100,00 %
30.04.2016 22:13 12,0 C 58 % 1011,5 hPa 0,0 l/m 12,5 km/h (3 Bft) O-NO 59 0 min 0,000 mm 0,0 UV-I 0 W/m 4,0 C 8,6 C 19,3 km/h (3 Bft) 100,00 %
30.04.2016 22:14 12,0 C 58 % 1011,5 hPa 0,0 l/m 11,3 km/h (2 Bft) O-NO 65 0 min 0,000 mm 0,0 UV-I 0 W/m 4,0 C 9,1 C 16,1 km/h (3 Bft) 100,00 %
30.04.2016 22:15 11,9 C 58 % 1011,5 hPa 0,0 l/m 12,7 km/h (3 Bft) O-NO 62 0 min 0,000 mm 0,0 UV-I 0 W/m 3,9 C 8,4 C 16,1 km/h (3 Bft) 95,65 %
30.04.2016 22:16 12,0 C 58 % 1011,5 hPa 0,0 l/m 14,2 km/h (3 Bft) O 81 0 min 0,000 mm 0,0 UV-I 0 W/m 4,0 C 7,9 C 19,3 km/h (3 Bft) 100,00 %
30.04.2016 22:17 11,9 C 58 % 1011,5 hPa 0,0 l/m 13,5 km/h (3 Bft) NO 47 0 min 0,000 mm 0,0 UV-I 0 W/m 3,9 C 8,0 C 20,9 km/h (4 Bft) 95,65 %
30.04.2016 22:18 11,9 C 58 % 1011,5 hPa 0,0 l/m 13,6 km/h (3 Bft) O-NO 71 0 min 0,000 mm 0,0 UV-I 0 W/m 3,9 C 8,0 C 19,3 km/h (3 Bft) 100,00 %
30.04.2016 22:19 11,9 C 58 % 1011,5 hPa 0,0 l/m 14,8 km/h (3 Bft) O-NO 67 0 min 0,000 mm 0,0 UV-I 0 W/m 3,9 C 7,5 C 19,3 km/h (3 Bft) 95,65 %
30.04.2016 22:20 12,0 C 58 % 1011,4 hPa 0,0 l/m 13,9 km/h (3 Bft) O-NO 69 0 min 0,000 mm 0,0 UV-I 0 W/m 4,0 C 8,0 C 19,3 km/h (3 Bft) 95,83 %
30.04.2016 22:21 11,9 C 58 % 1011,5 hPa 0,0 l/m 13,7 km/h (3 Bft) O-NO 65 0 min 0,000 mm 0,0 UV-I 0 W/m 3,9 C 8,0 C 17,7 km/h (3 Bft) 100,00 %
30.04.2016 22:22 11,9 C 58 % 1011,5 hPa 0,0 l/m 13,0 km/h (3 Bft) NO 56 0 min 0,000 mm 0,0 UV-I 0 W/m 3,9 C 8,3 C 17,7 km/h (3 Bft) 95,65 %
30.04.2016 22:23 11,9 C 58 % 1011,4 hPa 0,0 l/m 15,5 km/h (3 Bft) NO 42 0 min 0,000 mm 0,0 UV-I 0 W/m 3,9 C 7,2 C 19,3 km/h (3 Bft) 100,00 %
30.04.2016 22:24 11,9 C 58 % 1011,4 hPa 0,0 l/m 15,5 km/h (3 Bft) O-NO 59 0 min 0,000 mm 0,0 UV-I 0 W/m 3,9 C 7,2 C 20,9 km/h (4 Bft) 95,65 %
30.04.2016 22:25 12,0 C 58 % 1011,4 hPa 0,0 l/m 14,1 km/h (3 Bft) NO 51 0 min 0,000 mm 0,0 UV-I 0 W/m 4,0 C 7,9 C 17,7 km/h (3 Bft) 100,00 %
30.04.2016 22:26 11,9 C 58 % 1011,4 hPa 0,0 l/m 14,1 km/h (3 Bft) O-NO 68 0 min 0,000 mm 0,0 UV-I 0 W/m 3,9 C 7,8 C 20,9 km/h (4 Bft) 95,65 %
30.04.2016 22:27 11,9 C 58 % 1011,4 hPa 0,0 l/m 11,1 km/h (2 Bft) NO 52 0 min 0,000 mm 0,0 UV-I 0 W/m 3,9 C 9,1 C 14,5 km/h (3 Bft) 95,83 %
30.04.2016 22:28 11,9 C 58 % 1011,4 hPa 0,0 l/m 14,8 km/h (3 Bft) O-NO 74 0 min 0,000 mm 0,0 UV-I 0 W/m 3,9 C 7,5 C 19,3 km/h (3 Bft) 95,65 %
30.04.2016 22:29 11,9 C 58 % 1011,4 hPa 0,0 l/m 13,4 km/h (3 Bft) O-NO 61 0 min 0,000 mm 0,0 UV-I 0 W/m 3,9 C 8,1 C 19,3 km/h (3 Bft) 100,00 %
30.04.2016 22:30 11,9 C 58 % 1011,3 hPa 0,0 l/m 16,8 km/h (3 Bft) O-NO 70 0 min 0,000 mm 0,0 UV-I 0 W/m 3,9 C 6,8 C 22,5 km/h (4 Bft) 100,00 %
30.04.2016 22:31 11,9 C 58 % 1011,4 hPa 0,0 l/m 13,9 km/h (3 Bft) O-NO 76 0 min 0,000 mm 0,0 UV-I 0 W/m 3,9 C 7,9 C 19,3 km/h (3 Bft) 100,00 %
30.04.2016 22:32 11,9 C 58 % 1011,4 hPa 0,0 l/m 14,3 km/h (3 Bft) NO 50 0 min 0,000 mm 0,0 UV-I 0 W/m 3,9 C 7,7 C 19,3 km/h (3 Bft) 100,00 %
30.04.2016 22:33 11,9 C 58 % 1011,4 hPa 0,0 l/m 16,6 km/h (3 Bft) O-NO 67 0 min 0,000 mm 0,0 UV-I 0 W/m 3,9 C 6,8 C 22,5 km/h (4 Bft) 95,83 %
30.04.2016 22:34 11,9 C 58 % 1011,4 hPa 0,0 l/m 17,0 km/h (3 Bft) NO 56 0 min 0,000 mm 0,0 UV-I 0 W/m 3,9 C 6,7 C 19,3 km/h (3 Bft) 100,00 %
30.04.2016 22:35 11,9 C 58 % 1011,4 hPa 0,0 l/m 13,6 km/h (3 Bft) O-NO 69 0 min 0,000 mm 0,0 UV-I 0 W/m 3,9 C 8,0 C 19,3 km/h (3 Bft) 100,00 %
30.04.2016 22:36 11,9 C 58 % 1011,3 hPa 0,0 l/m 13,4 km/h (3 Bft) NO 36 0 min 0,000 mm 0,0 UV-I 0 W/m 3,9 C 8,1 C 17,7 km/h (3 Bft) 100,00 %
30.04.2016 22:37 11,9 C 58 % 1011,3 hPa 0,0 l/m 16,2 km/h (3 Bft) NO 47 0 min 0,000 mm 0,0 UV-I 0 W/m 3,9 C 7,0 C 22,5 km/h (4 Bft) 95,65 %
30.04.2016 22:38 11,9 C 58 % 1011,4 hPa 0,0 l/m 17,2 km/h (3 Bft) O-NO 58 0 min 0,000 mm 0,0 UV-I 0 W/m 3,9 C 6,6 C 20,9 km/h (4 Bft) 100,00 %
30.04.2016 22:39 11,9 C 58 % 1011,4 hPa 0,0 l/m 16,4 km/h (3 Bft) O-NO 62 0 min 0,000 mm 0,0 UV-I 0 W/m 3,9 C 6,9 C 27,4 km/h (4 Bft) 100,00 %
30.04.2016 22:40 11,9 C 58 % 1011,3 hPa 0,0 l/m 16,3 km/h (3 Bft) O-NO 60 0 min 0,000 mm 0,0 UV-I 0 W/m 3,9 C 7,0 C 22,5 km/h (4 Bft) 100,00 %
30.04.2016 22:41 11,9 C 58 % 1011,4 hPa 0,0 l/m 16,7 km/h (3 Bft) NO 54 0 min 0,000 mm 0,0 UV-I 0 W/m 3,9 C 6,8 C 20,9 km/h (4 Bft) 100,00 %
30.04.2016 22:42 11,8 C 58 % 1011,4 hPa 0,0 l/m 16,0 km/h (3 Bft) O-NO 64 0 min 0,000 mm 0,0 UV-I 0 W/m 3,8 C 6,9 C 19,3 km/h (3 Bft) 100,00 %
30.04.2016 22:43 11,8 C 58 % 1011,4 hPa 0,0 l/m 17,3 km/h (3 Bft) O-NO 58 0 min 0,000 mm 0,0 UV-I 0 W/m 3,8 C 6,5 C 22,5 km/h (4 Bft) 91,30 %
30.04.2016 22:44 11,8 C 58 % 1011,4 hPa 0,0 l/m 15,7 km/h (3 Bft) O-NO 61 0 min 0,000 mm 0,0 UV-I 0 W/m 3,8 C 7,0 C 22,5 km/h (4 Bft) 100,00 %
30.04.2016 22:45 11,8 C 58 % 1011,4 hPa 0,0 l/m 17,3 km/h (3 Bft) O-NO 57 0 min 0,000 mm 0,0 UV-I 0 W/m 3,8 C 6,5 C 22,5 km/h (4 Bft) 100,00 %
30.04.2016 22:46 11,8 C 59 % 1011,4 hPa 0,0 l/m 14,6 km/h (3 Bft) O-NO 75 0 min 0,000 mm 0,0 UV-I 0 W/m 4,1 C 7,5 C 22,5 km/h (4 Bft) 100,00 %
30.04.2016 22:47 11,8 C 58 % 1011,4 hPa 0,0 l/m 14,5 km/h (3 Bft) NO 55 0 min 0,000 mm 0,0 UV-I 0 W/m 3,8 C 7,5 C 19,3 km/h (3 Bft) 95,65 %
30.04.2016 22:48 11,8 C 59 % 1011,4 hPa 0,0 l/m 11,5 km/h (2 Bft) O-NO 71 0 min 0,000 mm 0,0 UV-I 0 W/m 4,1 C 8,8 C 17,7 km/h (3 Bft) 100,00 %
30.04.2016 22:49 11,8 C 59 % 1011,4 hPa 0,0 l/m 16,3 km/h (3 Bft) NO 50 0 min 0,000 mm 0,0 UV-I 0 W/m 4,1 C 6,8 C 22,5 km/h (4 Bft) 91,30 %
30.04.2016 22:50 11,8 C 58 % 1011,4 hPa 0,0 l/m 18,8 km/h (3 Bft) O-NO 57 0 min 0,000 mm 0,0 UV-I 0 W/m 3,8 C 6,0 C 25,7 km/h (4 Bft) 100,00 %
30.04.2016 22:51 11,8 C 59 % 1011,4 hPa 0,0 l/m 15,9 km/h (3 Bft) NO 40 0 min 0,000 mm 0,0 UV-I 0 W/m 4,1 C 7,0 C 20,9 km/h (4 Bft) 95,65 %
30.04.2016 22:52 11,7 C 59 % 1011,4 hPa 0,0 l/m 12,3 km/h (3 Bft) O-NO 73 0 min 0,000 mm 0,0 UV-I 0 W/m 4,0 C 8,3 C 16,1 km/h (3 Bft) 100,00 %
30.04.2016 22:53 11,7 C 59 % 1011,3 hPa 0,0 l/m 14,6 km/h (3 Bft) O-NO 62 0 min 0,000 mm 0,0 UV-I 0 W/m 4,0 C 7,4 C 19,3 km/h (3 Bft) 100,00 %
30.04.2016 22:54 11,7 C 59 % 1011,4 hPa 0,0 l/m 14,1 km/h (3 Bft) NO 46 0 min 0,000 mm 0,0 UV-I 0 W/m 4,0 C 7,6 C 19,3 km/h (3 Bft) 100,00 %
30.04.2016 22:55 11,7 C 59 % 1011,3 hPa 0,0 l/m 15,0 km/h (3 Bft) O-NO 66 0 min 0,000 mm 0,0 UV-I 0 W/m 4,0 C 7,2 C 20,9 km/h (4 Bft) 96,15 %
30.04.2016 22:56 11,7 C 59 % 1011,3 hPa 0,0 l/m 14,5 km/h (3 Bft) NO 49 0 min 0,000 mm 0,0 UV-I 0 W/m 4,0 C 7,4 C 20,9 km/h (4 Bft) 100,00 %
30.04.2016 22:57 11,7 C 59 % 1011,3 hPa 0,0 l/m 14,9 km/h (3 Bft) O-NO 61 0 min 0,000 mm 0,0 UV-I 0 W/m 4,0 C 7,2 C 20,9 km/h (4 Bft) 100,00 %
30.04.2016 22:58 11,7 C 59 % 1011,3 hPa 0,0 l/m 14,6 km/h (3 Bft) O-NO 59 0 min 0,000 mm 0,0 UV-I 0 W/m 4,0 C 7,4 C 17,7 km/h (3 Bft) 95,83 %
30.04.2016 22:59 11,7 C 59 % 1011,4 hPa 0,0 l/m 13,8 km/h (3 Bft) NO 52 0 min 0,000 mm 0,0 UV-I 0 W/m 4,0 C 7,7 C 17,7 km/h (3 Bft) 100,00 %
30.04.2016 23:00 11,7 C 59 % 1011,3 hPa 0,0 l/m 13,4 km/h (3 Bft) O 82 0 min 0,000 mm 0,0 UV-I 0 W/m 4,0 C 7,8 C 17,7 km/h (3 Bft) 100,00 %
30.04.2016 23:02 11,6 C 59 % 1011,4 hPa 0,0 l/m 14,4 km/h (3 Bft) NO 43 0 min 0,076 mm 0,0 UV-I 0 W/m 3,9 C 7,3 C 20,9 km/h (4 Bft) 100,00 %
30.04.2016 23:03 11,6 C 59 % 1011,4 hPa 0,0 l/m 14,1 km/h (3 Bft) O-NO 76 0 min 0,000 mm 0,0 UV-I 0 W/m 3,9 C 7,4 C 19,3 km/h (3 Bft) 100,00 %
30.04.2016 23:04 11,6 C 59 % 1011,4 hPa 0,0 l/m 14,4 km/h (3 Bft) NO 42 0 min 0,000 mm 0,0 UV-I 0 W/m 3,9 C 7,3 C 17,7 km/h (3 Bft) 100,00 %
30.04.2016 23:05 11,5 C 60 % 1011,4 hPa 0,0 l/m 11,7 km/h (2 Bft) O-NO 65 0 min 0,000 mm 0,0 UV-I 0 W/m 4,0 C 8,4 C 17,7 km/h (3 Bft) 100,00 %
30.04.2016 23:06 11,5 C 60 % 1011,4 hPa 0,0 l/m 12,2 km/h (2 Bft) O-NO 60 0 min 0,000 mm 0,0 UV-I 0 W/m 4,0 C 8,1 C 17,7 km/h (3 Bft) 100,00 %
30.04.2016 23:07 11,4 C 60 % 1011,4 hPa 0,0 l/m 16,0 km/h (3 Bft) O-NO 60 0 min 0,000 mm 0,0 UV-I 0 W/m 3,9 C 6,4 C 20,9 km/h (4 Bft) 100,00 %
30.04.2016 23:08 11,4 C 60 % 1011,4 hPa 0,0 l/m 14,3 km/h (3 Bft) NO 40 0 min 0,000 mm 0,0 UV-I 0 W/m 3,9 C 7,1 C 17,7 km/h (3 Bft) 100,00 %
30.04.2016 23:09 11,4 C 60 % 1011,4 hPa 0,0 l/m 14,6 km/h (3 Bft) O 91 0 min 0,000 mm 0,0 UV-I 0 W/m 3,9 C 7,0 C 20,9 km/h (4 Bft) 100,00 %
30.04.2016 23:10 11,4 C 60 % 1011,4 hPa 0,0 l/m 14,1 km/h (3 Bft) O-NO 62 0 min 0,000 mm 0,0 UV-I 0 W/m 3,9 C 7,2 C 17,7 km/h (3 Bft) 100,00 %
30.04.2016 23:11 11,3 C 60 % 1011,4 hPa 0,0 l/m 11,1 km/h (2 Bft) O 79 0 min 0,000 mm 0,0 UV-I 0 W/m 3,8 C 8,5 C 20,9 km/h (4 Bft) 100,00 %
30.04.2016 23:12 11,3 C 60 % 1011,4 hPa 0,0 l/m 15,2 km/h (3 Bft) O-NO 57 0 min 0,000 mm 0,0 UV-I 0 W/m 3,8 C 6,6 C 22,5 km/h (4 Bft) 100,00 %
30.04.2016 23:13 11,3 C 60 % 1011,4 hPa 0,0 l/m 15,7 km/h (3 Bft) O-NO 67 0 min 0,000 mm 0,0 UV-I 0 W/m 3,8 C 6,4 C 19,3 km/h (3 Bft) 100,00 %
30.04.2016 23:14 11,3 C 60 % 1011,4 hPa 0,0 l/m 12,5 km/h (3 Bft) NO 43 0 min 0,000 mm 0,0 UV-I 0 W/m 3,8 C 7,8 C 16,1 km/h (3 Bft) 100,00 %
30.04.2016 23:15 11,3 C 61 % 1011,4 hPa 0,0 l/m 15,3 km/h (3 Bft) O-NO 69 0 min 0,000 mm 0,0 UV-I 0 W/m 4,1 C 6,6 C 19,3 km/h (3 Bft) 100,00 %
30.04.2016 23:16 11,3 C 61 % 1011,4 hPa 0,0 l/m 14,3 km/h (3 Bft) NO 55 0 min 0,000 mm 0,0 UV-I 0 W/m 4,1 C 7,0 C 19,3 km/h (3 Bft) 100,00 %
30.04.2016 23:17 11,3 C 61 % 1011,4 hPa 0,0 l/m 14,6 km/h (3 Bft) NO 47 0 min 0,000 mm 0,0 UV-I 0 W/m 4,1 C 6,9 C 17,7 km/h (3 Bft) 100,00 %
30.04.2016 23:18 11,2 C 61 % 1011,4 hPa 0,0 l/m 16,5 km/h (3 Bft) O-NO 65 0 min 0,000 mm 0,0 UV-I 0 W/m 4,0 C 6,0 C 20,9 km/h (4 Bft) 100,00 %
30.04.2016 23:19 11,2 C 61 % 1011,4 hPa 0,0 l/m 13,2 km/h (3 Bft) O-NO 76 0 min 0,000 mm 0,0 UV-I 0 W/m 4,0 C 7,3 C 17,7 km/h (3 Bft) 100,00 %
30.04.2016 23:20 11,2 C 61 % 1011,4 hPa 0,0 l/m 14,8 km/h (3 Bft) O-NO 73 0 min 0,000 mm 0,0 UV-I 0 W/m 4,0 C 6,7 C 17,7 km/h (3 Bft) 95,83 %
30.04.2016 23:21 11,2 C 61 % 1011,4 hPa 0,0 l/m 12,0 km/h (2 Bft) O-NO 66 0 min 0,000 mm 0,0 UV-I 0 W/m 4,0 C 7,9 C 14,5 km/h (3 Bft) 100,00 %
30.04.2016 23:22 11,2 C 61 % 1011,4 hPa 0,0 l/m 13,5 km/h (3 Bft) O-NO 65 0 min 0,000 mm 0,0 UV-I 0 W/m 4,0 C 7,2 C 16,1 km/h (3 Bft) 95,83 %
30.04.2016 23:23 11,1 C 61 % 1011,4 hPa 0,0 l/m 12,4 km/h (3 Bft) O-NO 74 0 min 0,000 mm 0,0 UV-I 0 W/m 3,9 C 7,6 C 16,1 km/h (3 Bft) 91,30 %
30.04.2016 23:24 11,1 C 62 % 1011,4 hPa 0,0 l/m 12,5 km/h (3 Bft) NO 40 0 min 0,000 mm 0,0 UV-I 0 W/m 4,1 C 7,5 C 16,1 km/h (3 Bft) 100,00 %
30.04.2016 23:25 11,1 C 62 % 1011,4 hPa 0,0 l/m 12,7 km/h (3 Bft) O-NO 62 0 min 0,000 mm 0,0 UV-I 0 W/m 4,1 C 7,5 C 17,7 km/h (3 Bft) 91,30 %
30.04.2016 23:26 11,1 C 62 % 1011,4 hPa 0,0 l/m 10,9 km/h (2 Bft) O 83 0 min 0,000 mm 0,0 UV-I 0 W/m 4,1 C 8,3 C 16,1 km/h (3 Bft) 100,00 %
30.04.2016 23:27 11,0 C 62 % 1011,3 hPa 0,0 l/m 13,0 km/h (3 Bft) O-NO 62 0 min 0,000 mm 0,0 UV-I 0 W/m 4,0 C 7,2 C 16,1 km/h (3 Bft) 95,65 %
30.04.2016 23:28 11,0 C 62 % 1011,3 hPa 0,0 l/m 12,6 km/h (3 Bft) O-NO 74 0 min 0,000 mm 0,0 UV-I 0 W/m 4,0 C 7,4 C 14,5 km/h (3 Bft) 95,83 %
30.04.2016 23:29 10,9 C 62 % 1011,4 hPa 0,0 l/m 11,4 km/h (2 Bft) O-NO 63 0 min 0,000 mm 0,0 UV-I 0 W/m 3,9 C 7,8 C 14,5 km/h (3 Bft) 95,65 %
30.04.2016 23:30 10,9 C 62 % 1011,3 hPa 0,0 l/m 11,0 km/h (2 Bft) O-NO 74 0 min 0,000 mm 0,0 UV-I 0 W/m 3,9 C 8,1 C 16,1 km/h (3 Bft) 95,83 %
30.04.2016 23:31 10,8 C 63 % 1011,3 hPa 0,0 l/m 10,9 km/h (2 Bft) O-NO 76 0 min 0,000 mm 0,0 UV-I 0 W/m 4,0 C 8,0 C 14,5 km/h (3 Bft) 100,00 %
30.04.2016 23:32 10,8 C 63 % 1011,4 hPa 0,0 l/m 10,1 km/h (2 Bft) O-NO 67 0 min 0,000 mm 0,0 UV-I 0 W/m 4,0 C 8,4 C 14,5 km/h (3 Bft) 91,67 %
30.04.2016 23:33 10,8 C 63 % 1011,4 hPa 0,0 l/m 9,0 km/h (2 Bft) O-NO 71 0 min 0,000 mm 0,0 UV-I 0 W/m 4,0 C 9,1 C 12,9 km/h (3 Bft) 100,00 %
30.04.2016 23:34 10,7 C 63 % 1011,4 hPa 0,0 l/m 8,7 km/h (2 Bft) O-NO 60 0 min 0,000 mm 0,0 UV-I 0 W/m 3,9 C 9,1 C 12,9 km/h (3 Bft) 95,83 %
30.04.2016 23:35 10,7 C 63 % 1011,4 hPa 0,0 l/m 9,0 km/h (2 Bft) NO 49 0 min 0,000 mm 0,0 UV-I 0 W/m 3,9 C 9,0 C 12,9 km/h (3 Bft) 100,00 %
30.04.2016 23:36 10,7 C 63 % 1011,4 hPa 0,0 l/m 9,1 km/h (2 Bft) O-NO 58 0 min 0,000 mm 0,0 UV-I 0 W/m 3,9 C 8,9 C 12,9 km/h (3 Bft) 95,83 %
30.04.2016 23:37 10,7 C 63 % 1011,4 hPa 0,0 l/m 9,7 km/h (2 Bft) NO 42 0 min 0,000 mm 0,0 UV-I 0 W/m 3,9 C 8,5 C 14,5 km/h (3 Bft) 100,00 %
30.04.2016 23:38 10,6 C 64 % 1011,4 hPa 0,0 l/m 9,0 km/h (2 Bft) O-NO 78 0 min 0,000 mm 0,0 UV-I 0 W/m 4,1 C 8,8 C 12,9 km/h (3 Bft) 92,31 %
30.04.2016 23:39 10,6 C 64 % 1011,4 hPa 0,0 l/m 9,0 km/h (2 Bft) O-NO 59 0 min 0,000 mm 0,0 UV-I 0 W/m 4,1 C 8,8 C 14,5 km/h (3 Bft) 100,00 %
30.04.2016 23:40 10,6 C 64 % 1011,4 hPa 0,0 l/m 9,3 km/h (2 Bft) NO 55 0 min 0,000 mm 0,0 UV-I 0 W/m 4,1 C 8,7 C 12,9 km/h (3 Bft) 96,15 %
30.04.2016 23:41 10,5 C 64 % 1011,4 hPa 0,0 l/m 7,2 km/h (2 Bft) O-NO 74 0 min 0,000 mm 0,0 UV-I 0 W/m 4,0 C 9,9 C 12,9 km/h (3 Bft) 96,30 %
30.04.2016 23:42 10,4 C 64 % 1011,4 hPa 0,0 l/m 10,4 km/h (2 Bft) O-NO 67 0 min 0,000 mm 0,0 UV-I 0 W/m 3,9 C 7,8 C 12,9 km/h (3 Bft) 100,00 %
30.04.2016 23:43 10,4 C 65 % 1011,4 hPa 0,0 l/m 9,5 km/h (2 Bft) O 81 0 min 0,000 mm 0,0 UV-I 0 W/m 4,1 C 8,3 C 12,9 km/h (3 Bft) 95,83 %
30.04.2016 23:44 10,3 C 65 % 1011,4 hPa 0,0 l/m 9,3 km/h (2 Bft) O-NO 72 0 min 0,000 mm 0,0 UV-I 0 W/m 4,0 C 8,3 C 12,9 km/h (3 Bft) 100,00 %
30.04.2016 23:45 10,3 C 65 % 1011,4 hPa 0,0 l/m 9,3 km/h (2 Bft) O-NO 67 0 min 0,000 mm 0,0 UV-I 0 W/m 4,0 C 8,3 C 14,5 km/h (3 Bft) 95,83 %
30.04.2016 23:46 10,3 C 65 % 1011,4 hPa 0,0 l/m 8,2 km/h (2 Bft) O-NO 61 0 min 0,000 mm 0,0 UV-I 0 W/m 4,0 C 9,0 C 12,9 km/h (3 Bft) 100,00 %
30.04.2016 23:47 10,2 C 65 % 1011,4 hPa 0,0 l/m 9,3 km/h (2 Bft) O-NO 74 0 min 0,000 mm 0,0 UV-I 0 W/m 3,9 C 8,2 C 12,9 km/h (3 Bft) 95,83 %
30.04.2016 23:48 10,2 C 65 % 1011,4 hPa 0,0 l/m 8,7 km/h (2 Bft) O-NO 66 0 min 0,000 mm 0,0 UV-I 0 W/m 3,9 C 8,6 C 12,9 km/h (3 Bft) 95,65 %
30.04.2016 23:49 10,2 C 65 % 1011,4 hPa 0,0 l/m 9,3 km/h (2 Bft) O-NO 77 0 min 0,000 mm 0,0 UV-I 0 W/m 3,9 C 8,2 C 14,5 km/h (3 Bft) 100,00 %
30.04.2016 23:50 10,2 C 65 % 1011,4 hPa 0,0 l/m 6,5 km/h (2 Bft) O-NO 71 0 min 0,000 mm 0,0 UV-I 0 W/m 3,9 C 10,2 C 11,3 km/h (2 Bft) 100,00 %
30.04.2016 23:51 10,2 C 65 % 1011,4 hPa 0,0 l/m 7,2 km/h (2 Bft) O-NO 62 0 min 0,000 mm 0,0 UV-I 0 W/m 3,9 C 9,6 C 9,7 km/h (2 Bft) 96,15 %
30.04.2016 23:52 10,2 C 65 % 1011,4 hPa 0,0 l/m 8,8 km/h (2 Bft) NO 49 0 min 0,000 mm 0,0 UV-I 0 W/m 3,9 C 8,5 C 11,3 km/h (2 Bft) 95,83 %
30.04.2016 23:53 10,2 C 65 % 1011,4 hPa 0,0 l/m 8,4 km/h (2 Bft) O-NO 76 0 min 0,000 mm 0,0 UV-I 0 W/m 3,9 C 8,8 C 12,9 km/h (3 Bft) 100,00 %
30.04.2016 23:54 10,2 C 65 % 1011,4 hPa 0,0 l/m 9,4 km/h (2 Bft) O-NO 57 0 min 0,000 mm 0,0 UV-I 0 W/m 3,9 C 8,2 C 14,5 km/h (3 Bft) 95,83 %
30.04.2016 23:55 10,1 C 65 % 1011,4 hPa 0,0 l/m 9,5 km/h (2 Bft) O-NO 71 0 min 0,000 mm 0,0 UV-I 0 W/m 3,8 C 8,0 C 16,1 km/h (3 Bft) 100,00 %
30.04.2016 23:56 10,2 C 65 % 1011,4 hPa 0,0 l/m 9,9 km/h (2 Bft) NO 53 0 min 0,000 mm 0,0 UV-I 0 W/m 3,9 C 7,9 C 14,5 km/h (3 Bft) 96,30 %
30.04.2016 23:57 10,2 C 65 % 1011,4 hPa 0,0 l/m 10,8 km/h (2 Bft) NO 54 0 min 0,000 mm 0,0 UV-I 0 W/m 3,9 C 7,4 C 14,5 km/h (3 Bft) 100,00 %
30.04.2016 23:58 10,2 C 65 % 1011,4 hPa 0,0 l/m 11,2 km/h (2 Bft) NO 45 0 min 0,000 mm 0,0 UV-I 0 W/m 3,9 C 7,2 C 16,1 km/h (3 Bft) 100,00 %
30.04.2016 23:59 10,2 C 65 % 1011,4 hPa 0,0 l/m 12,0 km/h (2 Bft) O-NO 65 0 min 0,000 mm 0,0 UV-I 0 W/m 3,9 C 6,7 C 16,1 km/h (3 Bft) 95,65 %
_ Min-Zeit 06:18 16:09 22:30 - 04:49 - - - - - - 16:09 06:18 04:49 08:41
Minimum _ 1,2 C 26 % 1011,3 hPa - 0,0 km/h (0 Bft) - - - - - - -1,1 C 1,2 C 0,0 km/h (0 Bft) 84,62 %
_ Max-Zeit 15:50 06:20 07:43 00:00 17:51 - - 16:25 15:00 12:54 13:02 12:13 14:18 17:58 00:03
Maximum _ 19,1 C 90 % 1017,5 hPa 0,0 l/m 28,2 km/h
N-NO (4 Bft)
- - 5 min 0,585 mm 4,7 UV-I 855 W/m 7,5 C 17,4 C 37,0 km/h
O-NO (5 Bft)
100,00 %
Durchschnitt _ 11,3 C 59 % 1014,9 hPa #0,0 l/m 10,4 km/h (2 Bft) O-NO - #12:18 h #5,156 mm 2,7 UV-I 477 W/m 2,7 C 9,2 C 14,5 km/h (3 Bft) 98,33 %